Darstellungsparameter: Aktuell verwendete Einstellungen:
Skalierung der Graphiken ... ?
xyx+y,   Skalierungsfaktor:      Skalierung: Modus: x, Faktor: 1
Darstellungszeitraum ... ?
Vom - - bis: - -   Zeitraum: 25.02.2019 - 24.08.2019
Min/Max/Avg-Anzeige ... ?
Zeige MMA aktuell
Zeige MMA Monat
Zeige MMA alles
Zeige --A aktuell
Zeige --A Monat
Zeige --A alles
Keine MMA-Anzeige
MMA:
Minimum Maximum Average (ber die Originaldaten)
MMA-Basis: 23.02.2003 - 16.08.2019
Quicknavigation für Darstellung... ?
Tage:      1T, 2T, 3T, 5T -1T -2T -3T -5T +1T +2T +3T +5T
Wochen: 1W, 2W, 3W -1W -2W -3W +1W +2W +3W
Monate: 1M, 3M, 6M -1M -3M -6M +1M +3M +6M
Jahre:    1J, 3J, 5J, 10J -1J -3J -5J -10J +1J +3J +5J +10J
Nutze für die Darstellung ... ?
Originaldaten oder Mittelwerte auf ...
Stundenbasis Tagesbasis Wochenbasis
Monatsbasis Jahresbasis      Datenbasis: Original-Daten
Darstellen als:
Statistik (Auto) Statistik J:M      Darstellung:
Zur Graphik,    zurück zur Übersicht aller Sensoren.
 
Tabellarische Datenbersicht: ?
 
Sensor: Nr:Datum:Temp:Feuchte:Taupunkt:
Aussen-T/F 1 25-02-2019 00:00:00 1.8 C 76 % -1.97 C
2 25-02-2019 00:05:00 1.8 C 77 % -1.79 C
3 25-02-2019 00:10:00 1.7 C 77 % -1.89 C
4 25-02-2019 00:15:00 1.4 C 77 % -2.18 C
5 25-02-2019 00:20:00 1.3 C 78 % -2.1 C
6 25-02-2019 00:25:00 1.2 C 79 % -2.03 C
7 25-02-2019 00:30:00 1.1 C 80 % -1.96 C
8 25-02-2019 00:35:00 0.9 C 80 % -2.15 C
9 25-02-2019 00:40:00 0.8 C 80 % -2.25 C
10 25-02-2019 00:45:00 0.7 C 81 % -2.18 C
11 25-02-2019 00:50:00 0.7 C 81 % -2.18 C
12 25-02-2019 00:55:00 0.7 C 81 % -2.18 C
13 25-02-2019 01:00:00 1 C 81 % -1.88 C
14 25-02-2019 01:05:00 1.2 C 80 % -1.86 C
15 25-02-2019 01:10:00 1.3 C 80 % -1.76 C
16 25-02-2019 01:15:00 1.1 C 80 % -1.96 C
17 25-02-2019 01:20:00 0.9 C 81 % -1.98 C
18 25-02-2019 01:25:00 0.9 C 81 % -1.98 C
19 25-02-2019 01:30:00 0.9 C 81 % -1.98 C
20 25-02-2019 01:35:00 1 C 81 % -1.88 C
21 25-02-2019 01:40:00 0.9 C 81 % -1.98 C
22 25-02-2019 01:45:00 0.7 C 81 % -2.18 C
23 25-02-2019 01:50:00 0.6 C 82 % -2.11 C
24 25-02-2019 01:55:00 0.6 C 83 % -1.95 C
25 25-02-2019 02:00:00 0.7 C 83 % -1.85 C
Sensor: Nr:Datum:Temp:Feuchte:Taupunkt:
Aussen-T/F 26 25-02-2019 02:05:00 0.6 C 82 % -2.11 C
27 25-02-2019 02:10:00 0.4 C 82 % -2.3 C
28 25-02-2019 02:15:00 0.3 C 83 % -2.24 C
29 25-02-2019 02:20:00 0.2 C 83 % -2.34 C
30 25-02-2019 02:25:00 0 C 83 % -2.53 C
31 25-02-2019 02:30:00 -0.1 C 84 % -2.47 C
32 25-02-2019 02:35:00 -0.1 C 84 % -2.47 C
33 25-02-2019 02:40:00 -0.2 C 85 % -2.41 C
34 25-02-2019 02:45:00 -0.2 C 85 % -2.41 C
35 25-02-2019 02:50:00 -0.1 C 85 % -2.31 C
36 25-02-2019 02:55:00 0.1 C 85 % -2.11 C
37 25-02-2019 03:00:00 0.2 C 84 % -2.18 C
38 25-02-2019 03:05:00 0.3 C 84 % -2.08 C
39 25-02-2019 03:10:00 0.3 C 84 % -2.08 C
40 25-02-2019 03:15:00 0.3 C 83 % -2.24 C
41 25-02-2019 03:20:00 0.2 C 83 % -2.34 C
42 25-02-2019 03:25:00 0.1 C 83 % -2.44 C
43 25-02-2019 03:30:00 -0.1 C 83 % -2.63 C
44 25-02-2019 03:35:00 -0.2 C 84 % -2.57 C
45 25-02-2019 03:40:00 -0.2 C 85 % -2.41 C
46 25-02-2019 03:45:00 -0.3 C 85 % -2.51 C
47 25-02-2019 03:50:00 -0.3 C 85 % -2.51 C
48 25-02-2019 03:55:00 -0.4 C 85 % -2.61 C
49 25-02-2019 04:00:00 -0.5 C 85 % -2.71 C
50 25-02-2019 04:05:00 -0.5 C 86 % -2.55 C
Sensor: Nr:Datum:Temp:Feuchte:Taupunkt:
Aussen-T/F 51 25-02-2019 04:10:00 -0.5 C 86 % -2.55 C
52 25-02-2019 04:15:00 -0.5 C 86 % -2.55 C
53 25-02-2019 04:20:00 -0.6 C 86 % -2.65 C
54 25-02-2019 04:25:00 -0.6 C 86 % -2.65 C
55 25-02-2019 04:30:00 -0.6 C 86 % -2.65 C
56 25-02-2019 04:35:00 -0.6 C 86 % -2.65 C
57 25-02-2019 04:40:00 -0.6 C 86 % -2.65 C
58 25-02-2019 04:45:00 -0.7 C 86 % -2.74 C
59 25-02-2019 04:50:00 -0.7 C 87 % -2.59 C
60 25-02-2019 04:55:00 -0.6 C 87 % -2.49 C
61 25-02-2019 05:00:00 -0.6 C 87 % -2.49 C
62 25-02-2019 05:05:00 -0.6 C 87 % -2.49 C
63 25-02-2019 05:10:00 -0.6 C 87 % -2.49 C
64 25-02-2019 05:15:00 -0.6 C 87 % -2.49 C
65 25-02-2019 05:20:00 -0.7 C 87 % -2.59 C
66 25-02-2019 05:25:00 -0.8 C 87 % -2.69 C
67 25-02-2019 05:30:00 -0.8 C 87 % -2.69 C
68 25-02-2019 05:35:00 -0.8 C 87 % -2.69 C
69 25-02-2019 05:40:00 -0.9 C 87 % -2.79 C
70 25-02-2019 05:45:00 -0.8 C 88 % -2.53 C
71 25-02-2019 05:50:00 -0.7 C 88 % -2.44 C
72 25-02-2019 05:55:00 -0.6 C 88 % -2.34 C
73 25-02-2019 06:00:00 -0.6 C 88 % -2.34 C
74 25-02-2019 06:05:00 -0.6 C 87 % -2.49 C
75 25-02-2019 06:10:00 -0.7 C 87 % -2.59 C
Sensor: Nr:Datum:Temp:Feuchte:Taupunkt:
Aussen-T/F 76 25-02-2019 06:15:00 -0.8 C 87 % -2.69 C
77 25-02-2019 06:20:00 -0.8 C 88 % -2.53 C
78 25-02-2019 06:25:00 -0.8 C 88 % -2.53 C
79 25-02-2019 06:30:00 -0.9 C 88 % -2.63 C
80 25-02-2019 06:35:00 -1 C 88 % -2.73 C
81 25-02-2019 06:40:00 -1.1 C 88 % -2.83 C
82 25-02-2019 06:45:00 -1.1 C 88 % -2.83 C
83 25-02-2019 06:50:00 -1.1 C 89 % -2.68 C
84 25-02-2019 06:55:00 -0.9 C 89 % -2.48 C
85 25-02-2019 07:00:00 -0.9 C 88 % -2.63 C
86 25-02-2019 07:05:00 -1 C 88 % -2.73 C
87 25-02-2019 07:10:00 -1.1 C 88 % -2.83 C
88 25-02-2019 07:15:00 -1.1 C 88 % -2.83 C
89 25-02-2019 07:20:00 -1.2 C 88 % -2.93 C
90 25-02-2019 07:25:00 -1.2 C 88 % -2.93 C
91 25-02-2019 07:30:00 -1.3 C 88 % -3.03 C
92 25-02-2019 07:35:00 -1.3 C 88 % -3.03 C
93 25-02-2019 07:40:00 -1.3 C 88 % -3.03 C
94 25-02-2019 07:45:00 -1.4 C 88 % -3.13 C
95 25-02-2019 07:50:00 -1.4 C 89 % -2.97 C
96 25-02-2019 07:55:00 -1.4 C 89 % -2.97 C
97 25-02-2019 08:00:00 -1.4 C 89 % -2.97 C
98 25-02-2019 08:05:00 -1.3 C 90 % -2.73 C
99 25-02-2019 08:10:00 -1.2 C 90 % -2.63 C
100 25-02-2019 08:15:00 -1.2 C 90 % -2.63 C
Sensor: Nr:Datum:Temp:Feuchte:Taupunkt:
Aussen-T/F 101 25-02-2019 08:20:00 -1.2 C 89 % -2.78 C
102 25-02-2019 08:25:00 -1.3 C 89 % -2.88 C
103 25-02-2019 08:30:00 -1.2 C 90 % -2.63 C
104 25-02-2019 08:35:00 -1.2 C 90 % -2.63 C
105 25-02-2019 08:40:00 -1.1 C 90 % -2.53 C
106 25-02-2019 08:45:00 -1.1 C 90 % -2.53 C
107 25-02-2019 08:50:00 -1.1 C 90 % -2.53 C
108 25-02-2019 08:55:00 -1.1 C 90 % -2.53 C
109 25-02-2019 09:00:00 -0.9 C 90 % -2.33 C
110 25-02-2019 09:05:00 -0.9 C 89 % -2.48 C
111 25-02-2019 09:10:00 -0.9 C 89 % -2.48 C
112 25-02-2019 09:15:00 -0.9 C 89 % -2.48 C
113 25-02-2019 09:20:00 -0.8 C 89 % -2.38 C
114 25-02-2019 09:25:00 -0.8 C 89 % -2.38 C
115 25-02-2019 09:30:00 -0.7 C 89 % -2.28 C
116 25-02-2019 09:35:00 -0.6 C 89 % -2.18 C
117 25-02-2019 09:40:00 -0.6 C 89 % -2.18 C
118 25-02-2019 09:45:00 -0.5 C 88 % -2.24 C
119 25-02-2019 09:50:00 -0.4 C 88 % -2.14 C
120 25-02-2019 09:55:00 -0.3 C 88 % -2.04 C
121 25-02-2019 10:00:00 -0.3 C 88 % -2.04 C
122 25-02-2019 10:05:00 -0.2 C 88 % -1.94 C
123 25-02-2019 10:10:00 0 C 88 % -1.74 C
124 25-02-2019 10:15:00 0.1 C 87 % -1.8 C
125 25-02-2019 10:20:00 0.3 C 87 % -1.6 C
Sensor: Nr:Datum:Temp:Feuchte:Taupunkt:
Aussen-T/F 126 25-02-2019 10:25:00 0.5 C 87 % -1.41 C
127 25-02-2019 10:30:00 0.7 C 88 % -1.05 C
128 25-02-2019 10:35:00 1 C 87 % -0.91 C
129 25-02-2019 10:40:00 1.3 C 87 % -0.62 C
130 25-02-2019 10:45:00 1.7 C 87 % -0.23 C
131 25-02-2019 10:50:00 2.1 C 86 % 0.01 C
132 25-02-2019 10:55:00 2.6 C 85 % 0.34 C
133 25-02-2019 11:00:00 2.9 C 82 % 0.14 C
134 25-02-2019 11:05:00 3.3 C 81 % 0.36 C
135 25-02-2019 11:10:00 3.7 C 82 % 0.92 C
136 25-02-2019 11:15:00 3.9 C 79 % 0.6 C
137 25-02-2019 11:20:00 4.3 C 78 % 0.81 C
138 25-02-2019 11:25:00 4.6 C 77 % 0.92 C
139 25-02-2019 11:30:00 4.9 C 78 % 1.39 C
140 25-02-2019 11:35:00 5.1 C 77 % 1.41 C
141 25-02-2019 11:40:00 5.4 C 77 % 1.7 C
142 25-02-2019 11:45:00 5.8 C 76 % 1.91 C
143 25-02-2019 11:50:00 6 C 74 % 1.73 C
144 25-02-2019 11:55:00 6.2 C 72 % 1.54 C
145 25-02-2019 12:00:00 6.5 C 72 % 1.83 C
146 25-02-2019 12:05:00 6.8 C 72 % 2.12 C
147 25-02-2019 12:10:00 7.3 C 71 % 2.4 C
148 25-02-2019 12:15:00 7.7 C 70 % 2.58 C
149 25-02-2019 12:20:00 8.1 C 69 % 2.77 C
150 25-02-2019 12:25:00 8.4 C 69 % 3.05 C
Sensor: Nr:Datum:Temp:Feuchte:Taupunkt:
Aussen-T/F 151 25-02-2019 12:30:00 8.9 C 68 % 3.32 C
152 25-02-2019 12:35:00 9.5 C 66 % 3.47 C
153 25-02-2019 12:40:00 9.9 C 64 % 3.42 C
154 25-02-2019 12:45:00 10.3 C 62 % 3.35 C
155 25-02-2019 12:50:00 10.5 C 62 % 3.54 C
156 25-02-2019 12:55:00 10.6 C 61 % 3.4 C
157 25-02-2019 13:00:00 10.7 C 61 % 3.5 C
158 25-02-2019 13:05:00 11 C 62 % 4.01 C
159 25-02-2019 13:10:00 11.3 C 60 % 3.83 C
160 25-02-2019 13:15:00 11.6 C 53 % 2.36 C
161 25-02-2019 13:20:00 11.9 C 54 % 2.9 C
162 25-02-2019 13:25:00 12.3 C 47 % 1.33 C
163 25-02-2019 13:30:00 12.7 C 51 % 2.84 C
164 25-02-2019 13:35:00 13.1 C 50 % 2.93 C
165 25-02-2019 13:40:00 13.4 C 53 % 4.03 C
166 25-02-2019 13:45:00 13.8 C 51 % 3.85 C
167 25-02-2019 13:50:00 14.2 C 50 % 3.94 C
168 25-02-2019 13:55:00 14.6 C 48 % 3.73 C
169 25-02-2019 14:00:00 14.8 C 49 % 4.2 C
170 25-02-2019 14:05:00 14.9 C 48 % 4 C
171 25-02-2019 14:10:00 15 C 49 % 4.39 C
172 25-02-2019 14:15:00 15.1 C 48 % 4.18 C
173 25-02-2019 14:20:00 15 C 45 % 3.18 C
174 25-02-2019 14:25:00 14.9 C 45 % 3.09 C
175 25-02-2019 14:30:00 14.7 C 46 % 3.22 C
Sensor: Nr:Datum:Temp:Feuchte:Taupunkt:
Aussen-T/F 176 25-02-2019 14:35:00 14.6 C 46 % 3.12 C
177 25-02-2019 14:40:00 14.4 C 44 % 2.32 C
178 25-02-2019 14:45:00 14.4 C 46 % 2.94 C
179 25-02-2019 14:50:00 14.5 C 46 % 3.03 C
180 25-02-2019 14:55:00 14.6 C 48 % 3.73 C
181 25-02-2019 15:00:00 14.5 C 48 % 3.63 C
182 25-02-2019 15:05:00 14.5 C 46 % 3.03 C
183 25-02-2019 15:10:00 14.5 C 47 % 3.34 C
184 25-02-2019 15:15:00 14.4 C 50 % 4.12 C
185 25-02-2019 15:20:00 14.4 C 47 % 3.25 C
186 25-02-2019 15:25:00 14.3 C 49 % 3.74 C
187 25-02-2019 15:30:00 14.2 C 50 % 3.94 C
188 25-02-2019 15:35:00 14 C 51 % 4.04 C
189 25-02-2019 15:40:00 13.9 C 52 % 4.22 C
190 25-02-2019 15:45:00 13.8 C 52 % 4.13 C
191 25-02-2019 15:50:00 13.8 C 52 % 4.13 C
192 25-02-2019 15:55:00 13.8 C 51 % 3.85 C
193 25-02-2019 16:00:00 13.9 C 51 % 3.94 C
194 25-02-2019 16:05:00 13.9 C 51 % 3.94 C
195 25-02-2019 16:10:00 14.1 C 51 % 4.13 C
196 25-02-2019 16:15:00 14.1 C 46 % 2.67 C
197 25-02-2019 16:20:00 14.3 C 51 % 4.31 C
198 25-02-2019 16:25:00 14.5 C 48 % 3.63 C
199 25-02-2019 16:30:00 14.7 C 50 % 4.4 C
200 25-02-2019 16:35:00 14.7 C 50 % 4.4 C
Sensor: Nr:Datum:Temp:Feuchte:Taupunkt:
Aussen-T/F 201 25-02-2019 16:40:00 14.6 C 48 % 3.73 C
202 25-02-2019 16:45:00 14.6 C 49 % 4.02 C
203 25-02-2019 16:50:00 14.6 C 50 % 4.31 C
204 25-02-2019 16:55:00 14.5 C 50 % 4.21 C
205 25-02-2019 17:00:00 14.4 C 51 % 4.4 C
206 25-02-2019 17:05:00 14.2 C 51 % 4.22 C
207 25-02-2019 17:10:00 14.1 C 52 % 4.4 C
208 25-02-2019 17:15:00 13.9 C 52 % 4.22 C
209 25-02-2019 17:20:00 13.7 C 53 % 4.31 C
210 25-02-2019 17:25:00 13.6 C 53 % 4.21 C
211 25-02-2019 17:30:00 13.6 C 54 % 4.48 C
212 25-02-2019 17:35:00 13.6 C 53 % 4.21 C
213 25-02-2019 17:40:00 13.4 C 53 % 4.03 C
214 25-02-2019 17:45:00 13.3 C 54 % 4.2 C
215 25-02-2019 17:50:00 13.1 C 54 % 4.01 C
216 25-02-2019 17:55:00 12.8 C 55 % 4 C
217 25-02-2019 18:00:00 12.6 C 56 % 4.07 C
218 25-02-2019 18:05:00 12.2 C 56 % 3.69 C
219 25-02-2019 18:10:00 11.8 C 58 % 3.82 C
220 25-02-2019 18:15:00 11.4 C 58 % 3.44 C
221 25-02-2019 18:20:00 11.2 C 59 % 3.5 C
222 25-02-2019 18:25:00 11 C 60 % 3.55 C
223 25-02-2019 18:30:00 10.8 C 60 % 3.36 C
224 25-02-2019 18:35:00 10.7 C 61 % 3.5 C
225 25-02-2019 18:40:00 10.6 C 62 % 3.63 C
Sensor: Nr:Datum:Temp:Feuchte:Taupunkt:
Aussen-T/F 226 25-02-2019 18:45:00 10.4 C 62 % 3.44 C
227 25-02-2019 18:50:00 10.3 C 63 % 3.58 C
228 25-02-2019 18:55:00 10.2 C 63 % 3.48 C
229 25-02-2019 19:00:00 10 C 63 % 3.29 C
230 25-02-2019 19:05:00 9.8 C 64 % 3.32 C
231 25-02-2019 19:10:00 9.6 C 65 % 3.35 C
232 25-02-2019 19:15:00 9.4 C 66 % 3.38 C
233 25-02-2019 19:20:00 9.2 C 67 % 3.4 C
234 25-02-2019 19:25:00 8.9 C 68 % 3.32 C
235 25-02-2019 19:30:00 8.8 C 68 % 3.23 C
236 25-02-2019 19:35:00 8.8 C 68 % 3.23 C
237 25-02-2019 19:40:00 8.8 C 68 % 3.23 C
238 25-02-2019 19:45:00 8.7 C 68 % 3.13 C
239 25-02-2019 19:50:00 8.6 C 68 % 3.04 C
240 25-02-2019 19:55:00 8.3 C 69 % 2.96 C
241 25-02-2019 20:00:00 8.1 C 70 % 2.97 C
242 25-02-2019 20:05:00 8 C 71 % 3.07 C
243 25-02-2019 20:10:00 7.8 C 71 % 2.88 C
244 25-02-2019 20:15:00 7.4 C 72 % 2.69 C
245 25-02-2019 20:20:00 7.1 C 72 % 2.4 C
246 25-02-2019 20:25:00 6.9 C 73 % 2.4 C
247 25-02-2019 20:30:00 6.8 C 74 % 2.5 C
248 25-02-2019 20:35:00 6.8 C 75 % 2.69 C
249 25-02-2019 20:40:00 6.6 C 74 % 2.31 C
250 25-02-2019 20:45:00 6.4 C 74 % 2.11 C
Sensor: Nr:Datum:Temp:Feuchte:Taupunkt:
Aussen-T/F 251 25-02-2019 20:50:00 6.3 C 74 % 2.02 C
252 25-02-2019 20:55:00 6.3 C 75 % 2.2 C
253 25-02-2019 21:00:00 6.3 C 75 % 2.2 C
254 25-02-2019 21:05:00 6.1 C 75 % 2.01 C
255 25-02-2019 21:10:00 5.9 C 75 % 1.82 C
256 25-02-2019 21:15:00 5.9 C 75 % 1.82 C
257 25-02-2019 21:20:00 5.8 C 75 % 1.72 C
258 25-02-2019 21:25:00 5.6 C 76 % 1.71 C
259 25-02-2019 21:30:00 5.4 C 77 % 1.7 C
260 25-02-2019 21:35:00 5.3 C 77 % 1.6 C
261 25-02-2019 21:40:00 5.2 C 78 % 1.69 C
262 25-02-2019 21:45:00 5.2 C 78 % 1.69 C
263 25-02-2019 21:50:00 5.1 C 79 % 1.77 C
264 25-02-2019 21:55:00 5.1 C 79 % 1.77 C
265 25-02-2019 22:00:00 5 C 79 % 1.67 C
266 25-02-2019 22:05:00 5 C 78 % 1.49 C
267 25-02-2019 22:10:00 4.9 C 78 % 1.39 C
268 25-02-2019 22:15:00 4.8 C 79 % 1.47 C
269 25-02-2019 22:20:00 4.8 C 79 % 1.47 C
270 25-02-2019 22:25:00 4.7 C 79 % 1.38 C
271 25-02-2019 22:30:00 4.5 C 79 % 1.18 C
272 25-02-2019 22:35:00 4.4 C 80 % 1.26 C
273 25-02-2019 22:40:00 4.2 C 80 % 1.07 C
274 25-02-2019 22:45:00 4.2 C 80 % 1.07 C
275 25-02-2019 22:50:00 4.1 C 80 % 0.97 C
Sensor: Nr:Datum:Temp:Feuchte:Taupunkt:
Aussen-T/F 276 25-02-2019 22:55:00 4 C 82 % 1.21 C
277 25-02-2019 23:00:00 3.9 C 82 % 1.12 C
278 25-02-2019 23:05:00 3.8 C 83 % 1.19 C
279 25-02-2019 23:10:00 3.8 C 83 % 1.19 C
280 25-02-2019 23:15:00 3.7 C 82 % 0.92 C
281 25-02-2019 23:20:00 3.4 C 82 % 0.63 C
282 25-02-2019 23:25:00 3.2 C 83 % 0.6 C
283 25-02-2019 23:30:00 3.1 C 84 % 0.67 C
284 25-02-2019 23:35:00 3 C 84 % 0.57 C
285 25-02-2019 23:40:00 2.8 C 84 % 0.37 C
286 25-02-2019 23:45:00 2.7 C 85 % 0.44 C
287 25-02-2019 23:50:00 2.8 C 86 % 0.7 C
288 25-02-2019 23:55:00 2.8 C 85 % 0.54 C
289 26-02-2019 00:00:00 2.7 C 85 % 0.44 C
290 26-02-2019 00:05:00 2.8 C 86 % 0.7 C
291 26-02-2019 00:10:00 2.7 C 85 % 0.44 C
292 26-02-2019 00:15:00 2.6 C 86 % 0.5 C
293 26-02-2019 00:20:00 2.6 C 86 % 0.5 C
294 26-02-2019 00:25:00 2.6 C 86 % 0.5 C
295 26-02-2019 00:30:00 2.6 C 87 % 0.66 C
296 26-02-2019 00:35:00 2.5 C 86 % 0.4 C
297 26-02-2019 00:40:00 2.3 C 85 % 0.04 C
298 26-02-2019 00:45:00 2 C 86 % -0.09 C
299 26-02-2019 00:50:00 1.9 C 87 % -0.03 C
300 26-02-2019 00:55:00 1.8 C 88 % 0.03 C
Sensor: Nr:Datum:Temp:Feuchte:Taupunkt:
Aussen-T/F 301 26-02-2019 01:00:00 1.8 C 89 % 0.19 C
302 26-02-2019 01:05:00 1.9 C 89 % 0.28 C
303 26-02-2019 01:10:00 1.9 C 89 % 0.28 C
304 26-02-2019 01:15:00 1.9 C 88 % 0.13 C
305 26-02-2019 01:20:00 1.8 C 89 % 0.19 C
306 26-02-2019 01:25:00 1.9 C 89 % 0.28 C
307 26-02-2019 01:30:00 1.9 C 89 % 0.28 C
308 26-02-2019 01:35:00 2.1 C 90 % 0.64 C
309 26-02-2019 01:40:00 2.2 C 89 % 0.58 C
310 26-02-2019 01:45:00 2.1 C 88 % 0.33 C
311 26-02-2019 01:50:00 1.9 C 88 % 0.13 C
312 26-02-2019 01:55:00 1.8 C 88 % 0.03 C
313 26-02-2019 02:00:00 1.6 C 89 % -0.01 C
314 26-02-2019 02:05:00 1.6 C 89 % -0.01 C
315 26-02-2019 02:10:00 1.7 C 90 % 0.24 C
316 26-02-2019 02:15:00 1.7 C 90 % 0.24 C
317 26-02-2019 02:20:00 1.6 C 89 % -0.01 C
318 26-02-2019 02:25:00 1.4 C 89 % -0.21 C
319 26-02-2019 02:30:00 1.3 C 89 % -0.31 C
320 26-02-2019 02:35:00 1.3 C 90 % -0.15 C
321 26-02-2019 02:40:00 1.2 C 90 % -0.25 C
322 26-02-2019 02:45:00 1.3 C 91 % 0 C
323 26-02-2019 02:50:00 1.1 C 90 % -0.35 C
324 26-02-2019 02:55:00 0.9 C 89 % -0.7 C
325 26-02-2019 03:00:00 0.7 C 90 % -0.75 C
Sensor: Nr:Datum:Temp:Feuchte:Taupunkt:
Aussen-T/F 326 26-02-2019 03:05:00 0.6 C 90 % -0.85 C
327 26-02-2019 03:10:00 0.5 C 90 % -0.95 C
328 26-02-2019 03:15:00 0.4 C 91 % -0.89 C
329 26-02-2019 03:20:00 0.5 C 91 % -0.79 C
330 26-02-2019 03:25:00 0.5 C 91 % -0.79 C
331 26-02-2019 03:30:00 0.6 C 92 % -0.55 C
332 26-02-2019 03:35:00 0.8 C 92 % -0.35 C
333 26-02-2019 03:40:00 0.8 C 92 % -0.35 C
334 26-02-2019 03:45:00 0.7 C 91 % -0.6 C
335 26-02-2019 03:50:00 0.7 C 92 % -0.45 C
336 26-02-2019 03:55:00 0.8 C 92 % -0.35 C
337 26-02-2019 04:00:00 0.7 C 92 % -0.45 C
338 26-02-2019 04:05:00 0.4 C 91 % -0.89 C
339 26-02-2019 04:10:00 0.3 C 92 % -0.84 C
340 26-02-2019 04:15:00 0.3 C 92 % -0.84 C
341 26-02-2019 04:20:00 0.4 C 92 % -0.74 C
342 26-02-2019 04:25:00 0.4 C 92 % -0.74 C
343 26-02-2019 04:30:00 0.4 C 92 % -0.74 C
344 26-02-2019 04:35:00 0.3 C 92 % -0.84 C
345 26-02-2019 04:40:00 0.2 C 92 % -0.94 C
346 26-02-2019 04:45:00 0.1 C 92 % -1.04 C
347 26-02-2019 04:50:00 0.2 C 93 % -0.79 C
348 26-02-2019 04:55:00 0.2 C 93 % -0.79 C
349 26-02-2019 05:00:00 0.2 C 93 % -0.79 C
350 26-02-2019 05:05:00 0.1 C 93 % -0.89 C
Sensor: Nr:Datum:Temp:Feuchte:Taupunkt:
Aussen-T/F 351 26-02-2019 05:10:00 0.1 C 93 % -0.89 C
352 26-02-2019 05:15:00 0.1 C 93 % -0.89 C
353 26-02-2019 05:20:00 0 C 93 % -0.99 C
354 26-02-2019 05:25:00 0.1 C 93 % -0.89 C
355 26-02-2019 05:30:00 0.2 C 93 % -0.79 C
356 26-02-2019 05:35:00 0.3 C 93 % -0.7 C
357 26-02-2019 05:40:00 0.4 C 94 % -0.45 C
358 26-02-2019 05:45:00 0.4 C 93 % -0.6 C
359 26-02-2019 05:50:00 0.4 C 93 % -0.6 C
360 26-02-2019 05:55:00 0.3 C 93 % -0.7 C
361 26-02-2019 06:00:00 0.2 C 92 % -0.94 C
362 26-02-2019 06:05:00 -0.1 C 92 % -1.24 C
363 26-02-2019 06:10:00 -0.2 C 92 % -1.34 C
364 26-02-2019 06:15:00 -0.3 C 92 % -1.44 C
365 26-02-2019 06:20:00 -0.3 C 93 % -1.29 C
366 26-02-2019 06:25:00 -0.4 C 93 % -1.39 C
367 26-02-2019 06:30:00 -0.4 C 93 % -1.39 C
368 26-02-2019 06:35:00 -0.4 C 93 % -1.39 C
369 26-02-2019 06:40:00 -0.4 C 93 % -1.39 C
370 26-02-2019 06:45:00 -0.6 C 93 % -1.59 C
371 26-02-2019 06:50:00 -0.5 C 93 % -1.49 C
372 26-02-2019 06:55:00 -0.4 C 94 % -1.25 C
373 26-02-2019 07:00:00 -0.2 C 94 % -1.05 C
374 26-02-2019 07:05:00 -0.2 C 94 % -1.05 C
375 26-02-2019 07:10:00 -0.2 C 94 % -1.05 C
Sensor: Nr:Datum:Temp:Feuchte:Taupunkt:
Aussen-T/F 376 26-02-2019 07:15:00 -0.3 C 93 % -1.29 C
377 26-02-2019 07:20:00 -0.4 C 93 % -1.39 C
378 26-02-2019 07:25:00 -0.6 C 93 % -1.59 C
379 26-02-2019 07:30:00 -0.8 C 93 % -1.79 C
380 26-02-2019 07:35:00 -0.8 C 93 % -1.79 C
381 26-02-2019 07:40:00 -0.8 C 94 % -1.64 C
382 26-02-2019 07:45:00 -0.6 C 94 % -1.44 C
383 26-02-2019 07:50:00 -0.5 C 94 % -1.34 C
384 26-02-2019 07:55:00 -0.4 C 94 % -1.25 C
385 26-02-2019 08:00:00 -0.4 C 94 % -1.25 C
386 26-02-2019 08:05:00 -0.3 C 94 % -1.15 C
387 26-02-2019 08:10:00 -0.3 C 94 % -1.15 C
388 26-02-2019 08:15:00 -0.3 C 94 % -1.15 C
389 26-02-2019 08:20:00 -0.3 C 94 % -1.15 C
390 26-02-2019 08:25:00 -0.3 C 94 % -1.15 C
391 26-02-2019 08:30:00 -0.2 C 94 % -1.05 C
392 26-02-2019 08:35:00 -0.1 C 95 % -0.8 C
393 26-02-2019 08:40:00 0 C 95 % -0.7 C
394 26-02-2019 08:45:00 0.2 C 95 % -0.5 C
395 26-02-2019 08:50:00 0.3 C 95 % -0.4 C
396 26-02-2019 08:55:00 0.4 C 95 % -0.31 C
397 26-02-2019 09:00:00 0.4 C 94 % -0.45 C
398 26-02-2019 09:05:00 0.4 C 94 % -0.45 C
399 26-02-2019 09:10:00 0.5 C 94 % -0.35 C
400 26-02-2019 09:15:00 0.6 C 95 % -0.11 C
Sensor: Nr:Datum:Temp:Feuchte:Taupunkt:
Aussen-T/F 401 26-02-2019 09:20:00 0.7 C 95 % -0.01 C
402 26-02-2019 09:25:00 0.8 C 95 % 0.09 C
403 26-02-2019 09:30:00 0.9 C 95 % 0.19 C
404 26-02-2019 09:35:00 0.9 C 95 % 0.19 C
405 26-02-2019 09:40:00 0.9 C 95 % 0.19 C
406 26-02-2019 09:45:00 1.1 C 95 % 0.39 C
407 26-02-2019 09:50:00 1.2 C 95 % 0.49 C
408 26-02-2019 09:55:00 1.3 C 95 % 0.59 C
409 26-02-2019 10:00:00 1.6 C 95 % 0.89 C
410 26-02-2019 10:05:00 1.7 C 95 % 0.99 C
411 26-02-2019 10:10:00 1.8 C 95 % 1.09 C
412 26-02-2019 10:15:00 1.9 C 95 % 1.19 C
413 26-02-2019 10:20:00 2.1 C 95 % 1.38 C
414 26-02-2019 10:25:00 2.3 C 95 % 1.58 C
415 26-02-2019 10:30:00 2.5 C 95 % 1.78 C
416 26-02-2019 10:35:00 2.9 C 95 % 2.18 C
417 26-02-2019 10:40:00 3.2 C 94 % 2.33 C
418 26-02-2019 10:45:00 3.5 C 94 % 2.63 C
419 26-02-2019 10:50:00 3.8 C 93 % 2.77 C
420 26-02-2019 10:55:00 4 C 92 % 2.82 C
421 26-02-2019 11:00:00 4.3 C 91 % 2.96 C
422 26-02-2019 11:05:00 4.5 C 90 % 3.01 C
423 26-02-2019 11:10:00 4.8 C 90 % 3.3 C
424 26-02-2019 11:15:00 5.1 C 90 % 3.6 C
425 26-02-2019 11:20:00 5.4 C 90 % 3.89 C
Sensor: Nr:Datum:Temp:Feuchte:Taupunkt:
Aussen-T/F 426 26-02-2019 11:25:00 5.7 C 89 % 4.03 C
427 26-02-2019 11:30:00 5.9 C 87 % 3.91 C
428 26-02-2019 11:35:00 6.2 C 85 % 3.87 C
429 26-02-2019 11:40:00 6.4 C 84 % 3.9 C
430 26-02-2019 11:45:00 6.7 C 82 % 3.85 C
431 26-02-2019 11:50:00 6.9 C 81 % 3.87 C
432 26-02-2019 11:55:00 7.1 C 81 % 4.07 C
433 26-02-2019 12:00:00 7.3 C 81 % 4.26 C
434 26-02-2019 12:05:00 7.5 C 80 % 4.28 C
435 26-02-2019 12:10:00 7.8 C 76 % 3.84 C
436 26-02-2019 12:15:00 8.3 C 75 % 4.14 C
437 26-02-2019 12:20:00 8.8 C 73 % 4.24 C
438 26-02-2019 12:25:00 9.3 C 73 % 4.72 C
439 26-02-2019 12:30:00 9.8 C 71 % 4.8 C
440 26-02-2019 12:35:00 10.3 C 69 % 4.87 C
441 26-02-2019 12:40:00 10.8 C 69 % 5.35 C
442 26-02-2019 12:45:00 11.2 C 65 % 4.87 C
443 26-02-2019 12:50:00 11.4 C 68 % 5.71 C
444 26-02-2019 12:55:00 11.6 C 69 % 6.11 C
445 26-02-2019 13:00:00 11.7 C 68 % 6 C
446 26-02-2019 13:05:00 11.9 C 68 % 6.19 C
447 26-02-2019 13:10:00 12.3 C 70 % 6.99 C
448 26-02-2019 13:15:00 12.7 C 69 % 7.17 C
449 26-02-2019 13:20:00 13.2 C 67 % 7.21 C
450 26-02-2019 13:25:00 13.7 C 66 % 7.47 C
Sensor: Nr:Datum:Temp:Feuchte:Taupunkt:
Aussen-T/F 451 26-02-2019 13:30:00 14.1 C 66 % 7.85 C
452 26-02-2019 13:35:00 14.5 C 65 % 8.01 C
453 26-02-2019 13:40:00 14.9 C 64 % 8.16 C
454 26-02-2019 13:45:00 15.4 C 61 % 7.93 C
455 26-02-2019 13:50:00 15.8 C 60 % 8.06 C
456 26-02-2019 13:55:00 16.1 C 59 % 8.09 C
457 26-02-2019 14:00:00 16.4 C 58 % 8.12 C
458 26-02-2019 14:05:00 16.6 C 55 % 7.53 C
459 26-02-2019 14:10:00 16.7 C 55 % 7.62 C
460 26-02-2019 14:15:00 16.8 C 54 % 7.45 C
461 26-02-2019 14:20:00 16.7 C 54 % 7.36 C
462 26-02-2019 14:25:00 16.4 C 54 % 7.08 C
463 26-02-2019 14:30:00 16.2 C 54 % 6.89 C
464 26-02-2019 14:35:00 15.9 C 54 % 6.61 C
465 26-02-2019 14:40:00 15.7 C 56 % 6.96 C
466 26-02-2019 14:45:00 15.6 C 56 % 6.86 C
467 26-02-2019 14:50:00 15.5 C 57 % 7.03 C
468 26-02-2019 14:55:00 15.4 C 57 % 6.93 C
469 26-02-2019 15:00:00 15.3 C 55 % 6.32 C
470 26-02-2019 15:05:00 15.4 C 57 % 6.93 C
471 26-02-2019 15:10:00 15.5 C 56 % 6.77 C
472 26-02-2019 15:15:00 15.5 C 56 % 6.77 C
473 26-02-2019 15:20:00 15.5 C 55 % 6.51 C
474 26-02-2019 15:25:00 15.5 C 55 % 6.51 C
475 26-02-2019 15:30:00 15.4 C 55 % 6.42 C
Sensor: Nr:Datum:Temp:Feuchte:Taupunkt:
Aussen-T/F 476 26-02-2019 15:35:00 15.4 C 54 % 6.15 C
477 26-02-2019 15:40:00 15.6 C 55 % 6.6 C
478 26-02-2019 15:45:00 15.6 C 55 % 6.6 C
479 26-02-2019 15:50:00 15.6 C 55 % 6.6 C
480 26-02-2019 15:55:00 15.6 C 55 % 6.6 C
481 26-02-2019 16:00:00 15.6 C 54 % 6.34 C
482 26-02-2019 16:05:00 15.7 C 54 % 6.43 C
483 26-02-2019 16:10:00 15.7 C 54 % 6.43 C
484 26-02-2019 16:15:00 15.7 C 54 % 6.43 C
485 26-02-2019 16:20:00 15.7 C 55 % 6.69 C
486 26-02-2019 16:25:00 15.6 C 54 % 6.34 C
487 26-02-2019 16:30:00 15.5 C 55 % 6.51 C
488 26-02-2019 16:35:00 15.4 C 56 % 6.68 C
489 26-02-2019 16:40:00 15.2 C 57 % 6.75 C
490 26-02-2019 16:45:00 15.1 C 57 % 6.65 C
491 26-02-2019 16:50:00 15.1 C 58 % 6.91 C
492 26-02-2019 16:55:00 15 C 58 % 6.81 C
493 26-02-2019 17:00:00 14.9 C 58 % 6.72 C
494 26-02-2019 17:05:00 14.9 C 58 % 6.72 C
495 26-02-2019 17:10:00 14.9 C 58 % 6.72 C
496 26-02-2019 17:15:00 14.8 C 59 % 6.87 C
497 26-02-2019 17:20:00 14.8 C 59 % 6.87 C
498 26-02-2019 17:25:00 14.9 C 59 % 6.97 C
499 26-02-2019 17:30:00 14.9 C 58 % 6.72 C
500 26-02-2019 17:35:00 14.8 C 58 % 6.63 C
Sensor: Nr:Datum:Temp:Feuchte:Taupunkt:
Aussen-T/F 501 26-02-2019 17:40:00 14.8 C 58 % 6.63 C
502 26-02-2019 17:45:00 14.7 C 59 % 6.78 C
503 26-02-2019 17:50:00 14.5 C 59 % 6.59 C
504 26-02-2019 17:55:00 14.2 C 59 % 6.31 C
505 26-02-2019 18:00:00 13.9 C 60 % 6.27 C
506 26-02-2019 18:05:00 13.6 C 61 % 6.23 C
507 26-02-2019 18:10:00 13.3 C 61 % 5.95 C
508 26-02-2019 18:15:00 13 C 62 % 5.9 C
509 26-02-2019 18:20:00 12.8 C 63 % 5.94 C
510 26-02-2019 18:25:00 12.6 C 64 % 5.98 C
511 26-02-2019 18:30:00 12.3 C 64 % 5.69 C
512 26-02-2019 18:35:00 12.2 C 64 % 5.6 C
513 26-02-2019 18:40:00 12.1 C 65 % 5.73 C
514 26-02-2019 18:45:00 11.9 C 66 % 5.76 C
515 26-02-2019 18:50:00 11.7 C 66 % 5.57 C
516 26-02-2019 18:55:00 11.4 C 67 % 5.5 C
517 26-02-2019 19:00:00 11.3 C 68 % 5.62 C
518 26-02-2019 19:05:00 11.1 C 68 % 5.43 C
519 26-02-2019 19:10:00 10.8 C 69 % 5.35 C
520 26-02-2019 19:15:00 10.7 C 70 % 5.46 C
521 26-02-2019 19:20:00 10.6 C 71 % 5.57 C
522 26-02-2019 19:25:00 10.4 C 71 % 5.38 C
523 26-02-2019 19:30:00 10.4 C 72 % 5.58 C
524 26-02-2019 19:35:00 10.3 C 72 % 5.48 C
525 26-02-2019 19:40:00 10.1 C 72 % 5.29 C
Sensor: Nr:Datum:Temp:Feuchte:Taupunkt:
Aussen-T/F 526 26-02-2019 19:45:00 9.7 C 73 % 5.1 C
527 26-02-2019 19:50:00 9.4 C 75 % 5.2 C
528 26-02-2019 19:55:00 9.3 C 75 % 5.1 C
529 26-02-2019 20:00:00 9.2 C 74 % 4.81 C
530 26-02-2019 20:05:00 8.8 C 74 % 4.43 C
531 26-02-2019 20:10:00 8.6 C 75 % 4.43 C
532 26-02-2019 20:15:00 8.5 C 76 % 4.52 C
533 26-02-2019 20:20:00 8.4 C 77 % 4.61 C
534 26-02-2019 20:25:00 8.1 C 77 % 4.32 C
535 26-02-2019 20:30:00 7.9 C 77 % 4.12 C
536 26-02-2019 20:35:00 7.9 C 77 % 4.12 C
537 26-02-2019 20:40:00 7.9 C 77 % 4.12 C
538 26-02-2019 20:45:00 7.8 C 77 % 4.03 C
539 26-02-2019 20:50:00 7.7 C 77 % 3.93 C
540 26-02-2019 20:55:00 7.4 C 78 % 3.82 C
541 26-02-2019 21:00:00 7.3 C 79 % 3.91 C
542 26-02-2019 21:05:00 7.2 C 79 % 3.81 C
543 26-02-2019 21:10:00 7 C 79 % 3.61 C
544 26-02-2019 21:15:00 6.9 C 80 % 3.7 C
545 26-02-2019 21:20:00 6.7 C 81 % 3.68 C
546 26-02-2019 21:25:00 6.8 C 83 % 4.12 C
547 26-02-2019 21:30:00 6.8 C 82 % 3.95 C
548 26-02-2019 21:35:00 6.8 C 81 % 3.77 C
549 26-02-2019 21:40:00 6.7 C 81 % 3.68 C
550 26-02-2019 21:45:00 6.6 C 82 % 3.75 C
Sensor: Nr:Datum:Temp:Feuchte:Taupunkt:
Aussen-T/F 551 26-02-2019 21:50:00 6.4 C 82 % 3.56 C
552 26-02-2019 21:55:00 6.4 C 82 % 3.56 C
553 26-02-2019 22:00:00 6.3 C 82 % 3.46 C
554 26-02-2019 22:05:00 6.2 C 83 % 3.53 C
555 26-02-2019 22:10:00 6.2 C 83 % 3.53 C
556 26-02-2019 22:15:00 6.2 C 82 % 3.36 C
557 26-02-2019 22:20:00 5.9 C 82 % 3.07 C
558 26-02-2019 22:25:00 5.7 C 83 % 3.04 C
559 26-02-2019 22:30:00 5.6 C 84 % 3.12 C
560 26-02-2019 22:35:00 5.4 C 84 % 2.92 C
561 26-02-2019 22:40:00 5.2 C 84 % 2.72 C
562 26-02-2019 22:45:00 4.9 C 85 % 2.6 C
563 26-02-2019 22:50:00 4.9 C 86 % 2.76 C
564 26-02-2019 22:55:00 4.9 C 87 % 2.92 C
565 26-02-2019 23:00:00 4.8 C 85 % 2.5 C
566 26-02-2019 23:05:00 4.7 C 86 % 2.56 C
567 26-02-2019 23:10:00 4.7 C 87 % 2.73 C
568 26-02-2019 23:15:00 4.8 C 88 % 2.99 C
569 26-02-2019 23:20:00 4.8 C 87 % 2.82 C
570 26-02-2019 23:25:00 4.8 C 87 % 2.82 C
571 26-02-2019 23:30:00 4.6 C 86 % 2.47 C
572 26-02-2019 23:35:00 4.4 C 86 % 2.27 C
573 26-02-2019 23:40:00 4.3 C 87 % 2.33 C
574 26-02-2019 23:45:00 4.3 C 88 % 2.49 C
575 26-02-2019 23:50:00 4.3 C 89 % 2.65 C
Sensor: Nr:Datum:Temp:Feuchte:Taupunkt:
Aussen-T/F 576 26-02-2019 23:55:00 4.3 C 88 % 2.49 C
577 27-02-2019 00:00:00 4.1 C 88 % 2.3 C
578 27-02-2019 00:05:00 4 C 88 % 2.2 C
579 27-02-2019 00:10:00 3.8 C 89 % 2.16 C
580 27-02-2019 00:15:00 3.6 C 88 % 1.8 C
581 27-02-2019 00:20:00 3.6 C 89 % 1.96 C
582 27-02-2019 00:25:00 3.6 C 90 % 2.12 C
583 27-02-2019 00:30:00 3.6 C 90 % 2.12 C
584 27-02-2019 00:35:00 3.5 C 90 % 2.02 C
585 27-02-2019 00:40:00 3.3 C 89 % 1.67 C
586 27-02-2019 00:45:00 3.1 C 89 % 1.47 C
587 27-02-2019 00:50:00 3.2 C 91 % 1.88 C
588 27-02-2019 00:55:00 3.3 C 91 % 1.98 C
589 27-02-2019 01:00:00 3.2 C 90 % 1.72 C
590 27-02-2019 01:05:00 3 C 90 % 1.52 C
591 27-02-2019 01:10:00 2.9 C 90 % 1.43 C
592 27-02-2019 01:15:00 2.8 C 91 % 1.48 C
593 27-02-2019 01:20:00 2.8 C 91 % 1.48 C
594 27-02-2019 01:25:00 2.9 C 92 % 1.73 C
595 27-02-2019 01:30:00 3 C 92 % 1.83 C
596 27-02-2019 01:35:00 2.9 C 91 % 1.58 C
597 27-02-2019 01:40:00 2.8 C 91 % 1.48 C
598 27-02-2019 01:45:00 2.7 C 92 % 1.53 C
599 27-02-2019 01:50:00 2.7 C 92 % 1.53 C
600 27-02-2019 01:55:00 2.5 C 91 % 1.18 C
Sensor: Nr:Datum:Temp:Feuchte:Taupunkt:
Aussen-T/F 601 27-02-2019 02:00:00 2.3 C 91 % 0.99 C
602 27-02-2019 02:05:00 2.3 C 91 % 0.99 C
603 27-02-2019 02:10:00 2.2 C 92 % 1.04 C
604 27-02-2019 02:15:00 2.2 C 92 % 1.04 C
605 27-02-2019 02:20:00 2 C 92 % 0.84 C
606 27-02-2019 02:25:00 2.1 C 93 % 1.09 C
607 27-02-2019 02:30:00 2.3 C 93 % 1.29 C
608 27-02-2019 02:35:00 2.6 C 94 % 1.73 C
609 27-02-2019 02:40:00 2.6 C 94 % 1.73 C
610 27-02-2019 02:45:00 2.4 C 92 % 1.24 C
611 27-02-2019 02:50:00 2.1 C 92 % 0.94 C
612 27-02-2019 02:55:00 1.9 C 92 % 0.74 C
613 27-02-2019 03:00:00 1.9 C 93 % 0.89 C
614 27-02-2019 03:05:00 1.9 C 93 % 0.89 C
615 27-02-2019 03:10:00 1.9 C 93 % 0.89 C
616 27-02-2019 03:15:00 1.7 C 92 % 0.54 C
617 27-02-2019 03:20:00 1.6 C 93 % 0.59 C
618 27-02-2019 03:25:00 1.5 C 93 % 0.49 C
619 27-02-2019 03:30:00 1.3 C 93 % 0.3 C
620 27-02-2019 03:35:00 1.2 C 93 % 0.2 C
621 27-02-2019 03:40:00 1.3 C 94 % 0.44 C
622 27-02-2019 03:45:00 1.3 C 93 % 0.3 C
623 27-02-2019 03:50:00 1 C 93 % 0 C
624 27-02-2019 03:55:00 0.9 C 93 % -0.1 C
625 27-02-2019 04:00:00 1 C 94 % 0.15 C
Sensor: Nr:Datum:Temp:Feuchte:Taupunkt:
Aussen-T/F 626 27-02-2019 04:05:00 0.9 C 93 % -0.1 C
627 27-02-2019 04:10:00 0.9 C 94 % 0.05 C
628 27-02-2019 04:15:00 1 C 94 % 0.15 C
629 27-02-2019 04:20:00 0.9 C 94 % 0.05 C
630 27-02-2019 04:25:00 0.8 C 93 % -0.2 C
631 27-02-2019 04:30:00 0.7 C 94 % -0.15 C
632 27-02-2019 04:35:00 0.7 C 94 % -0.15 C
633 27-02-2019 04:40:00 0.7 C 94 % -0.15 C
634 27-02-2019 04:45:00 0.6 C 94 % -0.25 C
635 27-02-2019 04:50:00 0.6 C 94 % -0.25 C
636 27-02-2019 04:55:00 0.6 C 94 % -0.25 C
637 27-02-2019 05:00:00 0.7 C 94 % -0.15 C
638 27-02-2019 05:05:00 0.7 C 94 % -0.15 C
639 27-02-2019 05:10:00 0.6 C 94 % -0.25 C
640 27-02-2019 05:15:00 0.6 C 95 % -0.11 C
641 27-02-2019 05:20:00 0.6 C 95 % -0.11 C
642 27-02-2019 05:25:00 0.6 C 95 % -0.11 C
643 27-02-2019 05:30:00 0.5 C 94 % -0.35 C
644 27-02-2019 05:35:00 0.4 C 94 % -0.45 C
645 27-02-2019 05:40:00 0.4 C 94 % -0.45 C
646 27-02-2019 05:45:00 0.4 C 95 % -0.31 C
647 27-02-2019 05:50:00 0.3 C 95 % -0.4 C
648 27-02-2019 05:55:00 0.2 C 94 % -0.65 C
649 27-02-2019 06:00:00 0.2 C 94 % -0.65 C
650 27-02-2019 06:05:00 0.2 C 95 % -0.5 C
Sensor: Nr:Datum:Temp:Feuchte:Taupunkt:
Aussen-T/F 651 27-02-2019 06:10:00 0.2 C 95 % -0.5 C
652 27-02-2019 06:15:00 0.1 C 95 % -0.6 C
653 27-02-2019 06:20:00 0 C 95 % -0.7 C
654 27-02-2019 06:25:00 0.1 C 95 % -0.6 C
655 27-02-2019 06:30:00 0.2 C 95 % -0.5 C
656 27-02-2019 06:35:00 0.3 C 95 % -0.4 C
657 27-02-2019 06:40:00 0.3 C 95 % -0.4 C
658 27-02-2019 06:45:00 0.1 C 95 % -0.6 C
659 27-02-2019 06:50:00 -0.1 C 95 % -0.8 C
660 27-02-2019 06:55:00 -0.1 C 95 % -0.8 C
661 27-02-2019 07:00:00 -0.2 C 95 % -0.9 C
662 27-02-2019 07:05:00 -0.2 C 95 % -0.9 C
663 27-02-2019 07:10:00 -0.2 C 95 % -0.9 C
664 27-02-2019 07:15:00 -0.2 C 95 % -0.9 C
665 27-02-2019 07:20:00 -0.3 C 95 % -1 C
666 27-02-2019 07:25:00 -0.4 C 95 % -1.1 C
667 27-02-2019 07:30:00 -0.6 C 95 % -1.3 C
668 27-02-2019 07:35:00 -0.6 C 95 % -1.3 C
669 27-02-2019 07:40:00 -0.6 C 95 % -1.3 C
670 27-02-2019 07:45:00 -0.4 C 95 % -1.1 C
671 27-02-2019 07:50:00 -0.4 C 95 % -1.1 C
672 27-02-2019 07:55:00 -0.4 C 95 % -1.1 C
673 27-02-2019 08:00:00 -0.4 C 95 % -1.1 C
674 27-02-2019 08:05:00 -0.4 C 95 % -1.1 C
675 27-02-2019 08:10:00 -0.4 C 95 % -1.1 C
Sensor: Nr:Datum:Temp:Feuchte:Taupunkt:
Aussen-T/F 676 27-02-2019 08:15:00 -0.4 C 95 % -1.1 C
677 27-02-2019 08:20:00 -0.4 C 95 % -1.1 C
678 27-02-2019 08:25:00 -0.4 C 95 % -1.1 C
679 27-02-2019 08:30:00 -0.3 C 96 % -0.86 C
680 27-02-2019 08:35:00 -0.2 C 96 % -0.76 C
681 27-02-2019 08:40:00 -0.2 C 96 % -0.76 C
682 27-02-2019 08:45:00 -0.1 C 96 % -0.66 C
683 27-02-2019 08:50:00 0 C 96 % -0.56 C
684 27-02-2019 08:55:00 0.1 C 96 % -0.46 C
685 27-02-2019 09:00:00 0.1 C 96 % -0.46 C
686 27-02-2019 09:05:00 0.2 C 96 % -0.36 C
687 27-02-2019 09:10:00 0.2 C 96 % -0.36 C
688 27-02-2019 09:15:00 0.2 C 96 % -0.36 C
689 27-02-2019 09:20:00 0.2 C 96 % -0.36 C
690 27-02-2019 09:25:00 0.3 C 96 % -0.26 C
691 27-02-2019 09:30:00 0.3 C 96 % -0.26 C
692 27-02-2019 09:35:00 0.4 C 96 % -0.16 C
693 27-02-2019 09:40:00 0.6 C 96 % 0.04 C
694 27-02-2019 09:45:00 0.7 C 96 % 0.14 C
695 27-02-2019 09:50:00 0.8 C 96 % 0.24 C
696 27-02-2019 09:55:00 1 C 96 % 0.44 C
697 27-02-2019 10:00:00 1.2 C 96 % 0.63 C
698 27-02-2019 10:05:00 1.3 C 96 % 0.73 C
699 27-02-2019 10:10:00 1.4 C 96 % 0.83 C
700 27-02-2019 10:15:00 1.6 C 97 % 1.18 C
Sensor: Nr:Datum:Temp:Feuchte:Taupunkt:
Aussen-T/F 701 27-02-2019 10:20:00 1.7 C 96 % 1.13 C
702 27-02-2019 10:25:00 2 C 97 % 1.58 C
703 27-02-2019 10:30:00 2.4 C 97 % 1.97 C
704 27-02-2019 10:35:00 2.8 C 97 % 2.37 C
705 27-02-2019 10:40:00 3.2 C 97 % 2.77 C
706 27-02-2019 10:45:00 3.4 C 97 % 2.97 C
707 27-02-2019 10:50:00 3.7 C 97 % 3.27 C
708 27-02-2019 10:55:00 4.1 C 97 % 3.67 C
709 27-02-2019 11:00:00 4.3 C 97 % 3.87 C
710 27-02-2019 11:05:00 4.5 C 97 % 4.07 C
711 27-02-2019 11:10:00 4.7 C 97 % 4.27 C
712 27-02-2019 11:15:00 5 C 97 % 4.56 C
713 27-02-2019 11:20:00 5.2 C 97 % 4.76 C
714 27-02-2019 11:25:00 5.4 C 97 % 4.96 C
715 27-02-2019 11:30:00 5.7 C 96 % 5.11 C
716 27-02-2019 11:35:00 5.8 C 95 % 5.06 C
717 27-02-2019 11:40:00 6 C 94 % 5.11 C
718 27-02-2019 11:45:00 6.2 C 93 % 5.15 C
719 27-02-2019 11:50:00 6.5 C 91 % 5.14 C
720 27-02-2019 11:55:00 6.7 C 90 % 5.18 C
721 27-02-2019 12:00:00 7 C 89 % 5.31 C
722 27-02-2019 12:05:00 7.4 C 90 % 5.87 C
723 27-02-2019 12:10:00 7.8 C 88 % 5.94 C
724 27-02-2019 12:15:00 8.4 C 89 % 6.7 C
725 27-02-2019 12:20:00 9.1 C 87 % 7.05 C
Sensor: Nr:Datum:Temp:Feuchte:Taupunkt:
Aussen-T/F 726 27-02-2019 12:25:00 9.6 C 85 % 7.21 C
727 27-02-2019 12:30:00 10.2 C 83 % 7.45 C
728 27-02-2019 12:35:00 10.8 C 81 % 7.67 C
729 27-02-2019 12:40:00 11.3 C 80 % 7.98 C
730 27-02-2019 12:45:00 11.7 C 74 % 7.23 C
731 27-02-2019 12:50:00 11.8 C 74 % 7.32 C
732 27-02-2019 12:55:00 12 C 73 % 7.32 C
733 27-02-2019 13:00:00 12.4 C 73 % 7.7 C
734 27-02-2019 13:05:00 12.7 C 73 % 7.99 C
735 27-02-2019 13:10:00 13.1 C 72 % 8.17 C
736 27-02-2019 13:15:00 13.5 C 72 % 8.56 C
737 27-02-2019 13:20:00 14.1 C 68 % 8.29 C
738 27-02-2019 13:25:00 14.6 C 67 % 8.55 C
739 27-02-2019 13:30:00 15.1 C 65 % 8.58 C
740 27-02-2019 13:35:00 15.4 C 63 % 8.4 C
741 27-02-2019 13:40:00 15.8 C 62 % 8.54 C
742 27-02-2019 13:45:00 16.2 C 59 % 8.19 C
743 27-02-2019 13:50:00 16.4 C 58 % 8.12 C
744 27-02-2019 13:55:00 17 C 56 % 8.17 C
745 27-02-2019 14:00:00 17.6 C 54 % 8.19 C
746 27-02-2019 14:05:00 17.8 C 53 % 8.1 C
747 27-02-2019 14:10:00 17.9 C 53 % 8.19 C
748 27-02-2019 14:15:00 17.9 C 52 % 7.91 C
749 27-02-2019 14:20:00 17.8 C 52 % 7.82 C
750 27-02-2019 14:25:00 17.5 C 52 % 7.54 C
Sensor: Nr:Datum:Temp:Feuchte:Taupunkt:
Aussen-T/F 751 27-02-2019 14:30:00 17.1 C 51 % 6.89 C
752 27-02-2019 14:35:00 16.8 C 51 % 6.62 C
753 27-02-2019 14:40:00 16.6 C 52 % 6.71 C
754 27-02-2019 14:45:00 16.5 C 50 % 6.05 C
755 27-02-2019 14:50:00 16.4 C 53 % 6.81 C
756 27-02-2019 14:55:00 16.4 C 53 % 6.81 C
757 27-02-2019 15:00:00 16.3 C 53 % 6.71 C
758 27-02-2019 15:05:00 16.3 C 51 % 6.16 C
759 27-02-2019 15:10:00 16.2 C 51 % 6.06 C
760 27-02-2019 15:15:00 16.2 C 52 % 6.34 C
761 27-02-2019 15:20:00 16.1 C 51 % 5.97 C
762 27-02-2019 15:25:00 16 C 51 % 5.88 C
763 27-02-2019 15:30:00 15.9 C 51 % 5.79 C
764 27-02-2019 15:35:00 15.9 C 52 % 6.07 C
765 27-02-2019 15:40:00 16 C 52 % 6.16 C
766 27-02-2019 15:45:00 16.1 C 51 % 5.97 C
767 27-02-2019 15:50:00 16.1 C 51 % 5.97 C
768 27-02-2019 15:55:00 16.2 C 51 % 6.06 C
769 27-02-2019 16:00:00 16.3 C 51 % 6.16 C
770 27-02-2019 16:05:00 16.3 C 50 % 5.87 C
771 27-02-2019 16:10:00 16.4 C 50 % 5.96 C
772 27-02-2019 16:15:00 16.5 C 50 % 6.05 C
773 27-02-2019 16:20:00 16.5 C 51 % 6.34 C
774 27-02-2019 16:25:00 16.4 C 49 % 5.67 C
775 27-02-2019 16:30:00 16.3 C 50 % 5.87 C
Sensor: Nr:Datum:Temp:Feuchte:Taupunkt:
Aussen-T/F 776 27-02-2019 16:35:00 16.2 C 50 % 5.78 C
777 27-02-2019 16:40:00 16.2 C 51 % 6.06 C
778 27-02-2019 16:45:00 16.1 C 51 % 5.97 C
779 27-02-2019 16:50:00 16 C 52 % 6.16 C
780 27-02-2019 16:55:00 15.8 C 52 % 5.97 C
781 27-02-2019 17:00:00 15.8 C 52 % 5.97 C
782 27-02-2019 17:05:00 15.8 C 52 % 5.97 C
783 27-02-2019 17:10:00 15.8 C 53 % 6.25 C
784 27-02-2019 17:15:00 15.7 C 52 % 5.88 C
785 27-02-2019 17:20:00 15.7 C 52 % 5.88 C
786 27-02-2019 17:25:00 15.7 C 51 % 5.6 C
787 27-02-2019 17:30:00 15.8 C 51 % 5.69 C
788 27-02-2019 17:35:00 15.8 C 50 % 5.41 C
789 27-02-2019 17:40:00 15.8 C 50 % 5.41 C
790 27-02-2019 17:45:00 15.8 C 50 % 5.41 C
791 27-02-2019 17:50:00 15.6 C 50 % 5.23 C
792 27-02-2019 17:55:00 15.3 C 49 % 4.66 C
793 27-02-2019 18:00:00 15 C 51 % 4.96 C
794 27-02-2019 18:05:00 14.6 C 52 % 4.87 C
795 27-02-2019 18:10:00 14.3 C 54 % 5.13 C
796 27-02-2019 18:15:00 13.9 C 52 % 4.22 C
797 27-02-2019 18:20:00 13.8 C 55 % 4.93 C
798 27-02-2019 18:25:00 13.6 C 54 % 4.48 C
799 27-02-2019 18:30:00 13.5 C 55 % 4.65 C
800 27-02-2019 18:35:00 13.3 C 56 % 4.72 C
Sensor: Nr:Datum:Temp:Feuchte:Taupunkt:
Aussen-T/F 801 27-02-2019 18:40:00 13 C 56 % 4.44 C
802 27-02-2019 18:45:00 12.8 C 57 % 4.5 C
803 27-02-2019 18:50:00 12.6 C 58 % 4.57 C
804 27-02-2019 18:55:00 12.3 C 58 % 4.28 C
805 27-02-2019 19:00:00 12.2 C 59 % 4.43 C
806 27-02-2019 19:05:00 11.9 C 59 % 4.15 C
807 27-02-2019 19:10:00 11.7 C 60 % 4.2 C
808 27-02-2019 19:15:00 11.5 C 61 % 4.25 C
809 27-02-2019 19:20:00 11.3 C 62 % 4.29 C
810 27-02-2019 19:25:00 11.1 C 64 % 4.56 C
811 27-02-2019 19:30:00 10.8 C 65 % 4.49 C
812 27-02-2019 19:35:00 10.5 C 66 % 4.43 C
813 27-02-2019 19:40:00 10.2 C 67 % 4.36 C
814 27-02-2019 19:45:00 10 C 67 % 4.16 C
815 27-02-2019 19:50:00 9.8 C 68 % 4.18 C
816 27-02-2019 19:55:00 9.7 C 69 % 4.3 C
817 27-02-2019 20:00:00 9.5 C 70 % 4.31 C
818 27-02-2019 20:05:00 9.4 C 69 % 4.01 C
819 27-02-2019 20:10:00 9.3 C 70 % 4.12 C
820 27-02-2019 20:15:00 9.1 C 69 % 3.72 C
821 27-02-2019 20:20:00 9.1 C 70 % 3.93 C
822 27-02-2019 20:25:00 8.8 C 70 % 3.64 C
823 27-02-2019 20:30:00 8.7 C 70 % 3.54 C
824 27-02-2019 20:35:00 8.6 C 70 % 3.45 C
825 27-02-2019 20:40:00 8.3 C 71 % 3.36 C
Sensor: Nr:Datum:Temp:Feuchte:Taupunkt:
Aussen-T/F 826 27-02-2019 20:45:00 8.1 C 72 % 3.37 C
827 27-02-2019 20:50:00 7.8 C 72 % 3.08 C
828 27-02-2019 20:55:00 7.7 C 72 % 2.98 C
829 27-02-2019 21:00:00 7.4 C 73 % 2.89 C
830 27-02-2019 21:05:00 7.3 C 74 % 2.98 C
831 27-02-2019 21:10:00 7.3 C 73 % 2.79 C
832 27-02-2019 21:15:00 7.2 C 74 % 2.89 C
833 27-02-2019 21:20:00 7.1 C 76 % 3.16 C
834 27-02-2019 21:25:00 6.9 C 76 % 2.97 C
835 27-02-2019 21:30:00 6.8 C 76 % 2.87 C
836 27-02-2019 21:35:00 6.5 C 77 % 2.77 C
837 27-02-2019 21:40:00 6.4 C 78 % 2.85 C
838 27-02-2019 21:45:00 6.4 C 77 % 2.67 C
839 27-02-2019 21:50:00 6.3 C 77 % 2.57 C
840 27-02-2019 21:55:00 6 C 78 % 2.46 C
841 27-02-2019 22:00:00 5.8 C 80 % 2.62 C
842 27-02-2019 22:05:00 5.8 C 81 % 2.8 C
843 27-02-2019 22:10:00 5.9 C 80 % 2.72 C
844 27-02-2019 22:15:00 5.8 C 79 % 2.45 C
845 27-02-2019 22:20:00 5.7 C 80 % 2.53 C
846 27-02-2019 22:25:00 5.6 C 80 % 2.43 C
847 27-02-2019 22:30:00 5.5 C 81 % 2.51 C
848 27-02-2019 22:35:00 5.4 C 81 % 2.41 C
849 27-02-2019 22:40:00 5.3 C 81 % 2.31 C
850 27-02-2019 22:45:00 5.3 C 81 % 2.31 C
Sensor: Nr:Datum:Temp:Feuchte:Taupunkt:
Aussen-T/F 851 27-02-2019 22:50:00 5.3 C 81 % 2.31 C
852 27-02-2019 22:55:00 5.2 C 81 % 2.21 C
853 27-02-2019 23:00:00 5.2 C 81 % 2.21 C
854 27-02-2019 23:05:00 5.2 C 81 % 2.21 C
855 27-02-2019 23:10:00 5.1 C 82 % 2.29 C
856 27-02-2019 23:15:00 5.1 C 81 % 2.12 C
857 27-02-2019 23:20:00 5.1 C 82 % 2.29 C
858 27-02-2019 23:25:00 4.9 C 82 % 2.09 C
859 27-02-2019 23:30:00 4.7 C 82 % 1.9 C
860 27-02-2019 23:35:00 4.6 C 83 % 1.97 C
861 27-02-2019 23:40:00 4.5 C 84 % 2.04 C
862 27-02-2019 23:45:00 4.5 C 85 % 2.2 C
863 27-02-2019 23:50:00 4.5 C 84 % 2.04 C
864 27-02-2019 23:55:00 4.6 C 84 % 2.14 C
865 28-02-2019 00:00:00 4.5 C 84 % 2.04 C
866 28-02-2019 00:05:00 4.6 C 85 % 2.3 C
867 28-02-2019 00:10:00 4.7 C 85 % 2.4 C
868 28-02-2019 00:15:00 4.8 C 85 % 2.5 C
869 28-02-2019 00:20:00 5.1 C 85 % 2.79 C
870 28-02-2019 00:25:00 5.4 C 84 % 2.92 C
871 28-02-2019 00:30:00 5.6 C 83 % 2.95 C
872 28-02-2019 00:35:00 5.7 C 82 % 2.87 C
873 28-02-2019 00:40:00 5.8 C 82 % 2.97 C
874 28-02-2019 00:45:00 5.9 C 81 % 2.9 C
875 28-02-2019 00:50:00 6 C 80 % 2.82 C
Sensor: Nr:Datum:Temp:Feuchte:Taupunkt:
Aussen-T/F 876 28-02-2019 00:55:00 6.1 C 80 % 2.92 C
877 28-02-2019 01:00:00 6.1 C 80 % 2.92 C
878 28-02-2019 01:05:00 5.9 C 79 % 2.54 C
879 28-02-2019 01:10:00 5.8 C 79 % 2.45 C
880 28-02-2019 01:15:00 5.4 C 79 % 2.06 C
881 28-02-2019 01:20:00 5.2 C 81 % 2.21 C
882 28-02-2019 01:25:00 5 C 81 % 2.02 C
883 28-02-2019 01:30:00 4.7 C 82 % 1.9 C
884 28-02-2019 01:35:00 4.5 C 83 % 1.87 C
885 28-02-2019 01:40:00 4.3 C 83 % 1.67 C
886 28-02-2019 01:45:00 4.1 C 84 % 1.65 C
887 28-02-2019 01:50:00 4.1 C 85 % 1.81 C
888 28-02-2019 01:55:00 4.1 C 86 % 1.97 C
889 28-02-2019 02:00:00 4.1 C 86 % 1.97 C
890 28-02-2019 02:05:00 4.1 C 86 % 1.97 C
891 28-02-2019 02:10:00 4.2 C 86 % 2.07 C
892 28-02-2019 02:15:00 4.1 C 85 % 1.81 C
893 28-02-2019 02:20:00 3.8 C 85 % 1.52 C
894 28-02-2019 02:25:00 3.6 C 86 % 1.48 C
895 28-02-2019 02:30:00 3.4 C 86 % 1.29 C
896 28-02-2019 02:35:00 3.3 C 87 % 1.35 C
897 28-02-2019 02:40:00 3.3 C 88 % 1.51 C
898 28-02-2019 02:45:00 3.4 C 89 % 1.76 C
899 28-02-2019 02:50:00 3.4 C 89 % 1.76 C
900 28-02-2019 02:55:00 3.4 C 88 % 1.61 C
Sensor: Nr:Datum:Temp:Feuchte:Taupunkt:
Aussen-T/F 901 28-02-2019 03:00:00 3.3 C 88 % 1.51 C
902 28-02-2019 03:05:00 3.1 C 87 % 1.15 C
903 28-02-2019 03:10:00 2.9 C 88 % 1.11 C
904 28-02-2019 03:15:00 2.9 C 89 % 1.27 C
905 28-02-2019 03:20:00 2.8 C 89 % 1.17 C
906 28-02-2019 03:25:00 2.8 C 90 % 1.33 C
907 28-02-2019 03:30:00 2.9 C 90 % 1.43 C
908 28-02-2019 03:35:00 3 C 90 % 1.52 C
909 28-02-2019 03:40:00 3.1 C 90 % 1.62 C
910 28-02-2019 03:45:00 3 C 89 % 1.37 C
911 28-02-2019 03:50:00 2.8 C 89 % 1.17 C
912 28-02-2019 03:55:00 2.7 C 89 % 1.07 C
913 28-02-2019 04:00:00 2.6 C 89 % 0.97 C
914 28-02-2019 04:05:00 2.4 C 89 % 0.78 C
915 28-02-2019 04:10:00 2.2 C 88 % 0.42 C
916 28-02-2019 04:15:00 2 C 89 % 0.38 C
917 28-02-2019 04:20:00 1.9 C 90 % 0.44 C
918 28-02-2019 04:25:00 2.1 C 91 % 0.79 C
919 28-02-2019 04:30:00 2.3 C 92 % 1.14 C
920 28-02-2019 04:35:00 2.3 C 91 % 0.99 C
921 28-02-2019 04:40:00 2.3 C 91 % 0.99 C
922 28-02-2019 04:45:00 2.3 C 91 % 0.99 C
923 28-02-2019 04:50:00 2.4 C 92 % 1.24 C
924 28-02-2019 04:55:00 2.5 C 91 % 1.18 C
925 28-02-2019 05:00:00 2.6 C 91 % 1.28 C
Sensor: Nr:Datum:Temp:Feuchte:Taupunkt:
Aussen-T/F 926 28-02-2019 05:05:00 2.5 C 91 % 1.18 C
927 28-02-2019 05:10:00 2.5 C 91 % 1.18 C
928 28-02-2019 05:15:00 2.4 C 90 % 0.93 C
929 28-02-2019 05:20:00 2.3 C 91 % 0.99 C
930 28-02-2019 05:25:00 2.3 C 91 % 0.99 C
931 28-02-2019 05:30:00 2.3 C 91 % 0.99 C
932 28-02-2019 05:35:00 2.3 C 91 % 0.99 C
933 28-02-2019 05:40:00 2.3 C 91 % 0.99 C
934 28-02-2019 05:45:00 2.3 C 91 % 0.99 C
935 28-02-2019 05:50:00 2.2 C 91 % 0.89 C
936 28-02-2019 05:55:00 2.3 C 92 % 1.14 C
937 28-02-2019 06:00:00 2.5 C 92 % 1.34 C
938 28-02-2019 06:05:00 2.7 C 92 % 1.53 C
939 28-02-2019 06:10:00 2.7 C 92 % 1.53 C
940 28-02-2019 06:15:00 2.7 C 91 % 1.38 C
941 28-02-2019 06:20:00 2.6 C 91 % 1.28 C
942 28-02-2019 06:25:00 2.7 C 91 % 1.38 C
943 28-02-2019 06:30:00 2.9 C 92 % 1.73 C
944 28-02-2019 06:35:00 3.4 C 92 % 2.23 C
945 28-02-2019 06:40:00 3.8 C 90 % 2.31 C
946 28-02-2019 06:45:00 4.2 C 88 % 2.39 C
947 28-02-2019 06:50:00 4.2 C 87 % 2.23 C
948 28-02-2019 06:55:00 4.2 C 87 % 2.23 C
949 28-02-2019 07:00:00 4.2 C 87 % 2.23 C
950 28-02-2019 07:05:00 4.2 C 86 % 2.07 C
Sensor: Nr:Datum:Temp:Feuchte:Taupunkt:
Aussen-T/F 951 28-02-2019 07:10:00 4.1 C 86 % 1.97 C
952 28-02-2019 07:15:00 3.9 C 86 % 1.78 C
953 28-02-2019 07:20:00 3.9 C 87 % 1.94 C
954 28-02-2019 07:25:00 3.8 C 87 % 1.84 C
955 28-02-2019 07:30:00 3.8 C 87 % 1.84 C
956 28-02-2019 07:35:00 3.7 C 87 % 1.74 C
957 28-02-2019 07:40:00 3.6 C 88 % 1.8 C
958 28-02-2019 07:45:00 3.4 C 87 % 1.45 C
959 28-02-2019 07:50:00 3.3 C 87 % 1.35 C
960 28-02-2019 07:55:00 3.1 C 87 % 1.15 C
961 28-02-2019 08:00:00 2.9 C 88 % 1.11 C
962 28-02-2019 08:05:00 2.7 C 88 % 0.92 C
963 28-02-2019 08:10:00 2.7 C 88 % 0.92 C
964 28-02-2019 08:15:00 2.6 C 89 % 0.97 C
965 28-02-2019 08:20:00 2.7 C 90 % 1.23 C
966 28-02-2019 08:25:00 2.8 C 90 % 1.33 C
967 28-02-2019 08:30:00 2.9 C 91 % 1.58 C
968 28-02-2019 08:35:00 3.1 C 91 % 1.78 C
969 28-02-2019 08:40:00 3.3 C 91 % 1.98 C
970 28-02-2019 08:45:00 3.6 C 92 % 2.42 C
971 28-02-2019 08:50:00 3.7 C 91 % 2.37 C
972 28-02-2019 08:55:00 3.9 C 91 % 2.57 C
973 28-02-2019 09:00:00 4.1 C 91 % 2.77 C
974 28-02-2019 09:05:00 4.2 C 90 % 2.71 C
975 28-02-2019 09:10:00 4.3 C 90 % 2.81 C
Sensor: Nr:Datum:Temp:Feuchte:Taupunkt:
Aussen-T/F 976 28-02-2019 09:15:00 4.4 C 89 % 2.75 C
977 28-02-2019 09:20:00 4.5 C 89 % 2.85 C
978 28-02-2019 09:25:00 4.6 C 89 % 2.95 C
979 28-02-2019 09:30:00 4.7 C 89 % 3.05 C
980 28-02-2019 09:35:00 4.8 C 88 % 2.99 C
981 28-02-2019 09:40:00 4.9 C 88 % 3.08 C
982 28-02-2019 09:45:00 5.1 C 88 % 3.28 C
983 28-02-2019 09:50:00 5.2 C 88 % 3.38 C
984 28-02-2019 09:55:00 5.4 C 89 % 3.74 C
985 28-02-2019 10:00:00 5.6 C 89 % 3.93 C
986 28-02-2019 10:05:00 5.8 C 89 % 4.13 C
987 28-02-2019 10:10:00 6.3 C 88 % 4.46 C
988 28-02-2019 10:15:00 6.7 C 88 % 4.86 C
989 28-02-2019 10:20:00 7.1 C 86 % 4.92 C
990 28-02-2019 10:25:00 7.5 C 85 % 5.15 C
991 28-02-2019 10:30:00 7.9 C 84 % 5.37 C
992 28-02-2019 10:35:00 8.4 C 83 % 5.69 C
993 28-02-2019 10:40:00 8.7 C 82 % 5.8 C
994 28-02-2019 10:45:00 9 C 81 % 5.92 C
995 28-02-2019 10:50:00 9.3 C 80 % 6.03 C
996 28-02-2019 10:55:00 9.6 C 79 % 6.14 C
997 28-02-2019 11:00:00 9.9 C 78 % 6.25 C
998 28-02-2019 11:05:00 10.2 C 77 % 6.35 C
999 28-02-2019 11:10:00 10.6 C 76 % 6.55 C
1000 28-02-2019 11:15:00 10.9 C 75 % 6.65 C
Sensor: Nr:Datum:Temp:Feuchte:Taupunkt:
Aussen-T/F 1001 28-02-2019 11:20:00 11.3 C 73 % 6.64 C
1002 28-02-2019 11:25:00 11.7 C 72 % 6.83 C
1003 28-02-2019 11:30:00 11.9 C 71 % 6.82 C
1004 28-02-2019 11:35:00 12.2 C 70 % 6.9 C
1005 28-02-2019 11:40:00 12.4 C 69 % 6.88 C
1006 28-02-2019 11:45:00 12.5 C 69 % 6.97 C
1007 28-02-2019 11:50:00 12.6 C 69 % 7.07 C
1008 28-02-2019 11:55:00 12.6 C 69 % 7.07 C
1009 28-02-2019 12:00:00 12.7 C 68 % 6.95 C
1010 28-02-2019 12:05:00 12.8 C 69 % 7.26 C
1011 28-02-2019 12:10:00 12.8 C 68 % 7.05 C
1012 28-02-2019 12:15:00 12.9 C 68 % 7.14 C
1013 28-02-2019 12:20:00 13 C 68 % 7.24 C
1014 28-02-2019 12:25:00 13.1 C 67 % 7.12 C
1015 28-02-2019 12:30:00 13.2 C 67 % 7.21 C
1016 28-02-2019 12:35:00 13.4 C 68 % 7.62 C
1017 28-02-2019 12:40:00 13.7 C 66 % 7.47 C
1018 28-02-2019 12:45:00 13.8 C 66 % 7.57 C
1019 28-02-2019 12:50:00 13.9 C 66 % 7.66 C
1020 28-02-2019 12:55:00 13.9 C 66 % 7.66 C
1021 28-02-2019 13:00:00 14.1 C 66 % 7.85 C
1022 28-02-2019 13:05:00 14.2 C 65 % 7.72 C
1023 28-02-2019 13:10:00 14.3 C 66 % 8.04 C
1024 28-02-2019 13:15:00 14.5 C 64 % 7.78 C
1025 28-02-2019 13:20:00 14.7 C 65 % 8.2 C
Sensor: Nr:Datum:Temp:Feuchte:Taupunkt:
Aussen-T/F 1026 28-02-2019 13:25:00 14.9 C 63 % 7.93 C
1027 28-02-2019 13:30:00 15.1 C 64 % 8.35 C
1028 28-02-2019 13:35:00 15.2 C 63 % 8.21 C
1029 28-02-2019 13:40:00 15.4 C 62 % 8.16 C
1030 28-02-2019 13:45:00 15.6 C 62 % 8.35 C
1031 28-02-2019 13:50:00 15.7 C 61 % 8.21 C
1032 28-02-2019 13:55:00 15.8 C 61 % 8.3 C
1033 28-02-2019 14:00:00 16 C 62 % 8.73 C
1034 28-02-2019 14:05:00 16.2 C 61 % 8.68 C
1035 28-02-2019 14:10:00 16.3 C 61 % 8.77 C
1036 28-02-2019 14:15:00 16.4 C 61 % 8.87 C
1037 28-02-2019 14:20:00 16.4 C 61 % 8.87 C
1038 28-02-2019 14:25:00 16.5 C 61 % 8.96 C
1039 28-02-2019 14:30:00 16.6 C 61 % 9.06 C
1040 28-02-2019 14:35:00 16.7 C 61 % 9.15 C
1041 28-02-2019 14:40:00 16.8 C 61 % 9.24 C
1042 28-02-2019 14:45:00 17.1 C 60 % 9.28 C
1043 28-02-2019 14:50:00 17.2 C 60 % 9.37 C
1044 28-02-2019 14:55:00 17.2 C 60 % 9.37 C
1045 28-02-2019 15:00:00 17.2 C 60 % 9.37 C
1046 28-02-2019 15:05:00 17.1 C 60 % 9.28 C
1047 28-02-2019 15:10:00 17 C 62 % 9.67 C
1048 28-02-2019 15:15:00 17 C 61 % 9.43 C
1049 28-02-2019 15:20:00 16.9 C 61 % 9.34 C
1050 28-02-2019 15:25:00 16.8 C 62 % 9.49 C
Sensor: Nr:Datum:Temp:Feuchte:Taupunkt:
Aussen-T/F 1051 28-02-2019 15:30:00 16.8 C 62 % 9.49 C
1052 28-02-2019 15:35:00 16.7 C 62 % 9.39 C
1053 28-02-2019 15:40:00 16.7 C 60 % 8.9 C
1054 28-02-2019 15:45:00 16.5 C 60 % 8.72 C
1055 28-02-2019 15:50:00 16.3 C 61 % 8.77 C
1056 28-02-2019 15:55:00 16.2 C 61 % 8.68 C
1057 28-02-2019 16:00:00 16.2 C 62 % 8.92 C
1058 28-02-2019 16:05:00 16.2 C 64 % 9.39 C
1059 28-02-2019 16:10:00 16.1 C 65 % 9.53 C
1060 28-02-2019 16:15:00 16 C 66 % 9.66 C
1061 28-02-2019 16:20:00 15.9 C 66 % 9.56 C
1062 28-02-2019 16:25:00 15.7 C 66 % 9.37 C
1063 28-02-2019 16:30:00 15.5 C 67 % 9.41 C
1064 28-02-2019 16:35:00 15.3 C 63 % 8.31 C
1065 28-02-2019 16:40:00 14.7 C 60 % 7.03 C
1066 28-02-2019 16:45:00 14 C 61 % 6.61 C
1067 28-02-2019 16:50:00 13.6 C 63 % 6.7 C
1068 28-02-2019 16:55:00 13.3 C 64 % 6.64 C
1069 28-02-2019 17:00:00 13.1 C 64 % 6.45 C
1070 28-02-2019 17:05:00 13 C 65 % 6.58 C
1071 28-02-2019 17:10:00 12.9 C 66 % 6.71 C
1072 28-02-2019 17:15:00 12.9 C 67 % 6.93 C
1073 28-02-2019 17:20:00 12.8 C 67 % 6.83 C
1074 28-02-2019 17:25:00 12.8 C 68 % 7.05 C
1075 28-02-2019 17:30:00 12.7 C 69 % 7.17 C
Sensor: Nr:Datum:Temp:Feuchte:Taupunkt:
Aussen-T/F 1076 28-02-2019 17:35:00 12.6 C 69 % 7.07 C
1077 28-02-2019 17:40:00 12.6 C 69 % 7.07 C
1078 28-02-2019 17:45:00 12.5 C 69 % 6.97 C
1079 28-02-2019 17:50:00 12.5 C 70 % 7.18 C
1080 28-02-2019 17:55:00 12.4 C 70 % 7.09 C
1081 28-02-2019 18:00:00 12.4 C 70 % 7.09 C
1082 28-02-2019 18:05:00 12.4 C 70 % 7.09 C
1083 28-02-2019 18:10:00 12.3 C 71 % 7.2 C
1084 28-02-2019 18:15:00 12.3 C 71 % 7.2 C
1085 28-02-2019 18:20:00 12.2 C 71 % 7.1 C
1086 28-02-2019 18:25:00 12.2 C 71 % 7.1 C
1087 28-02-2019 18:30:00 12.1 C 71 % 7.01 C
1088 28-02-2019 18:35:00 12.1 C 72 % 7.21 C
1089 28-02-2019 18:40:00 12 C 72 % 7.12 C
1090 28-02-2019 18:45:00 11.9 C 73 % 7.22 C
1091 28-02-2019 18:50:00 11.9 C 73 % 7.22 C
1092 28-02-2019 18:55:00 11.8 C 73 % 7.12 C
1093 28-02-2019 19:00:00 11.8 C 74 % 7.32 C
1094 28-02-2019 19:05:00 11.7 C 74 % 7.23 C
1095 28-02-2019 19:10:00 11.6 C 74 % 7.13 C
1096 28-02-2019 19:15:00 11.4 C 75 % 7.13 C
1097 28-02-2019 19:20:00 11.3 C 75 % 7.04 C
1098 28-02-2019 19:25:00 11.2 C 75 % 6.94 C
1099 28-02-2019 19:30:00 11.1 C 76 % 7.04 C
1100 28-02-2019 19:35:00 11.1 C 76 % 7.04 C
Sensor: Nr:Datum:Temp:Feuchte:Taupunkt:
Aussen-T/F 1101 28-02-2019 19:40:00 11 C 77 % 7.13 C
1102 28-02-2019 19:45:00 11 C 77 % 7.13 C
1103 28-02-2019 19:50:00 11 C 77 % 7.13 C
1104 28-02-2019 19:55:00 11 C 78 % 7.32 C
1105 28-02-2019 20:00:00 11 C 78 % 7.32 C
1106 28-02-2019 20:05:00 11.1 C 78 % 7.41 C
1107 28-02-2019 20:10:00 11.1 C 78 % 7.41 C
1108 28-02-2019 20:15:00 11.1 C 78 % 7.41 C
1109 28-02-2019 20:20:00 11.1 C 78 % 7.41 C
1110 28-02-2019 20:25:00 11.1 C 79 % 7.6 C
1111 28-02-2019 20:30:00 11.1 C 79 % 7.6 C
1112 28-02-2019 20:35:00 11.1 C 79 % 7.6 C
1113 28-02-2019 20:40:00 11.1 C 79 % 7.6 C
1114 28-02-2019 20:45:00 11.1 C 79 % 7.6 C
1115 28-02-2019 20:50:00 11.1 C 79 % 7.6 C
1116 28-02-2019 20:55:00 11.1 C 79 % 7.6 C
1117 28-02-2019 21:00:00 11.1 C 80 % 7.79 C
1118 28-02-2019 21:05:00 11.1 C 80 % 7.79 C
1119 28-02-2019 21:10:00 11.1 C 81 % 7.97 C
1120 28-02-2019 21:15:00 11 C 81 % 7.87 C
1121 28-02-2019 21:20:00 10.9 C 81 % 7.77 C
1122 28-02-2019 21:25:00 10.9 C 81 % 7.77 C
1123 28-02-2019 21:30:00 10.9 C 81 % 7.77 C
1124 28-02-2019 21:35:00 10.9 C 81 % 7.77 C
1125 28-02-2019 21:40:00 10.9 C 81 % 7.77 C
Sensor: Nr:Datum:Temp:Feuchte:Taupunkt:
Aussen-T/F 1126 28-02-2019 21:45:00 10.9 C 81 % 7.77 C
1127 28-02-2019 21:50:00 11 C 81 % 7.87 C
1128 28-02-2019 21:55:00 11 C 80 % 7.69 C
1129 28-02-2019 22:00:00 10.9 C 80 % 7.59 C
1130 28-02-2019 22:05:00 10.9 C 81 % 7.77 C
1131 28-02-2019 22:10:00 10.9 C 81 % 7.77 C
1132 28-02-2019 22:15:00 10.9 C 81 % 7.77 C
1133 28-02-2019 22:20:00 10.9 C 82 % 7.95 C
1134 28-02-2019 22:25:00 10.9 C 82 % 7.95 C
1135 28-02-2019 22:30:00 10.8 C 82 % 7.85 C
1136 28-02-2019 22:35:00 10.8 C 82 % 7.85 C
1137 28-02-2019 22:40:00 10.8 C 82 % 7.85 C
1138 28-02-2019 22:45:00 10.8 C 82 % 7.85 C
1139 28-02-2019 22:50:00 10.8 C 83 % 8.03 C
1140 28-02-2019 22:55:00 10.7 C 83 % 7.93 C
1141 28-02-2019 23:00:00 10.7 C 83 % 7.93 C
1142 28-02-2019 23:05:00 10.7 C 83 % 7.93 C
1143 28-02-2019 23:10:00 10.7 C 84 % 8.11 C
1144 28-02-2019 23:15:00 10.6 C 85 % 8.19 C
1145 28-02-2019 23:20:00 10.6 C 85 % 8.19 C
1146 28-02-2019 23:25:00 10.4 C 86 % 8.16 C
1147 28-02-2019 23:30:00 10.3 C 87 % 8.23 C
1148 28-02-2019 23:35:00 10.2 C 88 % 8.3 C
1149 28-02-2019 23:40:00 9.9 C 89 % 8.17 C
1150 28-02-2019 23:45:00 9.8 C 89 % 8.08 C
Sensor: Nr:Datum:Temp:Feuchte:Taupunkt:
Aussen-T/F 1151 28-02-2019 23:50:00 9.7 C 90 % 8.14 C
1152 28-02-2019 23:55:00 9.6 C 90 % 8.04 C
1153 01-03-2019 00:00:00 9.5 C 91 % 8.11 C
1154 01-03-2019 00:05:00 9.4 C 91 % 8.01 C
1155 01-03-2019 00:10:00 9.3 C 92 % 8.07 C
1156 01-03-2019 00:15:00 9.3 C 92 % 8.07 C
1157 01-03-2019 00:20:00 9.2 C 92 % 7.97 C
1158 01-03-2019 00:25:00 9.1 C 92 % 7.87 C
1159 01-03-2019 00:30:00 9.1 C 92 % 7.87 C
1160 01-03-2019 00:35:00 9 C 92 % 7.77 C
1161 01-03-2019 00:40:00 8.9 C 92 % 7.67 C
1162 01-03-2019 00:45:00 8.8 C 92 % 7.57 C
1163 01-03-2019 00:50:00 8.7 C 92 % 7.47 C
1164 01-03-2019 00:55:00 8.6 C 93 % 7.53 C
1165 01-03-2019 01:00:00 8.6 C 93 % 7.53 C
1166 01-03-2019 01:05:00 8.7 C 93 % 7.63 C
1167 01-03-2019 01:10:00 8.8 C 94 % 7.89 C
1168 01-03-2019 01:15:00 8.8 C 94 % 7.89 C
1169 01-03-2019 01:20:00 8.8 C 94 % 7.89 C
1170 01-03-2019 01:25:00 8.7 C 94 % 7.79 C
1171 01-03-2019 01:30:00 8.7 C 94 % 7.79 C
1172 01-03-2019 01:35:00 8.7 C 94 % 7.79 C
1173 01-03-2019 01:40:00 8.6 C 93 % 7.53 C
1174 01-03-2019 01:45:00 8.6 C 94 % 7.69 C
1175 01-03-2019 01:50:00 8.6 C 94 % 7.69 C
Sensor: Nr:Datum:Temp:Feuchte:Taupunkt:
Aussen-T/F 1176 01-03-2019 01:55:00 8.6 C 94 % 7.69 C
1177 01-03-2019 02:00:00 8.6 C 94 % 7.69 C
1178 01-03-2019 02:05:00 8.6 C 94 % 7.69 C
1179 01-03-2019 02:10:00 8.7 C 94 % 7.79 C
1180 01-03-2019 02:15:00 8.7 C 94 % 7.79 C
1181 01-03-2019 02:20:00 8.7 C 93 % 7.63 C
1182 01-03-2019 02:25:00 8.7 C 93 % 7.63 C
1183 01-03-2019 02:30:00 8.8 C 93 % 7.73 C
1184 01-03-2019 02:35:00 8.7 C 93 % 7.63 C
1185 01-03-2019 02:40:00 8.7 C 93 % 7.63 C
1186 01-03-2019 02:45:00 8.7 C 93 % 7.63 C
1187 01-03-2019 02:50:00 8.7 C 93 % 7.63 C
1188 01-03-2019 02:55:00 8.7 C 93 % 7.63 C
1189 01-03-2019 03:00:00 8.7 C 92 % 7.47 C
1190 01-03-2019 03:05:00 8.8 C 92 % 7.57 C
1191 01-03-2019 03:10:00 8.7 C 92 % 7.47 C
1192 01-03-2019 03:15:00 8.7 C 92 % 7.47 C
1193 01-03-2019 03:20:00 8.8 C 92 % 7.57 C
1194 01-03-2019 03:25:00 8.8 C 92 % 7.57 C
1195 01-03-2019 03:30:00 8.8 C 91 % 7.41 C
1196 01-03-2019 03:35:00 8.9 C 91 % 7.51 C
1197 01-03-2019 03:40:00 8.9 C 91 % 7.51 C
1198 01-03-2019 03:45:00 8.9 C 91 % 7.51 C
1199 01-03-2019 03:50:00 8.8 C 91 % 7.41 C
1200 01-03-2019 03:55:00 8.8 C 91 % 7.41 C
Sensor: Nr:Datum:Temp:Feuchte:Taupunkt:
Aussen-T/F 1201 01-03-2019 04:00:00 8.8 C 91 % 7.41 C
1202 01-03-2019 04:05:00 8.8 C 91 % 7.41 C
1203 01-03-2019 04:10:00 8.8 C 91 % 7.41 C
1204 01-03-2019 04:15:00 8.8 C 91 % 7.41 C
1205 01-03-2019 04:20:00 8.8 C 91 % 7.41 C
1206 01-03-2019 04:25:00 8.8 C 91 % 7.41 C
1207 01-03-2019 04:30:00 8.8 C 91 % 7.41 C
1208 01-03-2019 04:35:00 8.7 C 91 % 7.32 C
1209 01-03-2019 04:40:00 8.7 C 91 % 7.32 C
1210 01-03-2019 04:45:00 8.7 C 91 % 7.32 C
1211 01-03-2019 04:50:00 8.7 C 91 % 7.32 C
1212 01-03-2019 04:55:00 8.7 C 91 % 7.32 C
1213 01-03-2019 05:00:00 8.7 C 91 % 7.32 C
1214 01-03-2019 05:05:00 8.7 C 91 % 7.32 C
1215 01-03-2019 05:10:00 8.7 C 91 % 7.32 C
1216 01-03-2019 05:15:00 8.7 C 91 % 7.32 C
1217 01-03-2019 05:20:00 8.7 C 91 % 7.32 C
1218 01-03-2019 05:25:00 8.7 C 92 % 7.47 C
1219 01-03-2019 05:30:00 8.7 C 92 % 7.47 C
1220 01-03-2019 05:35:00 8.6 C 92 % 7.38 C
1221 01-03-2019 05:40:00 8.6 C 92 % 7.38 C
1222 01-03-2019 05:45:00 8.5 C 92 % 7.28 C
1223 01-03-2019 05:50:00 8.5 C 93 % 7.43 C
1224 01-03-2019 05:55:00 8.5 C 93 % 7.43 C
1225 01-03-2019 06:00:00 8.4 C 93 % 7.34 C
Sensor: Nr:Datum:Temp:Feuchte:Taupunkt:
Aussen-T/F 1226 01-03-2019 06:05:00 8.4 C 93 % 7.34 C
1227 01-03-2019 06:10:00 8.4 C 93 % 7.34 C
1228 01-03-2019 06:15:00 8.3 C 94 % 7.39 C
1229 01-03-2019 06:20:00 8.3 C 93 % 7.24 C
1230 01-03-2019 06:25:00 8.2 C 93 % 7.14 C
1231 01-03-2019 06:30:00 8.2 C 94 % 7.29 C
1232 01-03-2019 06:35:00 8.1 C 94 % 7.19 C
1233 01-03-2019 06:40:00 8.1 C 94 % 7.19 C
1234 01-03-2019 06:45:00 8.1 C 94 % 7.19 C
1235 01-03-2019 06:50:00 8 C 94 % 7.09 C
1236 01-03-2019 06:55:00 8 C 94 % 7.09 C
1237 01-03-2019 07:00:00 8 C 94 % 7.09 C
1238 01-03-2019 07:05:00 8.1 C 95 % 7.35 C
1239 01-03-2019 07:10:00 8.1 C 95 % 7.35 C
1240 01-03-2019 07:15:00 8.2 C 95 % 7.45 C
1241 01-03-2019 07:20:00 8.2 C 95 % 7.45 C
1242 01-03-2019 07:25:00 8.2 C 95 % 7.45 C
1243 01-03-2019 07:30:00 8.3 C 95 % 7.55 C
1244 01-03-2019 07:35:00 8.3 C 95 % 7.55 C
1245 01-03-2019 07:40:00 8.3 C 95 % 7.55 C
1246 01-03-2019 07:45:00 8.3 C 95 % 7.55 C
1247 01-03-2019 07:50:00 8.3 C 95 % 7.55 C
1248 01-03-2019 07:55:00 8.3 C 95 % 7.55 C
1249 01-03-2019 08:00:00 8.3 C 95 % 7.55 C
1250 01-03-2019 08:05:00 8.3 C 95 % 7.55 C
Sensor: Nr:Datum:Temp:Feuchte:Taupunkt:
Aussen-T/F 1251 01-03-2019 08:10:00 8.4 C 95 % 7.65 C
1252 01-03-2019 08:15:00 8.4 C 95 % 7.65 C
1253 01-03-2019 08:20:00 8.5 C 95 % 7.75 C
1254 01-03-2019 08:25:00 8.6 C 95 % 7.85 C
1255 01-03-2019 08:30:00 8.6 C 95 % 7.85 C
1256 01-03-2019 08:35:00 8.6 C 95 % 7.85 C
1257 01-03-2019 08:40:00 8.6 C 95 % 7.85 C
1258 01-03-2019 08:45:00 8.7 C 95 % 7.94 C
1259 01-03-2019 08:50:00 8.7 C 95 % 7.94 C
1260 01-03-2019 08:55:00 8.7 C 95 % 7.94 C
1261 01-03-2019 09:00:00 8.7 C 95 % 7.94 C
1262 01-03-2019 09:05:00 8.7 C 95 % 7.94 C
1263 01-03-2019 09:10:00 8.7 C 95 % 7.94 C
1264 01-03-2019 09:15:00 8.7 C 95 % 7.94 C
1265 01-03-2019 09:20:00 8.7 C 95 % 7.94 C
1266 01-03-2019 09:25:00 8.7 C 95 % 7.94 C
1267 01-03-2019 09:30:00 8.7 C 95 % 7.94 C
1268 01-03-2019 09:35:00 8.7 C 95 % 7.94 C
1269 01-03-2019 09:40:00 8.7 C 95 % 7.94 C
1270 01-03-2019 09:45:00 8.7 C 95 % 7.94 C
1271 01-03-2019 09:50:00 8.6 C 95 % 7.85 C
1272 01-03-2019 09:55:00 8.6 C 95 % 7.85 C
1273 01-03-2019 10:00:00 8.6 C 95 % 7.85 C
1274 01-03-2019 10:05:00 8.6 C 96 % 8 C
1275 01-03-2019 10:10:00 8.6 C 96 % 8 C
Sensor: Nr:Datum:Temp:Feuchte:Taupunkt:
Aussen-T/F 1276 01-03-2019 10:15:00 8.6 C 96 % 8 C
1277 01-03-2019 10:20:00 8.6 C 96 % 8 C
1278 01-03-2019 10:25:00 8.6 C 96 % 8 C
1279 01-03-2019 10:30:00 8.6 C 96 % 8 C
1280 01-03-2019 10:35:00 8.7 C 96 % 8.1 C
1281 01-03-2019 10:40:00 8.7 C 96 % 8.1 C
1282 01-03-2019 10:45:00 8.8 C 96 % 8.2 C
1283 01-03-2019 10:50:00 8.8 C 96 % 8.2 C
1284 01-03-2019 10:55:00 8.8 C 96 % 8.2 C
1285 01-03-2019 11:00:00 8.8 C 96 % 8.2 C
1286 01-03-2019 11:05:00 8.7 C 95 % 7.94 C
1287 01-03-2019 11:10:00 8.7 C 95 % 7.94 C
1288 01-03-2019 11:15:00 8.7 C 95 % 7.94 C
1289 01-03-2019 11:20:00 8.7 C 95 % 7.94 C
1290 01-03-2019 11:25:00 8.7 C 95 % 7.94 C
1291 01-03-2019 11:30:00 8.6 C 95 % 7.85 C
1292 01-03-2019 11:35:00 8.7 C 95 % 7.94 C
1293 01-03-2019 11:40:00 8.7 C 95 % 7.94 C
1294 01-03-2019 11:45:00 8.8 C 95 % 8.04 C
1295 01-03-2019 11:50:00 8.9 C 95 % 8.14 C
1296 01-03-2019 11:55:00 9.1 C 95 % 8.34 C
1297 01-03-2019 12:00:00 9.1 C 94 % 8.19 C
1298 01-03-2019 12:05:00 9.1 C 94 % 8.19 C
1299 01-03-2019 12:10:00 9.1 C 93 % 8.03 C
1300 01-03-2019 12:15:00 9.1 C 92 % 7.87 C
Sensor: Nr:Datum:Temp:Feuchte:Taupunkt:
Aussen-T/F 1301 01-03-2019 12:20:00 9.1 C 92 % 7.87 C
1302 01-03-2019 12:25:00 9.1 C 91 % 7.71 C
1303 01-03-2019 12:30:00 9 C 91 % 7.61 C
1304 01-03-2019 12:35:00 9.1 C 90 % 7.55 C
1305 01-03-2019 12:40:00 9 C 90 % 7.45 C
1306 01-03-2019 12:45:00 8.9 C 90 % 7.35 C
1307 01-03-2019 12:50:00 8.8 C 90 % 7.25 C
1308 01-03-2019 12:55:00 8.8 C 90 % 7.25 C
1309 01-03-2019 13:00:00 8.7 C 91 % 7.32 C
1310 01-03-2019 13:05:00 8.7 C 91 % 7.32 C
1311 01-03-2019 13:10:00 8.7 C 91 % 7.32 C
1312 01-03-2019 13:15:00 8.6 C 91 % 7.22 C
1313 01-03-2019 13:20:00 8.5 C 91 % 7.12 C
1314 01-03-2019 13:25:00 8.4 C 91 % 7.02 C
1315 01-03-2019 13:30:00 8.4 C 92 % 7.18 C
1316 01-03-2019 13:35:00 8.4 C 92 % 7.18 C
1317 01-03-2019 13:40:00 8.3 C 92 % 7.08 C
1318 01-03-2019 13:45:00 8.4 C 92 % 7.18 C
1319 01-03-2019 13:50:00 8.4 C 92 % 7.18 C
1320 01-03-2019 13:55:00 8.4 C 92 % 7.18 C
1321 01-03-2019 14:00:00 8.4 C 92 % 7.18 C
1322 01-03-2019 14:05:00 8.4 C 92 % 7.18 C
1323 01-03-2019 14:10:00 8.4 C 92 % 7.18 C
1324 01-03-2019 14:15:00 8.3 C 91 % 6.92 C
1325 01-03-2019 14:20:00 8.4 C 91 % 7.02 C
Sensor: Nr:Datum:Temp:Feuchte:Taupunkt:
Aussen-T/F 1326 01-03-2019 14:25:00 8.4 C 91 % 7.02 C
1327 01-03-2019 14:30:00 8.3 C 90 % 6.76 C
1328 01-03-2019 14:35:00 8.4 C 90 % 6.86 C
1329 01-03-2019 14:40:00 8.4 C 89 % 6.7 C
1330 01-03-2019 14:45:00 8.4 C 89 % 6.7 C
1331 01-03-2019 14:50:00 8.4 C 89 % 6.7 C
1332 01-03-2019 14:55:00 8.4 C 89 % 6.7 C
1333 01-03-2019 15:00:00 8.4 C 89 % 6.7 C
1334 01-03-2019 15:05:00 8.4 C 89 % 6.7 C
1335 01-03-2019 15:10:00 8.4 C 90 % 6.86 C
1336 01-03-2019 15:15:00 8.3 C 89 % 6.6 C
1337 01-03-2019 15:20:00 8.3 C 89 % 6.6 C
1338 01-03-2019 15:25:00 8.3 C 90 % 6.76 C
1339 01-03-2019 15:30:00 8.3 C 90 % 6.76 C
1340 01-03-2019 15:35:00 8.3 C 90 % 6.76 C
1341 01-03-2019 15:40:00 8.3 C 90 % 6.76 C
1342 01-03-2019 15:45:00 8.3 C 90 % 6.76 C
1343 01-03-2019 15:50:00 8.3 C 90 % 6.76 C
1344 01-03-2019 15:55:00 8.3 C 90 % 6.76 C
1345 01-03-2019 16:00:00 8.3 C 90 % 6.76 C
1346 01-03-2019 16:05:00 8.4 C 90 % 6.86 C
1347 01-03-2019 16:10:00 8.4 C 90 % 6.86 C
1348 01-03-2019 16:15:00 8.4 C 90 % 6.86 C
1349 01-03-2019 16:20:00 8.4 C 90 % 6.86 C
1350 01-03-2019 16:25:00 8.3 C 91 % 6.92 C
Sensor: Nr:Datum:Temp:Feuchte:Taupunkt:
Aussen-T/F 1351 01-03-2019 16:30:00 8.3 C 91 % 6.92 C
1352 01-03-2019 16:35:00 8.3 C 90 % 6.76 C
1353 01-03-2019 16:40:00 8.3 C 91 % 6.92 C
1354 01-03-2019 16:45:00 8.3 C 91 % 6.92 C
1355 01-03-2019 16:50:00 8.4 C 91 % 7.02 C
1356 01-03-2019 16:55:00 8.3 C 91 % 6.92 C
1357 01-03-2019 17:00:00 8.3 C 91 % 6.92 C
1358 01-03-2019 17:05:00 8.3 C 91 % 6.92 C
1359 01-03-2019 17:10:00 8.3 C 91 % 6.92 C
1360 01-03-2019 17:15:00 8.3 C 91 % 6.92 C
1361 01-03-2019 17:20:00 8.3 C 91 % 6.92 C
1362 01-03-2019 17:25:00 8.3 C 91 % 6.92 C
1363 01-03-2019 17:30:00 8.2 C 91 % 6.82 C
1364 01-03-2019 17:35:00 8.2 C 91 % 6.82 C
1365 01-03-2019 17:40:00 8.3 C 91 % 6.92 C
1366 01-03-2019 17:45:00 8.3 C 91 % 6.92 C
1367 01-03-2019 17:50:00 8.3 C 91 % 6.92 C
1368 01-03-2019 17:55:00 8.3 C 91 % 6.92 C
1369 01-03-2019 18:00:00 8.2 C 90 % 6.66 C
1370 01-03-2019 18:05:00 8 C 90 % 6.46 C
1371 01-03-2019 18:10:00 7.8 C 90 % 6.27 C
1372 01-03-2019 18:15:00 7.8 C 90 % 6.27 C
1373 01-03-2019 18:20:00 7.7 C 89 % 6 C
1374 01-03-2019 18:25:00 7.6 C 89 % 5.91 C
1375 01-03-2019 18:30:00 7.6 C 89 % 5.91 C
Sensor: Nr:Datum:Temp:Feuchte:Taupunkt:
Aussen-T/F 1376 01-03-2019 18:35:00 7.5 C 89 % 5.81 C
1377 01-03-2019 18:40:00 7.4 C 89 % 5.71 C
1378 01-03-2019 18:45:00 7.3 C 89 % 5.61 C
1379 01-03-2019 18:50:00 7.3 C 89 % 5.61 C
1380 01-03-2019 18:55:00 7.2 C 90 % 5.67 C
1381 01-03-2019 19:00:00 7.2 C 90 % 5.67 C
1382 01-03-2019 19:05:00 7.1 C 90 % 5.57 C
1383 01-03-2019 19:10:00 7.1 C 89 % 5.41 C
1384 01-03-2019 19:15:00 7 C 90 % 5.48 C
1385 01-03-2019 19:20:00 6.9 C 90 % 5.38 C
1386 01-03-2019 19:25:00 6.9 C 90 % 5.38 C
1387 01-03-2019 19:30:00 6.8 C 90 % 5.28 C
1388 01-03-2019 19:35:00 6.8 C 90 % 5.28 C
1389 01-03-2019 19:40:00 6.8 C 90 % 5.28 C
1390 01-03-2019 19:45:00 6.8 C 90 % 5.28 C
1391 01-03-2019 19:50:00 6.7 C 90 % 5.18 C
1392 01-03-2019 19:55:00 6.7 C 90 % 5.18 C
1393 01-03-2019 20:00:00 6.7 C 91 % 5.34 C
1394 01-03-2019 20:05:00 6.7 C 91 % 5.34 C
1395 01-03-2019 20:10:00 6.7 C 91 % 5.34 C
1396 01-03-2019 20:15:00 6.7 C 91 % 5.34 C
1397 01-03-2019 20:20:00 6.6 C 91 % 5.24 C
1398 01-03-2019 20:25:00 6.6 C 91 % 5.24 C
1399 01-03-2019 20:30:00 6.6 C 91 % 5.24 C
1400 01-03-2019 20:35:00 6.6 C 91 % 5.24 C
Sensor: Nr:Datum:Temp:Feuchte:Taupunkt:
Aussen-T/F 1401 01-03-2019 20:40:00 6.6 C 91 % 5.24 C
1402 01-03-2019 20:45:00 6.6 C 91 % 5.24 C
1403 01-03-2019 20:50:00 6.6 C 91 % 5.24 C
1404 01-03-2019 20:55:00 6.5 C 91 % 5.14 C
1405 01-03-2019 21:00:00 6.5 C 91 % 5.14 C
1406 01-03-2019 21:05:00 6.5 C 91 % 5.14 C
1407 01-03-2019 21:10:00 6.4 C 91 % 5.04 C
1408 01-03-2019 21:15:00 6.4 C 91 % 5.04 C
1409 01-03-2019 21:20:00 6.4 C 91 % 5.04 C
1410 01-03-2019 21:25:00 6.4 C 91 % 5.04 C
1411 01-03-2019 21:30:00 6.5 C 90 % 4.98 C
1412 01-03-2019 21:35:00 6.5 C 91 % 5.14 C
1413 01-03-2019 21:40:00 6.5 C 91 % 5.14 C
1414 01-03-2019 21:45:00 6.5 C 90 % 4.98 C
1415 01-03-2019 21:50:00 6.4 C 90 % 4.88 C
1416 01-03-2019 21:55:00 6.4 C 90 % 4.88 C
1417 01-03-2019 22:00:00 6.4 C 90 % 4.88 C
1418 01-03-2019 22:05:00 6.4 C 91 % 5.04 C
1419 01-03-2019 22:10:00 6.3 C 91 % 4.94 C
1420 01-03-2019 22:15:00 6.3 C 91 % 4.94 C
1421 01-03-2019 22:20:00 6.3 C 91 % 4.94 C
1422 01-03-2019 22:25:00 6.3 C 91 % 4.94 C
1423 01-03-2019 22:30:00 6.3 C 91 % 4.94 C
1424 01-03-2019 22:35:00 6.3 C 90 % 4.78 C
1425 01-03-2019 22:40:00 6.4 C 90 % 4.88 C
Sensor: Nr:Datum:Temp:Feuchte:Taupunkt:
Aussen-T/F 1426 01-03-2019 22:45:00 6.4 C 89 % 4.72 C
1427 01-03-2019 22:50:00 6.5 C 89 % 4.82 C
1428 01-03-2019 22:55:00 6.6 C 88 % 4.76 C
1429 01-03-2019 23:00:00 6.6 C 88 % 4.76 C
1430 01-03-2019 23:05:00 6.7 C 88 % 4.86 C
1431 01-03-2019 23:10:00 6.7 C 88 % 4.86 C
1432 01-03-2019 23:15:00 6.6 C 88 % 4.76 C
1433 01-03-2019 23:20:00 6.6 C 88 % 4.76 C
1434 01-03-2019 23:25:00 6.6 C 88 % 4.76 C
1435 01-03-2019 23:30:00 6.6 C 88 % 4.76 C
1436 01-03-2019 23:35:00 6.5 C 89 % 4.82 C
1437 01-03-2019 23:40:00 6.4 C 89 % 4.72 C
1438 01-03-2019 23:45:00 6.4 C 89 % 4.72 C
1439 01-03-2019 23:50:00 6.4 C 90 % 4.88 C
1440 01-03-2019 23:55:00 6.3 C 90 % 4.78 C
1441 02-03-2019 00:00:00 6.3 C 90 % 4.78 C
1442 02-03-2019 00:05:00 6.3 C 89 % 4.62 C
1443 02-03-2019 00:10:00 6.2 C 90 % 4.69 C
1444 02-03-2019 00:15:00 6.2 C 90 % 4.69 C
1445 02-03-2019 00:20:00 6.2 C 90 % 4.69 C
1446 02-03-2019 00:25:00 6.2 C 90 % 4.69 C
1447 02-03-2019 00:30:00 6.2 C 90 % 4.69 C
1448 02-03-2019 00:35:00 6.2 C 89 % 4.53 C
1449 02-03-2019 00:40:00 6.2 C 88 % 4.36 C
1450 02-03-2019 00:45:00 6.1 C 88 % 4.27 C
Sensor: Nr:Datum:Temp:Feuchte:Taupunkt:
Aussen-T/F 1451 02-03-2019 00:50:00 6.1 C 88 % 4.27 C
1452 02-03-2019 00:55:00 6.1 C 88 % 4.27 C
1453 02-03-2019 01:00:00 6.1 C 88 % 4.27 C
1454 02-03-2019 01:05:00 6 C 88 % 4.17 C
1455 02-03-2019 01:10:00 5.9 C 88 % 4.07 C
1456 02-03-2019 01:15:00 5.9 C 89 % 4.23 C
1457 02-03-2019 01:20:00 5.9 C 89 % 4.23 C
1458 02-03-2019 01:25:00 5.8 C 89 % 4.13 C
1459 02-03-2019 01:30:00 5.8 C 89 % 4.13 C
1460 02-03-2019 01:35:00 5.8 C 89 % 4.13 C
1461 02-03-2019 01:40:00 5.8 C 90 % 4.29 C
1462 02-03-2019 01:45:00 5.8 C 90 % 4.29 C
1463 02-03-2019 01:50:00 5.7 C 90 % 4.19 C
1464 02-03-2019 01:55:00 5.7 C 90 % 4.19 C
1465 02-03-2019 02:00:00 5.7 C 90 % 4.19 C
1466 02-03-2019 02:05:00 5.7 C 90 % 4.19 C
1467 02-03-2019 02:10:00 5.7 C 91 % 4.35 C
1468 02-03-2019 02:15:00 5.7 C 91 % 4.35 C
1469 02-03-2019 02:20:00 5.7 C 91 % 4.35 C
1470 02-03-2019 02:25:00 5.6 C 90 % 4.09 C
1471 02-03-2019 02:30:00 5.6 C 91 % 4.25 C
1472 02-03-2019 02:35:00 5.6 C 91 % 4.25 C
1473 02-03-2019 02:40:00 5.6 C 91 % 4.25 C
1474 02-03-2019 02:45:00 5.6 C 91 % 4.25 C
1475 02-03-2019 02:50:00 5.6 C 91 % 4.25 C
Sensor: Nr:Datum:Temp:Feuchte:Taupunkt:
Aussen-T/F 1476 02-03-2019 02:55:00 5.6 C 91 % 4.25 C
1477 02-03-2019 03:00:00 5.6 C 91 % 4.25 C
1478 02-03-2019 03:05:00 5.6 C 91 % 4.25 C
1479 02-03-2019 03:10:00 5.6 C 91 % 4.25 C
1480 02-03-2019 03:15:00 5.6 C 91 % 4.25 C
1481 02-03-2019 03:20:00 5.6 C 91 % 4.25 C
1482 02-03-2019 03:25:00 5.6 C 91 % 4.25 C
1483 02-03-2019 03:30:00 5.7 C 91 % 4.35 C
1484 02-03-2019 03:35:00 5.7 C 91 % 4.35 C
1485 02-03-2019 03:40:00 5.7 C 90 % 4.19 C
1486 02-03-2019 03:45:00 5.7 C 90 % 4.19 C
1487 02-03-2019 03:50:00 5.7 C 90 % 4.19 C
1488 02-03-2019 03:55:00 5.7 C 90 % 4.19 C
1489 02-03-2019 04:00:00 5.7 C 90 % 4.19 C
1490 02-03-2019 04:05:00 5.7 C 91 % 4.35 C
1491 02-03-2019 04:10:00 5.7 C 91 % 4.35 C
1492 02-03-2019 04:15:00 5.6 C 90 % 4.09 C
1493 02-03-2019 04:20:00 5.6 C 91 % 4.25 C
1494 02-03-2019 04:25:00 5.6 C 91 % 4.25 C
1495 02-03-2019 04:30:00 5.7 C 91 % 4.35 C
1496 02-03-2019 04:35:00 5.7 C 91 % 4.35 C
1497 02-03-2019 04:40:00 5.7 C 91 % 4.35 C
1498 02-03-2019 04:45:00 5.8 C 92 % 4.6 C
1499 02-03-2019 04:50:00 5.8 C 91 % 4.45 C
1500 02-03-2019 04:55:00 5.8 C 91 % 4.45 C
Sensor: Nr:Datum:Temp:Feuchte:Taupunkt:
Aussen-T/F 1501 02-03-2019 05:00:00 5.8 C 91 % 4.45 C
1502 02-03-2019 05:05:00 5.9 C 91 % 4.55 C
1503 02-03-2019 05:10:00 5.9 C 91 % 4.55 C
1504 02-03-2019 05:15:00 5.9 C 91 % 4.55 C
1505 02-03-2019 05:20:00 6 C 91 % 4.65 C
1506 02-03-2019 05:25:00 6.1 C 91 % 4.74 C
1507 02-03-2019 05:30:00 6.2 C 91 % 4.84 C
1508 02-03-2019 05:35:00 6.3 C 91 % 4.94 C
1509 02-03-2019 05:40:00 6.3 C 91 % 4.94 C
1510 02-03-2019 05:45:00 6.3 C 91 % 4.94 C
1511 02-03-2019 05:50:00 6.3 C 91 % 4.94 C
1512 02-03-2019 05:55:00 6.3 C 91 % 4.94 C
1513 02-03-2019 06:00:00 6.3 C 91 % 4.94 C
1514 02-03-2019 06:05:00 6.3 C 91 % 4.94 C
1515 02-03-2019 06:10:00 6.3 C 91 % 4.94 C
1516 02-03-2019 06:15:00 6.3 C 91 % 4.94 C
1517 02-03-2019 06:20:00 6.3 C 91 % 4.94 C
1518 02-03-2019 06:25:00 6.3 C 91 % 4.94 C
1519 02-03-2019 06:30:00 6.3 C 91 % 4.94 C
1520 02-03-2019 06:35:00 6.3 C 91 % 4.94 C
1521 02-03-2019 06:40:00 6.3 C 91 % 4.94 C
1522 02-03-2019 06:45:00 6.3 C 91 % 4.94 C
1523 02-03-2019 06:50:00 6.3 C 91 % 4.94 C
1524 02-03-2019 06:55:00 6.4 C 91 % 5.04 C
1525 02-03-2019 07:00:00 6.4 C 91 % 5.04 C
Sensor: Nr:Datum:Temp:Feuchte:Taupunkt:
Aussen-T/F 1526 02-03-2019 07:05:00 6.6 C 91 % 5.24 C
1527 02-03-2019 07:10:00 6.6 C 91 % 5.24 C
1528 02-03-2019 07:15:00 6.6 C 91 % 5.24 C
1529 02-03-2019 07:20:00 6.7 C 91 % 5.34 C
1530 02-03-2019 07:25:00 6.7 C 91 % 5.34 C
1531 02-03-2019 07:30:00 6.7 C 91 % 5.34 C
1532 02-03-2019 07:35:00 6.7 C 91 % 5.34 C
1533 02-03-2019 07:40:00 6.7 C 91 % 5.34 C
1534 02-03-2019 07:45:00 6.7 C 91 % 5.34 C
1535 02-03-2019 07:50:00 6.7 C 91 % 5.34 C
1536 02-03-2019 07:55:00 6.7 C 91 % 5.34 C
1537 02-03-2019 08:00:00 6.8 C 91 % 5.44 C
1538 02-03-2019 08:05:00 6.8 C 91 % 5.44 C
1539 02-03-2019 08:10:00 6.8 C 91 % 5.44 C
1540 02-03-2019 08:15:00 6.9 C 90 % 5.38 C
1541 02-03-2019 08:20:00 6.9 C 91 % 5.54 C
1542 02-03-2019 08:25:00 7 C 91 % 5.63 C
1543 02-03-2019 08:30:00 7.1 C 90 % 5.57 C
1544 02-03-2019 08:35:00 7.1 C 90 % 5.57 C
1545 02-03-2019 08:40:00 7.1 C 90 % 5.57 C
1546 02-03-2019 08:45:00 7.2 C 90 % 5.67 C
1547 02-03-2019 08:50:00 7.2 C 90 % 5.67 C
1548 02-03-2019 08:55:00 7.3 C 90 % 5.77 C
1549 02-03-2019 09:00:00 7.3 C 90 % 5.77 C
1550 02-03-2019 09:05:00 7.4 C 90 % 5.87 C
Sensor: Nr:Datum:Temp:Feuchte:Taupunkt:
Aussen-T/F 1551 02-03-2019 09:10:00 7.5 C 90 % 5.97 C
1552 02-03-2019 09:15:00 7.6 C 89 % 5.91 C
1553 02-03-2019 09:20:00 7.6 C 89 % 5.91 C
1554 02-03-2019 09:25:00 7.7 C 89 % 6 C
1555 02-03-2019 09:30:00 7.7 C 89 % 6 C
1556 02-03-2019 09:35:00 7.8 C 89 % 6.1 C
1557 02-03-2019 09:40:00 7.8 C 88 % 5.94 C
1558 02-03-2019 09:45:00 7.8 C 88 % 5.94 C
1559 02-03-2019 09:50:00 7.9 C 88 % 6.04 C
1560 02-03-2019 09:55:00 7.9 C 88 % 6.04 C
1561 02-03-2019 10:00:00 7.9 C 88 % 6.04 C
1562 02-03-2019 10:05:00 7.9 C 88 % 6.04 C
1563 02-03-2019 10:10:00 7.9 C 88 % 6.04 C
1564 02-03-2019 10:15:00 7.9 C 88 % 6.04 C
1565 02-03-2019 10:20:00 7.9 C 88 % 6.04 C
1566 02-03-2019 10:25:00 8 C 88 % 6.14 C
1567 02-03-2019 10:30:00 8.1 C 88 % 6.24 C
1568 02-03-2019 10:35:00 8.1 C 87 % 6.07 C
1569 02-03-2019 10:40:00 8.1 C 88 % 6.24 C
1570 02-03-2019 10:45:00 8.2 C 88 % 6.33 C
1571 02-03-2019 10:50:00 8.3 C 87 % 6.27 C
1572 02-03-2019 10:55:00 8.3 C 87 % 6.27 C
1573 02-03-2019 11:00:00 8.4 C 87 % 6.37 C
1574 02-03-2019 11:05:00 8.6 C 87 % 6.56 C
1575 02-03-2019 11:10:00 8.7 C 86 % 6.49 C
Sensor: Nr:Datum:Temp:Feuchte:Taupunkt:
Aussen-T/F 1576 02-03-2019 11:15:00 8.7 C 86 % 6.49 C
1577 02-03-2019 11:20:00 8.8 C 86 % 6.59 C
1578 02-03-2019 11:25:00 8.9 C 86 % 6.69 C
1579 02-03-2019 11:30:00 9.1 C 86 % 6.89 C
1580 02-03-2019 11:35:00 9.2 C 85 % 6.81 C
1581 02-03-2019 11:40:00 9.3 C 84 % 6.74 C
1582 02-03-2019 11:45:00 9.3 C 85 % 6.91 C
1583 02-03-2019 11:50:00 9.4 C 84 % 6.84 C
1584 02-03-2019 11:55:00 9.5 C 83 % 6.76 C
1585 02-03-2019 12:00:00 9.6 C 84 % 7.03 C
1586 02-03-2019 12:05:00 9.7 C 84 % 7.13 C
1587 02-03-2019 12:10:00 9.8 C 84 % 7.23 C
1588 02-03-2019 12:15:00 10 C 83 % 7.25 C
1589 02-03-2019 12:20:00 10.1 C 83 % 7.35 C
1590 02-03-2019 12:25:00 10.1 C 83 % 7.35 C
1591 02-03-2019 12:30:00 10.1 C 82 % 7.17 C
1592 02-03-2019 12:35:00 10.1 C 82 % 7.17 C
1593 02-03-2019 12:40:00 10 C 82 % 7.07 C
1594 02-03-2019 12:45:00 9.9 C 82 % 6.98 C
1595 02-03-2019 12:50:00 9.9 C 83 % 7.15 C
1596 02-03-2019 12:55:00 10 C 82 % 7.07 C
1597 02-03-2019 13:00:00 10 C 82 % 7.07 C
1598 02-03-2019 13:05:00 10.2 C 83 % 7.45 C
1599 02-03-2019 13:10:00 10.4 C 82 % 7.46 C
1600 02-03-2019 13:15:00 10.6 C 81 % 7.48 C
Sensor: Nr:Datum:Temp:Feuchte:Taupunkt:
Aussen-T/F 1601 02-03-2019 13:20:00 10.7 C 80 % 7.4 C
1602 02-03-2019 13:25:00 10.7 C 79 % 7.21 C
1603 02-03-2019 13:30:00 10.7 C 79 % 7.21 C
1604 02-03-2019 13:35:00 10.7 C 79 % 7.21 C
1605 02-03-2019 13:40:00 10.7 C 79 % 7.21 C
1606 02-03-2019 13:45:00 10.8 C 79 % 7.31 C
1607 02-03-2019 13:50:00 11 C 78 % 7.32 C
1608 02-03-2019 13:55:00 11.1 C 78 % 7.41 C
1609 02-03-2019 14:00:00 11.1 C 77 % 7.23 C
1610 02-03-2019 14:05:00 11.2 C 77 % 7.32 C
1611 02-03-2019 14:10:00 11.2 C 77 % 7.32 C
1612 02-03-2019 14:15:00 11.3 C 76 % 7.23 C
1613 02-03-2019 14:20:00 11.4 C 75 % 7.13 C
1614 02-03-2019 14:25:00 11.4 C 75 % 7.13 C
1615 02-03-2019 14:30:00 11.4 C 75 % 7.13 C
1616 02-03-2019 14:35:00 11.5 C 76 % 7.42 C
1617 02-03-2019 14:40:00 11.6 C 75 % 7.33 C
1618 02-03-2019 14:45:00 11.6 C 75 % 7.33 C
1619 02-03-2019 14:50:00 11.6 C 75 % 7.33 C
1620 02-03-2019 14:55:00 11.6 C 74 % 7.13 C
1621 02-03-2019 15:00:00 11.7 C 74 % 7.23 C
1622 02-03-2019 15:05:00 11.7 C 74 % 7.23 C
1623 02-03-2019 15:10:00 11.8 C 73 % 7.12 C
1624 02-03-2019 15:15:00 11.8 C 73 % 7.12 C
1625 02-03-2019 15:20:00 11.8 C 72 % 6.92 C
Sensor: Nr:Datum:Temp:Feuchte:Taupunkt:
Aussen-T/F 1626 02-03-2019 15:25:00 11.9 C 72 % 7.02 C
1627 02-03-2019 15:30:00 11.9 C 72 % 7.02 C
1628 02-03-2019 15:35:00 12 C 72 % 7.12 C
1629 02-03-2019 15:40:00 12 C 71 % 6.91 C
1630 02-03-2019 15:45:00 12.1 C 72 % 7.21 C
1631 02-03-2019 15:50:00 12.2 C 72 % 7.31 C
1632 02-03-2019 15:55:00 12.2 C 71 % 7.1 C
1633 02-03-2019 16:00:00 12.3 C 70 % 6.99 C
1634 02-03-2019 16:05:00 12.3 C 70 % 6.99 C
1635 02-03-2019 16:10:00 12.3 C 70 % 6.99 C
1636 02-03-2019 16:15:00 12.5 C 70 % 7.18 C
1637 02-03-2019 16:20:00 12.6 C 70 % 7.28 C
1638 02-03-2019 16:25:00 12.6 C 70 % 7.28 C
1639 02-03-2019 16:30:00 12.6 C 70 % 7.28 C
1640 02-03-2019 16:35:00 12.4 C 70 % 7.09 C
1641 02-03-2019 16:40:00 12.3 C 71 % 7.2 C
1642 02-03-2019 16:45:00 12.2 C 71 % 7.1 C
1643 02-03-2019 16:50:00 12.1 C 71 % 7.01 C
1644 02-03-2019 16:55:00 12 C 72 % 7.12 C
1645 02-03-2019 17:00:00 11.9 C 73 % 7.22 C
1646 02-03-2019 17:05:00 11.8 C 73 % 7.12 C
1647 02-03-2019 17:10:00 11.7 C 74 % 7.23 C
1648 02-03-2019 17:15:00 11.5 C 74 % 7.03 C
1649 02-03-2019 17:20:00 11.4 C 75 % 7.13 C
1650 02-03-2019 17:25:00 11.3 C 75 % 7.04 C
Sensor: Nr:Datum:Temp:Feuchte:Taupunkt:
Aussen-T/F 1651 02-03-2019 17:30:00 11.3 C 76 % 7.23 C
1652 02-03-2019 17:35:00 11.2 C 76 % 7.13 C
1653 02-03-2019 17:40:00 11.2 C 77 % 7.32 C
1654 02-03-2019 17:45:00 11.1 C 77 % 7.23 C
1655 02-03-2019 17:50:00 11 C 78 % 7.32 C
1656 02-03-2019 17:55:00 10.9 C 78 % 7.22 C
1657 02-03-2019 18:00:00 10.8 C 78 % 7.12 C
1658 02-03-2019 18:05:00 10.8 C 79 % 7.31 C
1659 02-03-2019 18:10:00 10.7 C 79 % 7.21 C
1660 02-03-2019 18:15:00 10.7 C 80 % 7.4 C
1661 02-03-2019 18:20:00 10.6 C 80 % 7.3 C
1662 02-03-2019 18:25:00 10.6 C 80 % 7.3 C
1663 02-03-2019 18:30:00 10.5 C 81 % 7.38 C
1664 02-03-2019 18:35:00 10.5 C 81 % 7.38 C
1665 02-03-2019 18:40:00 10.4 C 82 % 7.46 C
1666 02-03-2019 18:45:00 10.4 C 82 % 7.46 C
1667 02-03-2019 18:50:00 10.3 C 82 % 7.37 C
1668 02-03-2019 18:55:00 10.3 C 83 % 7.54 C
1669 02-03-2019 19:00:00 10.2 C 84 % 7.62 C
1670 02-03-2019 19:05:00 10.1 C 85 % 7.7 C
1671 02-03-2019 19:10:00 10.1 C 85 % 7.7 C
1672 02-03-2019 19:15:00 10 C 86 % 7.77 C
1673 02-03-2019 19:20:00 9.9 C 86 % 7.67 C
1674 02-03-2019 19:25:00 9.8 C 86 % 7.57 C
1675 02-03-2019 19:30:00 9.8 C 86 % 7.57 C
Sensor: Nr:Datum:Temp:Feuchte:Taupunkt:
Aussen-T/F 1676 02-03-2019 19:35:00 9.7 C 86 % 7.47 C
1677 02-03-2019 19:40:00 9.7 C 87 % 7.64 C
1678 02-03-2019 19:45:00 9.6 C 87 % 7.55 C
1679 02-03-2019 19:50:00 9.6 C 87 % 7.55 C
1680 02-03-2019 19:55:00 9.6 C 87 % 7.55 C
1681 02-03-2019 20:00:00 9.4 C 87 % 7.35 C
1682 02-03-2019 20:05:00 9.5 C 87 % 7.45 C
1683 02-03-2019 20:10:00 9.5 C 87 % 7.45 C
1684 02-03-2019 20:15:00 9.5 C 87 % 7.45 C
1685 02-03-2019 20:20:00 9.5 C 87 % 7.45 C
1686 02-03-2019 20:25:00 9.6 C 87 % 7.55 C
1687 02-03-2019 20:30:00 9.6 C 87 % 7.55 C
1688 02-03-2019 20:35:00 9.5 C 87 % 7.45 C
1689 02-03-2019 20:40:00 9.6 C 88 % 7.71 C
1690 02-03-2019 20:45:00 9.6 C 88 % 7.71 C
1691 02-03-2019 20:50:00 9.6 C 87 % 7.55 C
1692 02-03-2019 20:55:00 9.5 C 88 % 7.61 C
1693 02-03-2019 21:00:00 9.5 C 88 % 7.61 C
1694 02-03-2019 21:05:00 9.4 C 88 % 7.52 C
1695 02-03-2019 21:10:00 9.4 C 88 % 7.52 C
1696 02-03-2019 21:15:00 9.6 C 89 % 7.88 C
1697 02-03-2019 21:20:00 9.7 C 88 % 7.81 C
1698 02-03-2019 21:25:00 9.8 C 88 % 7.91 C
1699 02-03-2019 21:30:00 9.9 C 87 % 7.84 C
1700 02-03-2019 21:35:00 10.1 C 87 % 8.04 C
Sensor: Nr:Datum:Temp:Feuchte:Taupunkt:
Aussen-T/F 1701 02-03-2019 21:40:00 10.1 C 87 % 8.04 C
1702 02-03-2019 21:45:00 10.1 C 87 % 8.04 C
1703 02-03-2019 21:50:00 10.2 C 86 % 7.97 C
1704 02-03-2019 21:55:00 10.2 C 86 % 7.97 C
1705 02-03-2019 22:00:00 10.2 C 86 % 7.97 C
1706 02-03-2019 22:05:00 10.2 C 86 % 7.97 C
1707 02-03-2019 22:10:00 10.2 C 86 % 7.97 C
1708 02-03-2019 22:15:00 10.2 C 85 % 7.79 C
1709 02-03-2019 22:20:00 10.2 C 85 % 7.79 C
1710 02-03-2019 22:25:00 10.2 C 85 % 7.79 C
1711 02-03-2019 22:30:00 10.3 C 85 % 7.89 C
1712 02-03-2019 22:35:00 10.3 C 85 % 7.89 C
1713 02-03-2019 22:40:00 10.3 C 85 % 7.89 C
1714 02-03-2019 22:45:00 10.3 C 84 % 7.72 C
1715 02-03-2019 22:50:00 10.3 C 84 % 7.72 C
1716 02-03-2019 22:55:00 10.3 C 84 % 7.72 C
1717 02-03-2019 23:00:00 10.3 C 84 % 7.72 C
1718 02-03-2019 23:05:00 10.2 C 84 % 7.62 C
1719 02-03-2019 23:10:00 10.2 C 84 % 7.62 C
1720 02-03-2019 23:15:00 10.1 C 84 % 7.52 C
1721 02-03-2019 23:20:00 10.1 C 83 % 7.35 C
1722 02-03-2019 23:25:00 10.1 C 83 % 7.35 C
1723 02-03-2019 23:30:00 9.9 C 83 % 7.15 C
1724 02-03-2019 23:35:00 9.8 C 83 % 7.05 C
1725 02-03-2019 23:40:00 9.8 C 83 % 7.05 C
Sensor: Nr:Datum:Temp:Feuchte:Taupunkt:
Aussen-T/F 1726 02-03-2019 23:45:00 9.8 C 82 % 6.88 C
1727 02-03-2019 23:50:00 9.7 C 83 % 6.96 C
1728 02-03-2019 23:55:00 9.6 C 82 % 6.68 C
1729 03-03-2019 00:00:00 9.6 C 82 % 6.68 C
1730 03-03-2019 00:05:00 9.5 C 82 % 6.59 C
1731 03-03-2019 00:10:00 9.5 C 82 % 6.59 C
1732 03-03-2019 00:15:00 9.5 C 82 % 6.59 C
1733 03-03-2019 00:20:00 9.4 C 82 % 6.49 C
1734 03-03-2019 00:25:00 9.3 C 82 % 6.39 C
1735 03-03-2019 00:30:00 9.2 C 82 % 6.29 C
1736 03-03-2019 00:35:00 8.9 C 82 % 6 C
1737 03-03-2019 00:40:00 8.7 C 83 % 5.98 C
1738 03-03-2019 00:45:00 8.5 C 84 % 5.96 C
1739 03-03-2019 00:50:00 8.3 C 85 % 5.93 C
1740 03-03-2019 00:55:00 8.3 C 86 % 6.1 C
1741 03-03-2019 01:00:00 8.3 C 87 % 6.27 C
1742 03-03-2019 01:05:00 8.4 C 87 % 6.37 C
1743 03-03-2019 01:10:00 8.6 C 87 % 6.56 C
1744 03-03-2019 01:15:00 8.8 C 87 % 6.76 C
1745 03-03-2019 01:20:00 8.9 C 86 % 6.69 C
1746 03-03-2019 01:25:00 9.1 C 86 % 6.89 C
1747 03-03-2019 01:30:00 9.3 C 86 % 7.08 C
1748 03-03-2019 01:35:00 9.4 C 85 % 7.01 C
1749 03-03-2019 01:40:00 9.7 C 84 % 7.13 C
1750 03-03-2019 01:45:00 9.8 C 83 % 7.05 C
Sensor: Nr:Datum:Temp:Feuchte:Taupunkt:
Aussen-T/F 1751 03-03-2019 01:50:00 9.9 C 83 % 7.15 C
1752 03-03-2019 01:55:00 9.9 C 82 % 6.98 C
1753 03-03-2019 02:00:00 10 C 82 % 7.07 C
1754 03-03-2019 02:05:00 10 C 82 % 7.07 C
1755 03-03-2019 02:10:00 10.1 C 81 % 6.99 C
1756 03-03-2019 02:15:00 10.1 C 81 % 6.99 C
1757 03-03-2019 02:20:00 10.1 C 81 % 6.99 C
1758 03-03-2019 02:25:00 10.1 C 81 % 6.99 C
1759 03-03-2019 02:30:00 10.1 C 81 % 6.99 C
1760 03-03-2019 02:35:00 9.9 C 81 % 6.8 C
1761 03-03-2019 02:40:00 9.9 C 81 % 6.8 C
1762 03-03-2019 02:45:00 9.9 C 81 % 6.8 C
1763 03-03-2019 02:50:00 9.8 C 81 % 6.7 C
1764 03-03-2019 02:55:00 9.8 C 82 % 6.88 C
1765 03-03-2019 03:00:00 9.8 C 81 % 6.7 C
1766 03-03-2019 03:05:00 9.8 C 81 % 6.7 C
1767 03-03-2019 03:10:00 9.9 C 81 % 6.8 C
1768 03-03-2019 03:15:00 9.9 C 81 % 6.8 C
1769 03-03-2019 03:20:00 9.9 C 81 % 6.8 C
1770 03-03-2019 03:25:00 10 C 81 % 6.89 C
1771 03-03-2019 03:30:00 10 C 81 % 6.89 C
1772 03-03-2019 03:35:00 10.1 C 81 % 6.99 C
1773 03-03-2019 03:40:00 10.1 C 81 % 6.99 C
1774 03-03-2019 03:45:00 10.1 C 81 % 6.99 C
1775 03-03-2019 03:50:00 10.2 C 81 % 7.09 C
Sensor: Nr:Datum:Temp:Feuchte:Taupunkt:
Aussen-T/F 1776 03-03-2019 03:55:00 10.2 C 81 % 7.09 C
1777 03-03-2019 04:00:00 10.2 C 81 % 7.09 C
1778 03-03-2019 04:05:00 10.2 C 81 % 7.09 C
1779 03-03-2019 04:10:00 10.2 C 81 % 7.09 C
1780 03-03-2019 04:15:00 10.2 C 81 % 7.09 C
1781 03-03-2019 04:20:00 10.2 C 81 % 7.09 C
1782 03-03-2019 04:25:00 10.3 C 81 % 7.19 C
1783 03-03-2019 04:30:00 10.3 C 81 % 7.19 C
1784 03-03-2019 04:35:00 10.3 C 81 % 7.19 C
1785 03-03-2019 04:40:00 10.2 C 81 % 7.09 C
1786 03-03-2019 04:45:00 10.2 C 81 % 7.09 C
1787 03-03-2019 04:50:00 10.2 C 81 % 7.09 C
1788 03-03-2019 04:55:00 10.2 C 80 % 6.91 C
1789 03-03-2019 05:00:00 10.2 C 80 % 6.91 C
1790 03-03-2019 05:05:00 10.3 C 80 % 7.01 C
1791 03-03-2019 05:10:00 10.2 C 80 % 6.91 C
1792 03-03-2019 05:15:00 10.2 C 80 % 6.91 C
1793 03-03-2019 05:20:00 10.2 C 80 % 6.91 C
1794 03-03-2019 05:25:00 10.2 C 80 % 6.91 C
1795 03-03-2019 05:30:00 10.2 C 80 % 6.91 C
1796 03-03-2019 05:35:00 10.2 C 80 % 6.91 C
1797 03-03-2019 05:40:00 10.2 C 79 % 6.73 C
1798 03-03-2019 05:45:00 10.2 C 79 % 6.73 C
1799 03-03-2019 05:50:00 10.2 C 80 % 6.91 C
1800 03-03-2019 05:55:00 10.2 C 80 % 6.91 C
Sensor: Nr:Datum:Temp:Feuchte:Taupunkt:
Aussen-T/F 1801 03-03-2019 06:00:00 10.2 C 80 % 6.91 C
1802 03-03-2019 06:05:00 10.1 C 80 % 6.81 C
1803 03-03-2019 06:10:00 10.1 C 81 % 6.99 C
1804 03-03-2019 06:15:00 10.1 C 81 % 6.99 C
1805 03-03-2019 06:20:00 10.1 C 81 % 6.99 C
1806 03-03-2019 06:25:00 10.1 C 81 % 6.99 C
1807 03-03-2019 06:30:00 10.1 C 81 % 6.99 C
1808 03-03-2019 06:35:00 10.1 C 81 % 6.99 C
1809 03-03-2019 06:40:00 10.1 C 81 % 6.99 C
1810 03-03-2019 06:45:00 10.1 C 81 % 6.99 C
1811 03-03-2019 06:50:00 10.1 C 81 % 6.99 C
1812 03-03-2019 06:55:00 10.1 C 81 % 6.99 C
1813 03-03-2019 07:00:00 10.1 C 81 % 6.99 C
1814 03-03-2019 07:05:00 10.1 C 81 % 6.99 C
1815 03-03-2019 07:10:00 10.1 C 81 % 6.99 C
1816 03-03-2019 07:15:00 10.1 C 81 % 6.99 C
1817 03-03-2019 07:20:00 10.1 C 81 % 6.99 C
1818 03-03-2019 07:25:00 10.1 C 81 % 6.99 C
1819 03-03-2019 07:30:00 10.1 C 81 % 6.99 C
1820 03-03-2019 07:35:00 10.1 C 81 % 6.99 C
1821 03-03-2019 07:40:00 10.2 C 81 % 7.09 C
1822 03-03-2019 07:45:00 10.2 C 81 % 7.09 C
1823 03-03-2019 07:50:00 10.2 C 81 % 7.09 C
1824 03-03-2019 07:55:00 10.2 C 81 % 7.09 C
1825 03-03-2019 08:00:00 10.2 C 81 % 7.09 C
Sensor: Nr:Datum:Temp:Feuchte:Taupunkt:
Aussen-T/F 1826 03-03-2019 08:05:00 10.2 C 81 % 7.09 C
1827 03-03-2019 08:10:00 10.3 C 81 % 7.19 C
1828 03-03-2019 08:15:00 10.3 C 81 % 7.19 C
1829 03-03-2019 08:20:00 10.3 C 81 % 7.19 C
1830 03-03-2019 08:25:00 10.3 C 81 % 7.19 C
1831 03-03-2019 08:30:00 10.3 C 82 % 7.37 C
1832 03-03-2019 08:35:00 10.3 C 82 % 7.37 C
1833 03-03-2019 08:40:00 10.3 C 82 % 7.37 C
1834 03-03-2019 08:45:00 10.4 C 82 % 7.46 C
1835 03-03-2019 08:50:00 10.4 C 82 % 7.46 C
1836 03-03-2019 08:55:00 10.5 C 82 % 7.56 C
1837 03-03-2019 09:00:00 10.6 C 82 % 7.66 C
1838 03-03-2019 09:05:00 10.7 C 81 % 7.58 C
1839 03-03-2019 09:10:00 10.8 C 82 % 7.85 C
1840 03-03-2019 09:15:00 10.9 C 81 % 7.77 C
1841 03-03-2019 09:20:00 10.9 C 81 % 7.77 C
1842 03-03-2019 09:25:00 11 C 81 % 7.87 C
1843 03-03-2019 09:30:00 10.9 C 81 % 7.77 C
1844 03-03-2019 09:35:00 10.9 C 81 % 7.77 C
1845 03-03-2019 09:40:00 10.9 C 81 % 7.77 C
1846 03-03-2019 09:45:00 10.9 C 81 % 7.77 C
1847 03-03-2019 09:50:00 10.9 C 81 % 7.77 C
1848 03-03-2019 09:55:00 11.1 C 81 % 7.97 C
1849 03-03-2019 10:00:00 11.1 C 81 % 7.97 C
1850 03-03-2019 10:05:00 11.1 C 81 % 7.97 C
Sensor: Nr:Datum:Temp:Feuchte:Taupunkt:
Aussen-T/F 1851 03-03-2019 10:10:00 11.2 C 81 % 8.06 C
1852 03-03-2019 10:15:00 11.2 C 81 % 8.06 C
1853 03-03-2019 10:20:00 11.1 C 81 % 7.97 C
1854 03-03-2019 10:25:00 11.1 C 81 % 7.97 C
1855 03-03-2019 10:30:00 11.1 C 81 % 7.97 C
1856 03-03-2019 10:35:00 11.2 C 81 % 8.06 C
1857 03-03-2019 10:40:00 11.2 C 81 % 8.06 C
1858 03-03-2019 10:45:00 11.2 C 81 % 8.06 C
1859 03-03-2019 10:50:00 11.2 C 81 % 8.06 C
1860 03-03-2019 10:55:00 11.2 C 81 % 8.06 C
1861 03-03-2019 11:00:00 11.1 C 81 % 7.97 C
1862 03-03-2019 11:05:00 11.1 C 82 % 8.15 C
1863 03-03-2019 11:10:00 11 C 82 % 8.05 C
1864 03-03-2019 11:15:00 10.9 C 82 % 7.95 C
1865 03-03-2019 11:20:00 10.9 C 82 % 7.95 C
1866 03-03-2019 11:25:00 10.9 C 82 % 7.95 C
1867 03-03-2019 11:30:00 11 C 82 % 8.05 C
1868 03-03-2019 11:35:00 11 C 82 % 8.05 C
1869 03-03-2019 11:40:00 11 C 82 % 8.05 C
1870 03-03-2019 11:45:00 11 C 82 % 8.05 C
1871 03-03-2019 11:50:00 11.1 C 83 % 8.33 C
1872 03-03-2019 11:55:00 11.1 C 82 % 8.15 C
1873 03-03-2019 12:00:00 11.1 C 83 % 8.33 C
1874 03-03-2019 12:05:00 11.1 C 82 % 8.15 C
1875 03-03-2019 12:10:00 11.1 C 82 % 8.15 C
Sensor: Nr:Datum:Temp:Feuchte:Taupunkt:
Aussen-T/F 1876 03-03-2019 12:15:00 11.1 C 82 % 8.15 C
1877 03-03-2019 12:20:00 11.2 C 82 % 8.25 C
1878 03-03-2019 12:25:00 11.2 C 82 % 8.25 C
1879 03-03-2019 12:30:00 11.3 C 82 % 8.34 C
1880 03-03-2019 12:35:00 11.3 C 82 % 8.34 C
1881 03-03-2019 12:40:00 11.3 C 82 % 8.34 C
1882 03-03-2019 12:45:00 11.3 C 82 % 8.34 C
1883 03-03-2019 12:50:00 11.3 C 82 % 8.34 C
1884 03-03-2019 12:55:00 11.4 C 82 % 8.44 C
1885 03-03-2019 13:00:00 11.4 C 82 % 8.44 C
1886 03-03-2019 13:05:00 11.6 C 81 % 8.45 C
1887 03-03-2019 13:10:00 11.6 C 81 % 8.45 C
1888 03-03-2019 13:15:00 11.7 C 81 % 8.55 C
1889 03-03-2019 13:20:00 11.7 C 81 % 8.55 C
1890 03-03-2019 13:25:00 11.8 C 80 % 8.47 C
1891 03-03-2019 13:30:00 11.8 C 80 % 8.47 C
1892 03-03-2019 13:35:00 11.8 C 80 % 8.47 C
1893 03-03-2019 13:40:00 11.8 C 80 % 8.47 C
1894 03-03-2019 13:45:00 11.8 C 80 % 8.47 C
1895 03-03-2019 13:50:00 11.9 C 80 % 8.56 C
1896 03-03-2019 13:55:00 11.9 C 80 % 8.56 C
1897 03-03-2019 14:00:00 11.9 C 79 % 8.38 C
1898 03-03-2019 14:05:00 11.9 C 79 % 8.38 C
1899 03-03-2019 14:10:00 11.9 C 80 % 8.56 C
1900 03-03-2019 14:15:00 11.9 C 80 % 8.56 C
Sensor: Nr:Datum:Temp:Feuchte:Taupunkt:
Aussen-T/F 1901 03-03-2019 14:20:00 11.8 C 80 % 8.47 C
1902 03-03-2019 14:25:00 11.8 C 80 % 8.47 C
1903 03-03-2019 14:30:00 11.8 C 80 % 8.47 C
1904 03-03-2019 14:35:00 11.7 C 80 % 8.37 C
1905 03-03-2019 14:40:00 11.7 C 80 % 8.37 C
1906 03-03-2019 14:45:00 11.7 C 80 % 8.37 C
1907 03-03-2019 14:50:00 11.7 C 81 % 8.55 C
1908 03-03-2019 14:55:00 11.7 C 81 % 8.55 C
1909 03-03-2019 15:00:00 11.7 C 81 % 8.55 C
1910 03-03-2019 15:05:00 11.7 C 80 % 8.37 C
1911 03-03-2019 15:10:00 11.7 C 80 % 8.37 C
1912 03-03-2019 15:15:00 11.8 C 81 % 8.65 C
1913 03-03-2019 15:20:00 11.8 C 81 % 8.65 C
1914 03-03-2019 15:25:00 11.8 C 81 % 8.65 C
1915 03-03-2019 15:30:00 11.7 C 81 % 8.55 C
1916 03-03-2019 15:35:00 11.7 C 82 % 8.73 C
1917 03-03-2019 15:40:00 11.7 C 82 % 8.73 C
1918 03-03-2019 15:45:00 11.6 C 82 % 8.64 C
1919 03-03-2019 15:50:00 11.6 C 82 % 8.64 C
1920 03-03-2019 15:55:00 11.6 C 82 % 8.64 C
1921 03-03-2019 16:00:00 11.6 C 82 % 8.64 C
1922 03-03-2019 16:05:00 11.6 C 82 % 8.64 C
1923 03-03-2019 16:10:00 11.6 C 82 % 8.64 C
1924 03-03-2019 16:15:00 11.6 C 82 % 8.64 C
1925 03-03-2019 16:20:00 11.6 C 82 % 8.64 C
Sensor: Nr:Datum:Temp:Feuchte:Taupunkt:
Aussen-T/F 1926 03-03-2019 16:25:00 11.7 C 82 % 8.73 C
1927 03-03-2019 16:30:00 11.7 C 81 % 8.55 C
1928 03-03-2019 16:35:00 11.8 C 81 % 8.65 C
1929 03-03-2019 16:40:00 11.8 C 81 % 8.65 C
1930 03-03-2019 16:45:00 11.8 C 81 % 8.65 C
1931 03-03-2019 16:50:00 11.8 C 81 % 8.65 C
1932 03-03-2019 16:55:00 11.8 C 81 % 8.65 C
1933 03-03-2019 17:00:00 11.8 C 81 % 8.65 C
1934 03-03-2019 17:05:00 11.8 C 81 % 8.65 C
1935 03-03-2019 17:10:00 11.8 C 80 % 8.47 C
1936 03-03-2019 17:15:00 11.8 C 80 % 8.47 C
1937 03-03-2019 17:20:00 11.8 C 80 % 8.47 C
1938 03-03-2019 17:25:00 11.8 C 80 % 8.47 C
1939 03-03-2019 17:30:00 11.9 C 79 % 8.38 C
1940 03-03-2019 17:35:00 11.9 C 79 % 8.38 C
1941 03-03-2019 17:40:00 11.9 C 79 % 8.38 C
1942 03-03-2019 17:45:00 12 C 78 % 8.29 C
1943 03-03-2019 17:50:00 12.1 C 78 % 8.38 C
1944 03-03-2019 17:55:00 12.2 C 78 % 8.48 C
1945 03-03-2019 18:00:00 12.2 C 78 % 8.48 C
1946 03-03-2019 18:05:00 12.2 C 78 % 8.48 C
1947 03-03-2019 18:10:00 12.2 C 78 % 8.48 C
1948 03-03-2019 18:15:00 12.2 C 78 % 8.48 C
1949 03-03-2019 18:20:00 12.2 C 78 % 8.48 C
1950 03-03-2019 18:25:00 12.2 C 78 % 8.48 C
Sensor: Nr:Datum:Temp:Feuchte:Taupunkt:
Aussen-T/F 1951 03-03-2019 18:30:00 12.2 C 77 % 8.29 C
1952 03-03-2019 18:35:00 12.2 C 77 % 8.29 C
1953 03-03-2019 18:40:00 12.2 C 77 % 8.29 C
1954 03-03-2019 18:45:00 12.2 C 77 % 8.29 C
1955 03-03-2019 18:50:00 12.1 C 77 % 8.2 C
1956 03-03-2019 18:55:00 12.1 C 77 % 8.2 C
1957 03-03-2019 19:00:00 12.1 C 77 % 8.2 C
1958 03-03-2019 19:05:00 12.2 C 77 % 8.29 C
1959 03-03-2019 19:10:00 12.2 C 77 % 8.29 C
1960 03-03-2019 19:15:00 12.2 C 76 % 8.1 C
1961 03-03-2019 19:20:00 12.3 C 76 % 8.2 C
1962 03-03-2019 19:25:00 12.3 C 76 % 8.2 C
1963 03-03-2019 19:30:00 12.3 C 76 % 8.2 C
1964 03-03-2019 19:35:00 12.3 C 76 % 8.2 C
1965 03-03-2019 19:40:00 12.3 C 75 % 8 C
1966 03-03-2019 19:45:00 12.4 C 75 % 8.1 C
1967 03-03-2019 19:50:00 12.4 C 75 % 8.1 C
1968 03-03-2019 19:55:00 12.4 C 75 % 8.1 C
1969 03-03-2019 20:00:00 12.3 C 75 % 8 C
1970 03-03-2019 20:05:00 12.3 C 75 % 8 C
1971 03-03-2019 20:10:00 12.3 C 75 % 8 C
1972 03-03-2019 20:15:00 12.3 C 76 % 8.2 C
1973 03-03-2019 20:20:00 12.3 C 76 % 8.2 C
1974 03-03-2019 20:25:00 12.4 C 76 % 8.29 C
1975 03-03-2019 20:30:00 12.4 C 76 % 8.29 C
Sensor: Nr:Datum:Temp:Feuchte:Taupunkt:
Aussen-T/F 1976 03-03-2019 20:35:00 12.4 C 76 % 8.29 C
1977 03-03-2019 20:40:00 12.4 C 76 % 8.29 C
1978 03-03-2019 20:45:00 12.3 C 77 % 8.39 C
1979 03-03-2019 20:50:00 12.3 C 77 % 8.39 C
1980 03-03-2019 20:55:00 12.3 C 77 % 8.39 C
1981 03-03-2019 21:00:00 12.3 C 77 % 8.39 C
1982 03-03-2019 21:05:00 12.3 C 77 % 8.39 C
1983 03-03-2019 21:10:00 12.3 C 77 % 8.39 C
1984 03-03-2019 21:15:00 12.3 C 77 % 8.39 C
1985 03-03-2019 21:20:00 12.3 C 77 % 8.39 C
1986 03-03-2019 21:25:00 12.3 C 77 % 8.39 C
1987 03-03-2019 21:30:00 12.3 C 77 % 8.39 C
1988 03-03-2019 21:35:00 12.3 C 77 % 8.39 C
1989 03-03-2019 21:40:00 12.4 C 77 % 8.49 C
1990 03-03-2019 21:45:00 12.4 C 77 % 8.49 C
1991 03-03-2019 21:50:00 12.4 C 77 % 8.49 C
1992 03-03-2019 21:55:00 12.4 C 78 % 8.68 C
1993 03-03-2019 22:00:00 12.4 C 78 % 8.68 C
1994 03-03-2019 22:05:00 12.4 C 78 % 8.68 C
1995 03-03-2019 22:10:00 12.4 C 78 % 8.68 C
1996 03-03-2019 22:15:00 12.4 C 77 % 8.49 C
1997 03-03-2019 22:20:00 12.4 C 77 % 8.49 C
1998 03-03-2019 22:25:00 12.5 C 77 % 8.58 C
1999 03-03-2019 22:30:00 12.5 C 77 % 8.58 C
2000 03-03-2019 22:35:00 12.6 C 76 % 8.49 C
Sensor: Nr:Datum:Temp:Feuchte:Taupunkt:
Aussen-T/F 2001 03-03-2019 22:40:00 12.6 C 76 % 8.49 C
2002 03-03-2019 22:45:00 12.7 C 75 % 8.39 C
2003 03-03-2019 22:50:00 12.7 C 75 % 8.39 C
2004 03-03-2019 22:55:00 12.7 C 75 % 8.39 C
2005 03-03-2019 23:00:00 12.7 C 74 % 8.19 C
2006 03-03-2019 23:05:00 12.8 C 74 % 8.29 C
2007 03-03-2019 23:10:00 12.8 C 74 % 8.29 C
2008 03-03-2019 23:15:00 12.8 C 74 % 8.29 C
2009 03-03-2019 23:20:00 12.7 C 74 % 8.19 C
2010 03-03-2019 23:25:00 12.7 C 74 % 8.19 C
2011 03-03-2019 23:30:00 12.7 C 74 % 8.19 C
2012 03-03-2019 23:35:00 12.7 C 74 % 8.19 C
2013 03-03-2019 23:40:00 12.8 C 73 % 8.09 C
2014 03-03-2019 23:45:00 12.8 C 74 % 8.29 C
2015 03-03-2019 23:50:00 12.8 C 73 % 8.09 C
2016 03-03-2019 23:55:00 12.8 C 73 % 8.09 C
2017 04-03-2019 00:00:00 12.9 C 73 % 8.18 C
2018 04-03-2019 00:05:00 12.9 C 73 % 8.18 C
2019 04-03-2019 00:10:00 12.9 C 72 % 7.98 C
2020 04-03-2019 00:15:00 13 C 72 % 8.08 C
2021 04-03-2019 00:20:00 13.1 C 72 % 8.17 C
2022 04-03-2019 00:25:00 13.1 C 71 % 7.97 C
2023 04-03-2019 00:30:00 13.2 C 71 % 8.06 C
2024 04-03-2019 00:35:00 13.2 C 70 % 7.86 C
2025 04-03-2019 00:40:00 13.2 C 71 % 8.06 C
Sensor: Nr:Datum:Temp:Feuchte:Taupunkt:
Aussen-T/F 2026 04-03-2019 00:45:00 13.2 C 70 % 7.86 C
2027 04-03-2019 00:50:00 13.3 C 70 % 7.95 C
2028 04-03-2019 00:55:00 13.3 C 70 % 7.95 C
2029 04-03-2019 01:00:00 13.3 C 69 % 7.74 C
2030 04-03-2019 01:05:00 13.3 C 70 % 7.95 C
2031 04-03-2019 01:10:00 13.3 C 70 % 7.95 C
2032 04-03-2019 01:15:00 13.3 C 70 % 7.95 C
2033 04-03-2019 01:20:00 13.3 C 69 % 7.74 C
2034 04-03-2019 01:25:00 13.3 C 69 % 7.74 C
2035 04-03-2019 01:30:00 13.4 C 68 % 7.62 C
2036 04-03-2019 01:35:00 13.6 C 67 % 7.6 C
2037 04-03-2019 01:40:00 13.8 C 67 % 7.79 C
2038 04-03-2019 01:45:00 13.8 C 67 % 7.79 C
2039 04-03-2019 01:50:00 13.9 C 67 % 7.88 C
2040 04-03-2019 01:55:00 13.8 C 69 % 8.22 C
2041 04-03-2019 02:00:00 13.6 C 70 % 8.24 C
2042 04-03-2019 02:05:00 13.3 C 71 % 8.16 C
2043 04-03-2019 02:10:00 13.2 C 72 % 8.27 C
2044 04-03-2019 02:15:00 12.9 C 74 % 8.38 C
2045 04-03-2019 02:20:00 12.8 C 75 % 8.48 C
2046 04-03-2019 02:25:00 12.6 C 76 % 8.49 C
2047 04-03-2019 02:30:00 12.5 C 77 % 8.58 C
2048 04-03-2019 02:35:00 12.3 C 77 % 8.39 C
2049 04-03-2019 02:40:00 12.3 C 78 % 8.58 C
2050 04-03-2019 02:45:00 12.2 C 78 % 8.48 C
Sensor: Nr:Datum:Temp:Feuchte:Taupunkt:
Aussen-T/F 2051 04-03-2019 02:50:00 12.2 C 78 % 8.48 C
2052 04-03-2019 02:55:00 12.1 C 79 % 8.57 C
2053 04-03-2019 03:00:00 12.1 C 79 % 8.57 C
2054 04-03-2019 03:05:00 12 C 79 % 8.48 C
2055 04-03-2019 03:10:00 11.9 C 80 % 8.56 C
2056 04-03-2019 03:15:00 11.8 C 80 % 8.47 C
2057 04-03-2019 03:20:00 11.8 C 80 % 8.47 C
2058 04-03-2019 03:25:00 11.7 C 81 % 8.55 C
2059 04-03-2019 03:30:00 11.7 C 81 % 8.55 C
2060 04-03-2019 03:35:00 11.7 C 81 % 8.55 C
2061 04-03-2019 03:40:00 11.7 C 81 % 8.55 C
2062 04-03-2019 03:45:00 11.7 C 81 % 8.55 C
2063 04-03-2019 03:50:00 11.7 C 81 % 8.55 C
2064 04-03-2019 03:55:00 11.7 C 81 % 8.55 C
2065 04-03-2019 04:00:00 11.7 C 81 % 8.55 C
2066 04-03-2019 04:05:00 11.7 C 81 % 8.55 C
2067 04-03-2019 04:10:00 11.6 C 81 % 8.45 C
2068 04-03-2019 04:15:00 11.6 C 81 % 8.45 C
2069 04-03-2019 04:20:00 11.6 C 81 % 8.45 C
2070 04-03-2019 04:25:00 11.7 C 82 % 8.73 C
2071 04-03-2019 04:30:00 11.7 C 82 % 8.73 C
2072 04-03-2019 04:35:00 11.7 C 82 % 8.73 C
2073 04-03-2019 04:40:00 11.7 C 82 % 8.73 C
2074 04-03-2019 04:45:00 11.7 C 82 % 8.73 C
2075 04-03-2019 04:50:00 11.7 C 82 % 8.73 C
Sensor: Nr:Datum:Temp:Feuchte:Taupunkt:
Aussen-T/F 2076 04-03-2019 04:55:00 11.7 C 81 % 8.55 C
2077 04-03-2019 05:00:00 11.7 C 81 % 8.55 C
2078 04-03-2019 05:05:00 11.7 C 80 % 8.37 C
2079 04-03-2019 05:10:00 11.8 C 80 % 8.47 C
2080 04-03-2019 05:15:00 11.8 C 80 % 8.47 C
2081 04-03-2019 05:20:00 11.8 C 80 % 8.47 C
2082 04-03-2019 05:25:00 11.8 C 80 % 8.47 C
2083 04-03-2019 05:30:00 11.7 C 80 % 8.37 C
2084 04-03-2019 05:35:00 11.6 C 79 % 8.09 C
2085 04-03-2019 05:40:00 11.6 C 80 % 8.27 C
2086 04-03-2019 05:45:00 11.4 C 80 % 8.08 C
2087 04-03-2019 05:50:00 11.4 C 80 % 8.08 C
2088 04-03-2019 05:55:00 11.3 C 81 % 8.16 C
2089 04-03-2019 06:00:00 11.3 C 81 % 8.16 C
2090 04-03-2019 06:05:00 11.4 C 80 % 8.08 C
2091 04-03-2019 06:10:00 11.4 C 80 % 8.08 C
2092 04-03-2019 06:15:00 11.3 C 80 % 7.98 C
2093 04-03-2019 06:20:00 11.3 C 79 % 7.8 C
2094 04-03-2019 06:25:00 11.3 C 78 % 7.61 C
2095 04-03-2019 06:30:00 11.5 C 77 % 7.61 C
2096 04-03-2019 06:35:00 11.6 C 79 % 8.09 C
2097 04-03-2019 06:40:00 11.6 C 79 % 8.09 C
2098 04-03-2019 06:45:00 11.5 C 78 % 7.8 C
2099 04-03-2019 06:50:00 11.6 C 78 % 7.9 C
2100 04-03-2019 06:55:00 11.6 C 78 % 7.9 C
Sensor: Nr:Datum:Temp:Feuchte:Taupunkt:
Aussen-T/F 2101 04-03-2019 07:00:00 11.6 C 77 % 7.71 C
2102 04-03-2019 07:05:00 11.7 C 76 % 7.62 C
2103 04-03-2019 07:10:00 11.8 C 76 % 7.71 C
2104 04-03-2019 07:15:00 11.9 C 75 % 7.62 C
2105 04-03-2019 07:20:00 12 C 74 % 7.52 C
2106 04-03-2019 07:25:00 12 C 74 % 7.52 C
2107 04-03-2019 07:30:00 12.1 C 73 % 7.41 C
2108 04-03-2019 07:35:00 12.1 C 73 % 7.41 C
2109 04-03-2019 07:40:00 12.2 C 72 % 7.31 C
2110 04-03-2019 07:45:00 12.2 C 72 % 7.31 C
2111 04-03-2019 07:50:00 12.2 C 72 % 7.31 C
2112 04-03-2019 07:55:00 12.2 C 72 % 7.31 C
2113 04-03-2019 08:00:00 12.3 C 72 % 7.4 C
2114 04-03-2019 08:05:00 12.3 C 71 % 7.2 C
2115 04-03-2019 08:10:00 12.4 C 70 % 7.09 C
2116 04-03-2019 08:15:00 12.4 C 69 % 6.88 C
2117 04-03-2019 08:20:00 12.6 C 68 % 6.86 C
2118 04-03-2019 08:25:00 12.7 C 68 % 6.95 C
2119 04-03-2019 08:30:00 12.7 C 67 % 6.74 C
2120 04-03-2019 08:35:00 12 C 75 % 7.71 C
2121 04-03-2019 08:40:00 10.7 C 77 % 6.84 C
2122 04-03-2019 08:45:00 9.7 C 80 % 6.42 C
2123 04-03-2019 08:50:00 9.2 C 80 % 5.94 C
2124 04-03-2019 08:55:00 8.9 C 81 % 5.82 C
2125 04-03-2019 09:00:00 8.9 C 79 % 5.46 C
Sensor: Nr:Datum:Temp:Feuchte:Taupunkt:
Aussen-T/F 2126 04-03-2019 09:05:00 9 C 77 % 5.19 C
2127 04-03-2019 09:10:00 9.2 C 75 % 5.01 C
2128 04-03-2019 09:15:00 9.4 C 74 % 5.01 C
2129 04-03-2019 09:20:00 9.6 C 73 % 5.01 C
2130 04-03-2019 09:25:00 9.6 C 73 % 5.01 C
2131 04-03-2019 09:30:00 9.7 C 73 % 5.1 C
2132 04-03-2019 09:35:00 9.8 C 75 % 5.59 C
2133 04-03-2019 09:40:00 9.8 C 78 % 6.15 C
2134 04-03-2019 09:45:00 9.4 C 79 % 5.95 C
2135 04-03-2019 09:50:00 9.2 C 80 % 5.94 C
2136 04-03-2019 09:55:00 9.1 C 80 % 5.84 C
2137 04-03-2019 10:00:00 9.1 C 80 % 5.84 C
2138 04-03-2019 10:05:00 9.2 C 80 % 5.94 C
2139 04-03-2019 10:10:00 9.4 C 79 % 5.95 C
2140 04-03-2019 10:15:00 9.6 C 78 % 5.96 C
2141 04-03-2019 10:20:00 9.7 C 77 % 5.87 C
2142 04-03-2019 10:25:00 9.9 C 77 % 6.06 C
2143 04-03-2019 10:30:00 10 C 76 % 5.97 C
2144 04-03-2019 10:35:00 10.1 C 76 % 6.07 C
2145 04-03-2019 10:40:00 10.2 C 76 % 6.16 C
2146 04-03-2019 10:45:00 10.3 C 75 % 6.07 C
2147 04-03-2019 10:50:00 10.6 C 74 % 6.17 C
2148 04-03-2019 10:55:00 10.8 C 71 % 5.76 C
2149 04-03-2019 11:00:00 11.1 C 70 % 5.84 C
2150 04-03-2019 11:05:00 11.3 C 68 % 5.62 C
Sensor: Nr:Datum:Temp:Feuchte:Taupunkt:
Aussen-T/F 2151 04-03-2019 11:10:00 11.6 C 67 % 5.69 C
2152 04-03-2019 11:15:00 11.7 C 66 % 5.57 C
2153 04-03-2019 11:20:00 11.7 C 65 % 5.35 C
2154 04-03-2019 11:25:00 11.6 C 68 % 5.9 C
2155 04-03-2019 11:30:00 11.2 C 70 % 5.94 C
2156 04-03-2019 11:35:00 10.9 C 71 % 5.86 C
2157 04-03-2019 11:40:00 10.8 C 71 % 5.76 C
2158 04-03-2019 11:45:00 10.9 C 72 % 6.06 C
2159 04-03-2019 11:50:00 11 C 71 % 5.95 C
2160 04-03-2019 11:55:00 11 C 71 % 5.95 C
2161 04-03-2019 12:00:00 11.2 C 69 % 5.73 C
2162 04-03-2019 12:05:00 11.3 C 68 % 5.62 C
2163 04-03-2019 12:10:00 11.4 C 68 % 5.71 C
2164 04-03-2019 12:15:00 11.6 C 68 % 5.9 C
2165 04-03-2019 12:20:00 11.8 C 67 % 5.88 C
2166 04-03-2019 12:25:00 12 C 67 % 6.07 C
2167 04-03-2019 12:30:00 11.9 C 68 % 6.19 C
2168 04-03-2019 12:35:00 11.4 C 73 % 6.74 C
2169 04-03-2019 12:40:00 10.6 C 78 % 6.93 C
2170 04-03-2019 12:45:00 9.8 C 82 % 6.88 C
2171 04-03-2019 12:50:00 9.5 C 83 % 6.76 C
2172 04-03-2019 12:55:00 9.3 C 84 % 6.74 C
2173 04-03-2019 13:00:00 8.8 C 86 % 6.59 C
2174 04-03-2019 13:05:00 8.7 C 88 % 6.83 C
2175 04-03-2019 13:10:00 9.1 C 90 % 7.55 C
Sensor: Nr:Datum:Temp:Feuchte:Taupunkt:
Aussen-T/F 2176 04-03-2019 13:15:00 9.3 C 87 % 7.25 C
2177 04-03-2019 13:20:00 9.4 C 86 % 7.18 C
2178 04-03-2019 13:25:00 9.7 C 85 % 7.3 C
2179 04-03-2019 13:30:00 9.9 C 83 % 7.15 C
2180 04-03-2019 13:35:00 10.3 C 81 % 7.19 C
2181 04-03-2019 13:40:00 10.5 C 80 % 7.2 C
2182 04-03-2019 13:45:00 10.4 C 81 % 7.28 C
2183 04-03-2019 13:50:00 10.4 C 81 % 7.28 C
2184 04-03-2019 13:55:00 10.3 C 81 % 7.19 C
2185 04-03-2019 14:00:00 10.2 C 82 % 7.27 C
2186 04-03-2019 14:05:00 10.2 C 82 % 7.27 C
2187 04-03-2019 14:10:00 10.1 C 84 % 7.52 C
2188 04-03-2019 14:15:00 9.9 C 83 % 7.15 C
2189 04-03-2019 14:20:00 9.9 C 83 % 7.15 C
2190 04-03-2019 14:25:00 9.9 C 81 % 6.8 C
2191 04-03-2019 14:30:00 9.8 C 81 % 6.7 C
2192 04-03-2019 14:35:00 9.6 C 82 % 6.68 C
2193 04-03-2019 14:40:00 9.1 C 84 % 6.54 C
2194 04-03-2019 14:45:00 8.6 C 86 % 6.39 C
2195 04-03-2019 14:50:00 8.2 C 86 % 6 C
2196 04-03-2019 14:55:00 7.8 C 86 % 5.61 C
2197 04-03-2019 15:00:00 7.6 C 85 % 5.24 C
2198 04-03-2019 15:05:00 7.4 C 85 % 5.05 C
2199 04-03-2019 15:10:00 7.2 C 86 % 5.02 C
2200 04-03-2019 15:15:00 7.2 C 86 % 5.02 C
Sensor: Nr:Datum:Temp:Feuchte:Taupunkt:
Aussen-T/F 2201 04-03-2019 15:20:00 7.1 C 86 % 4.92 C
2202 04-03-2019 15:25:00 7.1 C 86 % 4.92 C
2203 04-03-2019 15:30:00 6.9 C 85 % 4.56 C
2204 04-03-2019 15:35:00 6.9 C 84 % 4.39 C
2205 04-03-2019 15:40:00 6.9 C 84 % 4.39 C
2206 04-03-2019 15:45:00 6.9 C 83 % 4.22 C
2207 04-03-2019 15:50:00 6.9 C 82 % 4.05 C
2208 04-03-2019 15:55:00 7.1 C 81 % 4.07 C
2209 04-03-2019 16:00:00 7.3 C 81 % 4.26 C
2210 04-03-2019 16:05:00 7.4 C 81 % 4.36 C
2211 04-03-2019 16:10:00 7.4 C 81 % 4.36 C
2212 04-03-2019 16:15:00 7.6 C 81 % 4.55 C
2213 04-03-2019 16:20:00 7.6 C 80 % 4.38 C
2214 04-03-2019 16:25:00 7.6 C 80 % 4.38 C
2215 04-03-2019 16:30:00 7.6 C 79 % 4.2 C
2216 04-03-2019 16:35:00 7.6 C 79 % 4.2 C
2217 04-03-2019 16:40:00 7.6 C 78 % 4.02 C
2218 04-03-2019 16:45:00 7.6 C 79 % 4.2 C
2219 04-03-2019 16:50:00 7.6 C 79 % 4.2 C
2220 04-03-2019 16:55:00 7.6 C 78 % 4.02 C
2221 04-03-2019 17:00:00 7.6 C 78 % 4.02 C
2222 04-03-2019 17:05:00 7.6 C 78 % 4.02 C
2223 04-03-2019 17:10:00 7.6 C 78 % 4.02 C
2224 04-03-2019 17:15:00 7.5 C 79 % 4.1 C
2225 04-03-2019 17:20:00 7.4 C 78 % 3.82 C
Sensor: Nr:Datum:Temp:Feuchte:Taupunkt:
Aussen-T/F 2226 04-03-2019 17:25:00 7.4 C 79 % 4 C
2227 04-03-2019 17:30:00 7.3 C 79 % 3.91 C
2228 04-03-2019 17:35:00 7.3 C 79 % 3.91 C
2229 04-03-2019 17:40:00 7.3 C 79 % 3.91 C
2230 04-03-2019 17:45:00 7.3 C 79 % 3.91 C
2231 04-03-2019 17:50:00 7.3 C 79 % 3.91 C
2232 04-03-2019 17:55:00 7.2 C 79 % 3.81 C
2233 04-03-2019 18:00:00 7.2 C 79 % 3.81 C
2234 04-03-2019 18:05:00 7.2 C 80 % 3.99 C
2235 04-03-2019 18:10:00 7.1 C 80 % 3.89 C
2236 04-03-2019 18:15:00 7 C 80 % 3.79 C
2237 04-03-2019 18:20:00 6.9 C 81 % 3.87 C
2238 04-03-2019 18:25:00 6.9 C 81 % 3.87 C
2239 04-03-2019 18:30:00 7 C 80 % 3.79 C
2240 04-03-2019 18:35:00 6.9 C 80 % 3.7 C
2241 04-03-2019 18:40:00 6.9 C 81 % 3.87 C
2242 04-03-2019 18:45:00 6.8 C 81 % 3.77 C
2243 04-03-2019 18:50:00 6.8 C 81 % 3.77 C
2244 04-03-2019 18:55:00 6.9 C 81 % 3.87 C
2245 04-03-2019 19:00:00 6.9 C 81 % 3.87 C
2246 04-03-2019 19:05:00 6.9 C 81 % 3.87 C
2247 04-03-2019 19:10:00 6.9 C 81 % 3.87 C
2248 04-03-2019 19:15:00 6.9 C 81 % 3.87 C
2249 04-03-2019 19:20:00 6.9 C 81 % 3.87 C
2250 04-03-2019 19:25:00 6.9 C 81 % 3.87 C
Sensor: Nr:Datum:Temp:Feuchte:Taupunkt:
Aussen-T/F 2251 04-03-2019 19:30:00 6.9 C 81 % 3.87 C
2252 04-03-2019 19:35:00 6.9 C 82 % 4.05 C
2253 04-03-2019 19:40:00 6.8 C 82 % 3.95 C
2254 04-03-2019 19:45:00 6.8 C 82 % 3.95 C
2255 04-03-2019 19:50:00 6.8 C 82 % 3.95 C
2256 04-03-2019 19:55:00 6.8 C 82 % 3.95 C
2257 04-03-2019 20:00:00 6.9 C 82 % 4.05 C
2258 04-03-2019 20:05:00 6.9 C 82 % 4.05 C
2259 04-03-2019 20:10:00 6.9 C 82 % 4.05 C
2260 04-03-2019 20:15:00 7 C 81 % 3.97 C
2261 04-03-2019 20:20:00 7.1 C 81 % 4.07 C
2262 04-03-2019 20:25:00 7.1 C 81 % 4.07 C
2263 04-03-2019 20:30:00 7.1 C 81 % 4.07 C
2264 04-03-2019 20:35:00 7.1 C 81 % 4.07 C
2265 04-03-2019 20:40:00 6.9 C 81 % 3.87 C
2266 04-03-2019 20:45:00 6.9 C 82 % 4.05 C
2267 04-03-2019 20:50:00 6.8 C 82 % 3.95 C
2268 04-03-2019 20:55:00 6.7 C 82 % 3.85 C
2269 04-03-2019 21:00:00 6.6 C 83 % 3.92 C
2270 04-03-2019 21:05:00 6.6 C 82 % 3.75 C
2271 04-03-2019 21:10:00 6.6 C 83 % 3.92 C
2272 04-03-2019 21:15:00 6.6 C 83 % 3.92 C
2273 04-03-2019 21:20:00 6.6 C 83 % 3.92 C
2274 04-03-2019 21:25:00 6.6 C 83 % 3.92 C
2275 04-03-2019 21:30:00 6.6 C 83 % 3.92 C
Sensor: Nr:Datum:Temp:Feuchte:Taupunkt:
Aussen-T/F 2276 04-03-2019 21:35:00 6.6 C 83 % 3.92 C
2277 04-03-2019 21:40:00 6.6 C 84 % 4.1 C
2278 04-03-2019 21:45:00 6.6 C 84 % 4.1 C
2279 04-03-2019 21:50:00 6.7 C 84 % 4.19 C
2280 04-03-2019 21:55:00 6.7 C 84 % 4.19 C
2281 04-03-2019 22:00:00 6.9 C 85 % 4.56 C
2282 04-03-2019 22:05:00 7 C 85 % 4.66 C
2283 04-03-2019 22:10:00 7.1 C 84 % 4.58 C
2284 04-03-2019 22:15:00 7.1 C 83 % 4.41 C
2285 04-03-2019 22:20:00 7.2 C 82 % 4.34 C
2286 04-03-2019 22:25:00 7.1 C 82 % 4.24 C
2287 04-03-2019 22:30:00 7.1 C 82 % 4.24 C
2288 04-03-2019 22:35:00 7.1 C 82 % 4.24 C
2289 04-03-2019 22:40:00 7.1 C 82 % 4.24 C
2290 04-03-2019 22:45:00 7.2 C 82 % 4.34 C
2291 04-03-2019 22:50:00 7.1 C 82 % 4.24 C
2292 04-03-2019 22:55:00 7.1 C 82 % 4.24 C
2293 04-03-2019 23:00:00 7.1 C 82 % 4.24 C
2294 04-03-2019 23:05:00 7.1 C 82 % 4.24 C
2295 04-03-2019 23:10:00 6.9 C 82 % 4.05 C
2296 04-03-2019 23:15:00 6.8 C 83 % 4.12 C
2297 04-03-2019 23:20:00 6.7 C 83 % 4.02 C
2298 04-03-2019 23:25:00 6.6 C 84 % 4.1 C
2299 04-03-2019 23:30:00 6.6 C 84 % 4.1 C
2300 04-03-2019 23:35:00 6.5 C 85 % 4.17 C
Sensor: Nr:Datum:Temp:Feuchte:Taupunkt:
Aussen-T/F 2301 04-03-2019 23:40:00 6.5 C 85 % 4.17 C
2302 04-03-2019 23:45:00 6.5 C 85 % 4.17 C
2303 04-03-2019 23:50:00 6.5 C 85 % 4.17 C
2304 04-03-2019 23:55:00 6.6 C 84 % 4.1 C
2305 05-03-2019 00:00:00 6.6 C 84 % 4.1 C
2306 05-03-2019 00:05:00 6.6 C 84 % 4.1 C
2307 05-03-2019 00:10:00 6.7 C 83 % 4.02 C
2308 05-03-2019 00:15:00 6.8 C 83 % 4.12 C
2309 05-03-2019 00:20:00 6.9 C 82 % 4.05 C
2310 05-03-2019 00:25:00 6.9 C 81 % 3.87 C
2311 05-03-2019 00:30:00 7 C 81 % 3.97 C
2312 05-03-2019 00:35:00 7 C 80 % 3.79 C
2313 05-03-2019 00:40:00 7 C 80 % 3.79 C
2314 05-03-2019 00:45:00 7 C 80 % 3.79 C
2315 05-03-2019 00:50:00 7 C 80 % 3.79 C
2316 05-03-2019 00:55:00 7 C 80 % 3.79 C
2317 05-03-2019 01:00:00 6.9 C 80 % 3.7 C
2318 05-03-2019 01:05:00 6.9 C 80 % 3.7 C
2319 05-03-2019 01:10:00 6.9 C 80 % 3.7 C
2320 05-03-2019 01:15:00 6.9 C 81 % 3.87 C
2321 05-03-2019 01:20:00 6.9 C 80 % 3.7 C
2322 05-03-2019 01:25:00 6.9 C 81 % 3.87 C
2323 05-03-2019 01:30:00 6.8 C 81 % 3.77 C
2324 05-03-2019 01:35:00 6.8 C 81 % 3.77 C
2325 05-03-2019 01:40:00 6.9 C 81 % 3.87 C
Sensor: Nr:Datum:Temp:Feuchte:Taupunkt:
Aussen-T/F 2326 05-03-2019 01:45:00 6.9 C 81 % 3.87 C
2327 05-03-2019 01:50:00 6.9 C 80 % 3.7 C
2328 05-03-2019 01:55:00 6.8 C 80 % 3.6 C
2329 05-03-2019 02:00:00 6.8 C 80 % 3.6 C
2330 05-03-2019 02:05:00 6.8 C 80 % 3.6 C
2331 05-03-2019 02:10:00 6.8 C 80 % 3.6 C
2332 05-03-2019 02:15:00 6.8 C 80 % 3.6 C
2333 05-03-2019 02:20:00 6.7 C 80 % 3.5 C
2334 05-03-2019 02:25:00 6.8 C 80 % 3.6 C
2335 05-03-2019 02:30:00 6.8 C 80 % 3.6 C
2336 05-03-2019 02:35:00 6.8 C 79 % 3.42 C
2337 05-03-2019 02:40:00 6.8 C 80 % 3.6 C
2338 05-03-2019 02:45:00 6.8 C 80 % 3.6 C
2339 05-03-2019 02:50:00 6.8 C 80 % 3.6 C
2340 05-03-2019 02:55:00 6.8 C 80 % 3.6 C
2341 05-03-2019 03:00:00 6.8 C 80 % 3.6 C
2342 05-03-2019 03:05:00 6.8 C 80 % 3.6 C
2343 05-03-2019 03:10:00 6.8 C 80 % 3.6 C
2344 05-03-2019 03:15:00 6.8 C 80 % 3.6 C
2345 05-03-2019 03:20:00 6.8 C 80 % 3.6 C
2346 05-03-2019 03:25:00 6.8 C 80 % 3.6 C
2347 05-03-2019 03:30:00 6.8 C 81 % 3.77 C
2348 05-03-2019 03:35:00 6.8 C 81 % 3.77 C
2349 05-03-2019 03:40:00 6.7 C 81 % 3.68 C
2350 05-03-2019 03:45:00 6.6 C 81 % 3.58 C
Sensor: Nr:Datum:Temp:Feuchte:Taupunkt:
Aussen-T/F 2351 05-03-2019 03:50:00 6.6 C 81 % 3.58 C
2352 05-03-2019 03:55:00 6.6 C 81 % 3.58 C
2353 05-03-2019 04:00:00 6.6 C 81 % 3.58 C
2354 05-03-2019 04:05:00 6.4 C 81 % 3.38 C
2355 05-03-2019 04:10:00 6.4 C 81 % 3.38 C
2356 05-03-2019 04:15:00 6.4 C 81 % 3.38 C
2357 05-03-2019 04:20:00 6.4 C 81 % 3.38 C
2358 05-03-2019 04:25:00 6.4 C 81 % 3.38 C
2359 05-03-2019 04:30:00 6.4 C 81 % 3.38 C
2360 05-03-2019 04:35:00 6.4 C 81 % 3.38 C
2361 05-03-2019 04:40:00 6.4 C 81 % 3.38 C
2362 05-03-2019 04:45:00 6.4 C 81 % 3.38 C
2363 05-03-2019 04:50:00 6.4 C 81 % 3.38 C
2364 05-03-2019 04:55:00 6.5 C 80 % 3.31 C
2365 05-03-2019 05:00:00 6.5 C 81 % 3.48 C
2366 05-03-2019 05:05:00 6.5 C 80 % 3.31 C
2367 05-03-2019 05:10:00 6.4 C 81 % 3.38 C
2368 05-03-2019 05:15:00 6.4 C 81 % 3.38 C
2369 05-03-2019 05:20:00 6.3 C 81 % 3.29 C
2370 05-03-2019 05:25:00 6.3 C 81 % 3.29 C
2371 05-03-2019 05:30:00 6.3 C 81 % 3.29 C
2372 05-03-2019 05:35:00 6.3 C 81 % 3.29 C
2373 05-03-2019 05:40:00 6.3 C 81 % 3.29 C
2374 05-03-2019 05:45:00 6.3 C 81 % 3.29 C
2375 05-03-2019 05:50:00 6.3 C 81 % 3.29 C
Sensor: Nr:Datum:Temp:Feuchte:Taupunkt:
Aussen-T/F 2376 05-03-2019 05:55:00 6.3 C 81 % 3.29 C
2377 05-03-2019 06:00:00 6.3 C 80 % 3.11 C
2378 05-03-2019 06:05:00 6.3 C 80 % 3.11 C
2379 05-03-2019 06:10:00 6.3 C 80 % 3.11 C
2380 05-03-2019 06:15:00 6.3 C 79 % 2.93 C
2381 05-03-2019 06:20:00 6.2 C 80 % 3.01 C
2382 05-03-2019 06:25:00 6.2 C 80 % 3.01 C
2383 05-03-2019 06:30:00 6.1 C 80 % 2.92 C
2384 05-03-2019 06:35:00 6.2 C 80 % 3.01 C
2385 05-03-2019 06:40:00 6.2 C 80 % 3.01 C
2386 05-03-2019 06:45:00 6.2 C 80 % 3.01 C
2387 05-03-2019 06:50:00 6.3 C 79 % 2.93 C
2388 05-03-2019 06:55:00 6.3 C 79 % 2.93 C
2389 05-03-2019 07:00:00 6.3 C 79 % 2.93 C
2390 05-03-2019 07:05:00 6.3 C 79 % 2.93 C
2391 05-03-2019 07:10:00 6.3 C 80 % 3.11 C
2392 05-03-2019 07:15:00 6.3 C 80 % 3.11 C
2393 05-03-2019 07:20:00 6.4 C 80 % 3.21 C
2394 05-03-2019 07:25:00 6.4 C 79 % 3.03 C
2395 05-03-2019 07:30:00 6.5 C 79 % 3.13 C
2396 05-03-2019 07:35:00 6.6 C 79 % 3.23 C
2397 05-03-2019 07:40:00 6.6 C 79 % 3.23 C
2398 05-03-2019 07:45:00 6.6 C 79 % 3.23 C
2399 05-03-2019 07:50:00 6.7 C 79 % 3.32 C
2400 05-03-2019 07:55:00 6.7 C 79 % 3.32 C
Sensor: Nr:Datum:Temp:Feuchte:Taupunkt:
Aussen-T/F 2401 05-03-2019 08:00:00 6.7 C 80 % 3.5 C
2402 05-03-2019 08:05:00 6.6 C 80 % 3.4 C
2403 05-03-2019 08:10:00 6.6 C 80 % 3.4 C
2404 05-03-2019 08:15:00 6.6 C 80 % 3.4 C
2405 05-03-2019 08:20:00 6.6 C 80 % 3.4 C
2406 05-03-2019 08:25:00 6.6 C 80 % 3.4 C
2407 05-03-2019 08:30:00 6.6 C 80 % 3.4 C
2408 05-03-2019 08:35:00 6.7 C 81 % 3.68 C
2409 05-03-2019 08:40:00 6.7 C 80 % 3.5 C
2410 05-03-2019 08:45:00 6.7 C 80 % 3.5 C
2411 05-03-2019 08:50:00 6.7 C 80 % 3.5 C
2412 05-03-2019 08:55:00 6.6 C 82 % 3.75 C
2413 05-03-2019 09:00:00 6.6 C 83 % 3.92 C
2414 05-03-2019 09:05:00 6.5 C 83 % 3.83 C
2415 05-03-2019 09:10:00 6.5 C 82 % 3.66 C
2416 05-03-2019 09:15:00 6.6 C 82 % 3.75 C
2417 05-03-2019 09:20:00 6.6 C 82 % 3.75 C
2418 05-03-2019 09:25:00 6.6 C 83 % 3.92 C
2419 05-03-2019 09:30:00 6.6 C 83 % 3.92 C
2420 05-03-2019 09:35:00 6.5 C 84 % 4 C
2421 05-03-2019 09:40:00 6.4 C 84 % 3.9 C
2422 05-03-2019 09:45:00 6.4 C 84 % 3.9 C
2423 05-03-2019 09:50:00 6.4 C 85 % 4.07 C
2424 05-03-2019 09:55:00 6.4 C 85 % 4.07 C
2425 05-03-2019 10:00:00 6.4 C 85 % 4.07 C
Sensor: Nr:Datum:Temp:Feuchte:Taupunkt:
Aussen-T/F 2426 05-03-2019 10:05:00 6.5 C 85 % 4.17 C
2427 05-03-2019 10:10:00 6.5 C 86 % 4.33 C
2428 05-03-2019 10:15:00 6.6 C 86 % 4.43 C
2429 05-03-2019 10:20:00 6.6 C 85 % 4.26 C
2430 05-03-2019 10:25:00 6.6 C 85 % 4.26 C
2431 05-03-2019 10:30:00 6.7 C 85 % 4.36 C
2432 05-03-2019 10:35:00 6.7 C 85 % 4.36 C
2433 05-03-2019 10:40:00 6.7 C 85 % 4.36 C
2434 05-03-2019 10:45:00 6.7 C 85 % 4.36 C
2435 05-03-2019 10:50:00 6.7 C 85 % 4.36 C
2436 05-03-2019 10:55:00 6.8 C 85 % 4.46 C
2437 05-03-2019 11:00:00 6.8 C 85 % 4.46 C
2438 05-03-2019 11:05:00 6.9 C 85 % 4.56 C
2439 05-03-2019 11:10:00 6.9 C 85 % 4.56 C
2440 05-03-2019 11:15:00 6.9 C 85 % 4.56 C
2441 05-03-2019 11:20:00 6.9 C 84 % 4.39 C
2442 05-03-2019 11:25:00 7 C 85 % 4.66 C
2443 05-03-2019 11:30:00 7 C 85 % 4.66 C
2444 05-03-2019 11:35:00 7 C 84 % 4.49 C
2445 05-03-2019 11:40:00 7.1 C 84 % 4.58 C
2446 05-03-2019 11:45:00 7.1 C 84 % 4.58 C
2447 05-03-2019 11:50:00 7.1 C 83 % 4.41 C
2448 05-03-2019 11:55:00 7.2 C 83 % 4.51 C
2449 05-03-2019 12:00:00 7.2 C 83 % 4.51 C
2450 05-03-2019 12:05:00 7.2 C 83 % 4.51 C
Sensor: Nr:Datum:Temp:Feuchte:Taupunkt:
Aussen-T/F 2451 05-03-2019 12:10:00 7.3 C 82 % 4.44 C
2452 05-03-2019 12:15:00 7.3 C 82 % 4.44 C
2453 05-03-2019 12:20:00 7.3 C 81 % 4.26 C
2454 05-03-2019 12:25:00 7.3 C 81 % 4.26 C
2455 05-03-2019 12:30:00 7.3 C 81 % 4.26 C
2456 05-03-2019 12:35:00 7.3 C 81 % 4.26 C
2457 05-03-2019 12:40:00 7.3 C 81 % 4.26 C
2458 05-03-2019 12:45:00 7.3 C 81 % 4.26 C
2459 05-03-2019 12:50:00 7.4 C 82 % 4.53 C
2460 05-03-2019 12:55:00 7.4 C 81 % 4.36 C
2461 05-03-2019 13:00:00 7.5 C 81 % 4.46 C
2462 05-03-2019 13:05:00 7.6 C 81 % 4.55 C
2463 05-03-2019 13:10:00 7.7 C 81 % 4.65 C
2464 05-03-2019 13:15:00 7.8 C 80 % 4.57 C
2465 05-03-2019 13:20:00 7.9 C 80 % 4.67 C
2466 05-03-2019 13:25:00 8 C 80 % 4.77 C
2467 05-03-2019 13:30:00 8.1 C 80 % 4.86 C
2468 05-03-2019 13:35:00 8.1 C 79 % 4.68 C
2469 05-03-2019 13:40:00 8.2 C 79 % 4.78 C
2470 05-03-2019 13:45:00 8.2 C 79 % 4.78 C
2471 05-03-2019 13:50:00 8.2 C 79 % 4.78 C
2472 05-03-2019 13:55:00 8.3 C 78 % 4.7 C
2473 05-03-2019 14:00:00 8.3 C 78 % 4.7 C
2474 05-03-2019 14:05:00 8.3 C 78 % 4.7 C
2475 05-03-2019 14:10:00 8.5 C 78 % 4.89 C
Sensor: Nr:Datum:Temp:Feuchte:Taupunkt:
Aussen-T/F 2476 05-03-2019 14:15:00 8.6 C 78 % 4.99 C
2477 05-03-2019 14:20:00 8.7 C 78 % 5.08 C
2478 05-03-2019 14:25:00 8.7 C 78 % 5.08 C
2479 05-03-2019 14:30:00 8.7 C 78 % 5.08 C
2480 05-03-2019 14:35:00 8.8 C 77 % 5 C
2481 05-03-2019 14:40:00 8.8 C 77 % 5 C
2482 05-03-2019 14:45:00 8.8 C 77 % 5 C
2483 05-03-2019 14:50:00 8.8 C 76 % 4.81 C
2484 05-03-2019 14:55:00 8.8 C 77 % 5 C
2485 05-03-2019 15:00:00 8.8 C 76 % 4.81 C
2486 05-03-2019 15:05:00 8.8 C 76 % 4.81 C
2487 05-03-2019 15:10:00 8.8 C 76 % 4.81 C
2488 05-03-2019 15:15:00 8.9 C 76 % 4.91 C
2489 05-03-2019 15:20:00 8.8 C 76 % 4.81 C
2490 05-03-2019 15:25:00 8.9 C 76 % 4.91 C
2491 05-03-2019 15:30:00 9 C 75 % 4.81 C
2492 05-03-2019 15:35:00 9.1 C 74 % 4.72 C
2493 05-03-2019 15:40:00 9.1 C 73 % 4.52 C
2494 05-03-2019 15:45:00 9.1 C 73 % 4.52 C
2495 05-03-2019 15:50:00 9.1 C 74 % 4.72 C
2496 05-03-2019 15:55:00 9.1 C 74 % 4.72 C
2497 05-03-2019 16:00:00 9.1 C 75 % 4.91 C
2498 05-03-2019 16:05:00 9.1 C 76 % 5.1 C
2499 05-03-2019 16:10:00 9.2 C 76 % 5.2 C
2500 05-03-2019 16:15:00 9.5 C 74 % 5.1 C
Sensor: Nr:Datum:Temp:Feuchte:Taupunkt:
Aussen-T/F 2501 05-03-2019 16:20:00 9.9 C 72 % 5.1 C
2502 05-03-2019 16:25:00 10.1 C 71 % 5.09 C
2503 05-03-2019 16:30:00 10.1 C 71 % 5.09 C
2504 05-03-2019 16:35:00 10.1 C 71 % 5.09 C
2505 05-03-2019 16:40:00 10.1 C 72 % 5.29 C
2506 05-03-2019 16:45:00 10.1 C 72 % 5.29 C
2507 05-03-2019 16:50:00 10.2 C 71 % 5.18 C
2508 05-03-2019 16:55:00 10.3 C 72 % 5.48 C
2509 05-03-2019 17:00:00 10.3 C 71 % 5.28 C
2510 05-03-2019 17:05:00 10.1 C 72 % 5.29 C
2511 05-03-2019 17:10:00 10.1 C 72 % 5.29 C
2512 05-03-2019 17:15:00 10.1 C 73 % 5.49 C
2513 05-03-2019 17:20:00 10 C 71 % 4.99 C
2514 05-03-2019 17:25:00 9.7 C 72 % 4.9 C
2515 05-03-2019 17:30:00 9.3 C 74 % 4.91 C
2516 05-03-2019 17:35:00 9.1 C 75 % 4.91 C
2517 05-03-2019 17:40:00 8.7 C 76 % 4.71 C
2518 05-03-2019 17:45:00 8.4 C 77 % 4.61 C
2519 05-03-2019 17:50:00 8.2 C 78 % 4.6 C
2520 05-03-2019 17:55:00 8.1 C 79 % 4.68 C
2521 05-03-2019 18:00:00 7.8 C 79 % 4.39 C
2522 05-03-2019 18:05:00 7.7 C 80 % 4.47 C
2523 05-03-2019 18:10:00 7.5 C 80 % 4.28 C
2524 05-03-2019 18:15:00 7.3 C 81 % 4.26 C
2525 05-03-2019 18:20:00 7.2 C 81 % 4.16 C
Sensor: Nr:Datum:Temp:Feuchte:Taupunkt:
Aussen-T/F 2526 05-03-2019 18:25:00 7.1 C 81 % 4.07 C
2527 05-03-2019 18:30:00 7 C 81 % 3.97 C
2528 05-03-2019 18:35:00 6.9 C 81 % 3.87 C
2529 05-03-2019 18:40:00 6.8 C 81 % 3.77 C
2530 05-03-2019 18:45:00 6.8 C 81 % 3.77 C
2531 05-03-2019 18:50:00 6.8 C 81 % 3.77 C
2532 05-03-2019 18:55:00 6.7 C 81 % 3.68 C
2533 05-03-2019 19:00:00 6.7 C 82 % 3.85 C
2534 05-03-2019 19:05:00 6.6 C 82 % 3.75 C
2535 05-03-2019 19:10:00 6.7 C 82 % 3.85 C
2536 05-03-2019 19:15:00 6.7 C 82 % 3.85 C
2537 05-03-2019 19:20:00 6.6 C 82 % 3.75 C
2538 05-03-2019 19:25:00 6.6 C 82 % 3.75 C
2539 05-03-2019 19:30:00 6.6 C 83 % 3.92 C
2540 05-03-2019 19:35:00 6.6 C 83 % 3.92 C
2541 05-03-2019 19:40:00 6.4 C 83 % 3.73 C
2542 05-03-2019 19:45:00 6.4 C 83 % 3.73 C
2543 05-03-2019 19:50:00 6.4 C 83 % 3.73 C
2544 05-03-2019 19:55:00 6.3 C 83 % 3.63 C
2545 05-03-2019 20:00:00 6.3 C 83 % 3.63 C
2546 05-03-2019 20:05:00 6.2 C 83 % 3.53 C
2547 05-03-2019 20:10:00 6 C 84 % 3.51 C
2548 05-03-2019 20:15:00 5.8 C 84 % 3.31 C
2549 05-03-2019 20:20:00 5.7 C 84 % 3.21 C
2550 05-03-2019 20:25:00 5.5 C 85 % 3.18 C
Sensor: Nr:Datum:Temp:Feuchte:Taupunkt:
Aussen-T/F 2551 05-03-2019 20:30:00 5.3 C 85 % 2.99 C
2552 05-03-2019 20:35:00 5.2 C 86 % 3.05 C
2553 05-03-2019 20:40:00 5.1 C 87 % 3.12 C
2554 05-03-2019 20:45:00 5 C 87 % 3.02 C
2555 05-03-2019 20:50:00 4.8 C 87 % 2.82 C
2556 05-03-2019 20:55:00 4.7 C 87 % 2.73 C
2557 05-03-2019 21:00:00 4.6 C 87 % 2.63 C
2558 05-03-2019 21:05:00 4.4 C 88 % 2.59 C
2559 05-03-2019 21:10:00 4.3 C 88 % 2.49 C
2560 05-03-2019 21:15:00 4.2 C 88 % 2.39 C
2561 05-03-2019 21:20:00 4.2 C 89 % 2.55 C
2562 05-03-2019 21:25:00 4.2 C 90 % 2.71 C
2563 05-03-2019 21:30:00 4.2 C 90 % 2.71 C
2564 05-03-2019 21:35:00 4.2 C 90 % 2.71 C
2565 05-03-2019 21:40:00 4.2 C 91 % 2.87 C
2566 05-03-2019 21:45:00 4.2 C 91 % 2.87 C
2567 05-03-2019 21:50:00 4.3 C 91 % 2.96 C
2568 05-03-2019 21:55:00 4.3 C 91 % 2.96 C
2569 05-03-2019 22:00:00 4.3 C 92 % 3.12 C
2570 05-03-2019 22:05:00 4.4 C 92 % 3.22 C
2571 05-03-2019 22:10:00 4.6 C 92 % 3.42 C
2572 05-03-2019 22:15:00 4.7 C 92 % 3.51 C
2573 05-03-2019 22:20:00 4.7 C 92 % 3.51 C
2574 05-03-2019 22:25:00 4.8 C 92 % 3.61 C
2575 05-03-2019 22:30:00 4.8 C 92 % 3.61 C
Sensor: Nr:Datum:Temp:Feuchte:Taupunkt:
Aussen-T/F 2576 05-03-2019 22:35:00 4.8 C 92 % 3.61 C
2577 05-03-2019 22:40:00 4.8 C 92 % 3.61 C
2578 05-03-2019 22:45:00 4.8 C 92 % 3.61 C
2579 05-03-2019 22:50:00 4.9 C 92 % 3.71 C
2580 05-03-2019 22:55:00 4.9 C 92 % 3.71 C
2581 05-03-2019 23:00:00 4.9 C 92 % 3.71 C
2582 05-03-2019 23:05:00 5 C 92 % 3.81 C
2583 05-03-2019 23:10:00 5.1 C 92 % 3.91 C
2584 05-03-2019 23:15:00 5.2 C 92 % 4.01 C
2585 05-03-2019 23:20:00 5.2 C 92 % 4.01 C
2586 05-03-2019 23:25:00 5.3 C 92 % 4.11 C
2587 05-03-2019 23:30:00 5.4 C 92 % 4.21 C
2588 05-03-2019 23:35:00 5.4 C 92 % 4.21 C
2589 05-03-2019 23:40:00 5.4 C 92 % 4.21 C
2590 05-03-2019 23:45:00 5.4 C 92 % 4.21 C
2591 05-03-2019 23:50:00 5.4 C 92 % 4.21 C
2592 05-03-2019 23:55:00 5.5 C 92 % 4.31 C
2593 06-03-2019 00:00:00 5.5 C 92 % 4.31 C
2594 06-03-2019 00:05:00 5.5 C 92 % 4.31 C
2595 06-03-2019 00:10:00 5.5 C 92 % 4.31 C
2596 06-03-2019 00:15:00 5.6 C 92 % 4.41 C
2597 06-03-2019 00:20:00 5.6 C 92 % 4.41 C
2598 06-03-2019 00:25:00 5.6 C 92 % 4.41 C
2599 06-03-2019 00:30:00 5.7 C 91 % 4.35 C
2600 06-03-2019 00:35:00 5.7 C 91 % 4.35 C
Sensor: Nr:Datum:Temp:Feuchte:Taupunkt:
Aussen-T/F 2601 06-03-2019 00:40:00 5.7 C 91 % 4.35 C
2602 06-03-2019 00:45:00 5.7 C 91 % 4.35 C
2603 06-03-2019 00:50:00 5.8 C 92 % 4.6 C
2604 06-03-2019 00:55:00 5.9 C 92 % 4.7 C
2605 06-03-2019 01:00:00 5.9 C 92 % 4.7 C
2606 06-03-2019 01:05:00 6.1 C 92 % 4.9 C
2607 06-03-2019 01:10:00 6.1 C 92 % 4.9 C
2608 06-03-2019 01:15:00 6.1 C 91 % 4.74 C
2609 06-03-2019 01:20:00 6.1 C 91 % 4.74 C
2610 06-03-2019 01:25:00 6.1 C 91 % 4.74 C
2611 06-03-2019 01:30:00 6.1 C 91 % 4.74 C
2612 06-03-2019 01:35:00 6.1 C 91 % 4.74 C
2613 06-03-2019 01:40:00 6.1 C 92 % 4.9 C
2614 06-03-2019 01:45:00 6.2 C 92 % 5 C
2615 06-03-2019 01:50:00 6.4 C 92 % 5.2 C
2616 06-03-2019 01:55:00 6.5 C 92 % 5.3 C
2617 06-03-2019 02:00:00 6.7 C 91 % 5.34 C
2618 06-03-2019 02:05:00 6.8 C 91 % 5.44 C
2619 06-03-2019 02:10:00 6.8 C 91 % 5.44 C
2620 06-03-2019 02:15:00 6.9 C 90 % 5.38 C
2621 06-03-2019 02:20:00 7 C 90 % 5.48 C
2622 06-03-2019 02:25:00 7.1 C 90 % 5.57 C
2623 06-03-2019 02:30:00 7.1 C 90 % 5.57 C
2624 06-03-2019 02:35:00 7.2 C 89 % 5.51 C
2625 06-03-2019 02:40:00 7.2 C 89 % 5.51 C
Sensor: Nr:Datum:Temp:Feuchte:Taupunkt:
Aussen-T/F 2626 06-03-2019 02:45:00 7.2 C 89 % 5.51 C
2627 06-03-2019 02:50:00 7.2 C 89 % 5.51 C
2628 06-03-2019 02:55:00 7.2 C 89 % 5.51 C
2629 06-03-2019 03:00:00 7.2 C 89 % 5.51 C
2630 06-03-2019 03:05:00 7.2 C 89 % 5.51 C
2631 06-03-2019 03:10:00 7.2 C 89 % 5.51 C
2632 06-03-2019 03:15:00 7.1 C 89 % 5.41 C
2633 06-03-2019 03:20:00 7.1 C 89 % 5.41 C
2634 06-03-2019 03:25:00 7 C 89 % 5.31 C
2635 06-03-2019 03:30:00 6.9 C 90 % 5.38 C
2636 06-03-2019 03:35:00 6.9 C 90 % 5.38 C
2637 06-03-2019 03:40:00 6.9 C 90 % 5.38 C
2638 06-03-2019 03:45:00 6.9 C 90 % 5.38 C
2639 06-03-2019 03:50:00 6.8 C 90 % 5.28 C
2640 06-03-2019 03:55:00 6.8 C 90 % 5.28 C
2641 06-03-2019 04:00:00 6.8 C 91 % 5.44 C
2642 06-03-2019 04:05:00 6.8 C 91 % 5.44 C
2643 06-03-2019 04:10:00 6.8 C 91 % 5.44 C
2644 06-03-2019 04:15:00 6.8 C 91 % 5.44 C
2645 06-03-2019 04:20:00 6.7 C 91 % 5.34 C
2646 06-03-2019 04:25:00 6.7 C 91 % 5.34 C
2647 06-03-2019 04:30:00 6.6 C 91 % 5.24 C
2648 06-03-2019 04:35:00 6.7 C 91 % 5.34 C
2649 06-03-2019 04:40:00 6.8 C 92 % 5.59 C
2650 06-03-2019 04:45:00 6.9 C 91 % 5.54 C
Sensor: Nr:Datum:Temp:Feuchte:Taupunkt:
Aussen-T/F 2651 06-03-2019 04:50:00 7.1 C 91 % 5.73 C
2652 06-03-2019 04:55:00 7.1 C 90 % 5.57 C
2653 06-03-2019 05:00:00 7.2 C 90 % 5.67 C
2654 06-03-2019 05:05:00 7.2 C 90 % 5.67 C
2655 06-03-2019 05:10:00 7.3 C 90 % 5.77 C
2656 06-03-2019 05:15:00 7.3 C 89 % 5.61 C
2657 06-03-2019 05:20:00 7.3 C 89 % 5.61 C
2658 06-03-2019 05:25:00 7.3 C 89 % 5.61 C
2659 06-03-2019 05:30:00 7.2 C 89 % 5.51 C
2660 06-03-2019 05:35:00 7.2 C 89 % 5.51 C
2661 06-03-2019 05:40:00 7.1 C 89 % 5.41 C
2662 06-03-2019 05:45:00 7.1 C 89 % 5.41 C
2663 06-03-2019 05:50:00 7 C 89 % 5.31 C
2664 06-03-2019 05:55:00 6.9 C 89 % 5.22 C
2665 06-03-2019 06:00:00 6.8 C 89 % 5.12 C
2666 06-03-2019 06:05:00 6.8 C 90 % 5.28 C
2667 06-03-2019 06:10:00 6.8 C 90 % 5.28 C
2668 06-03-2019 06:15:00 6.8 C 90 % 5.28 C
2669 06-03-2019 06:20:00 6.7 C 89 % 5.02 C
2670 06-03-2019 06:25:00 6.6 C 89 % 4.92 C
2671 06-03-2019 06:30:00 6.4 C 89 % 4.72 C
2672 06-03-2019 06:35:00 6.2 C 89 % 4.53 C
2673 06-03-2019 06:40:00 6 C 89 % 4.33 C
2674 06-03-2019 06:45:00 5.9 C 90 % 4.39 C
2675 06-03-2019 06:50:00 5.9 C 91 % 4.55 C
Sensor: Nr:Datum:Temp:Feuchte:Taupunkt:
Aussen-T/F 2676 06-03-2019 06:55:00 6 C 91 % 4.65 C
2677 06-03-2019 07:00:00 5.9 C 90 % 4.39 C
2678 06-03-2019 07:05:00 5.8 C 90 % 4.29 C
2679 06-03-2019 07:10:00 5.6 C 90 % 4.09 C
2680 06-03-2019 07:15:00 5.4 C 90 % 3.89 C
2681 06-03-2019 07:20:00 5.4 C 91 % 4.05 C
2682 06-03-2019 07:25:00 5.3 C 91 % 3.95 C
2683 06-03-2019 07:30:00 5.3 C 92 % 4.11 C
2684 06-03-2019 07:35:00 5.3 C 92 % 4.11 C
2685 06-03-2019 07:40:00 5.3 C 92 % 4.11 C
2686 06-03-2019 07:45:00 5.3 C 92 % 4.11 C
2687 06-03-2019 07:50:00 5.3 C 92 % 4.11 C
2688 06-03-2019 07:55:00 5.4 C 93 % 4.36 C
2689 06-03-2019 08:00:00 5.4 C 93 % 4.36 C
2690 06-03-2019 08:05:00 5.6 C 93 % 4.56 C
2691 06-03-2019 08:10:00 5.8 C 93 % 4.76 C
2692 06-03-2019 08:15:00 5.9 C 93 % 4.86 C
2693 06-03-2019 08:20:00 6.1 C 93 % 5.06 C
2694 06-03-2019 08:25:00 6.3 C 92 % 5.1 C
2695 06-03-2019 08:30:00 6.5 C 91 % 5.14 C
2696 06-03-2019 08:35:00 6.7 C 91 % 5.34 C
2697 06-03-2019 08:40:00 6.9 C 90 % 5.38 C
2698 06-03-2019 08:45:00 7.2 C 88 % 5.35 C
2699 06-03-2019 08:50:00 7.3 C 88 % 5.45 C
2700 06-03-2019 08:55:00 7.5 C 87 % 5.48 C
Sensor: Nr:Datum:Temp:Feuchte:Taupunkt:
Aussen-T/F 2701 06-03-2019 09:00:00 7.6 C 86 % 5.41 C
2702 06-03-2019 09:05:00 7.7 C 86 % 5.51 C
2703 06-03-2019 09:10:00 7.8 C 86 % 5.61 C
2704 06-03-2019 09:15:00 7.9 C 85 % 5.54 C
2705 06-03-2019 09:20:00 8 C 85 % 5.64 C
2706 06-03-2019 09:25:00 8.1 C 85 % 5.73 C
2707 06-03-2019 09:30:00 8.2 C 84 % 5.66 C
2708 06-03-2019 09:35:00 8.3 C 84 % 5.76 C
2709 06-03-2019 09:40:00 8.4 C 83 % 5.69 C
2710 06-03-2019 09:45:00 8.5 C 83 % 5.78 C
2711 06-03-2019 09:50:00 8.6 C 83 % 5.88 C
2712 06-03-2019 09:55:00 8.8 C 82 % 5.9 C
2713 06-03-2019 10:00:00 8.9 C 82 % 6 C
2714 06-03-2019 10:05:00 9.2 C 81 % 6.11 C
2715 06-03-2019 10:10:00 9.3 C 80 % 6.03 C
2716 06-03-2019 10:15:00 9.6 C 79 % 6.14 C
2717 06-03-2019 10:20:00 9.7 C 78 % 6.06 C
2718 06-03-2019 10:25:00 9.9 C 77 % 6.06 C
2719 06-03-2019 10:30:00 10.2 C 76 % 6.16 C
2720 06-03-2019 10:35:00 10.4 C 73 % 5.78 C
2721 06-03-2019 10:40:00 10.6 C 73 % 5.97 C
2722 06-03-2019 10:45:00 10.7 C 73 % 6.07 C
2723 06-03-2019 10:50:00 10.8 C 72 % 5.96 C
2724 06-03-2019 10:55:00 10.8 C 72 % 5.96 C
2725 06-03-2019 11:00:00 10.9 C 71 % 5.86 C
Sensor: Nr:Datum:Temp:Feuchte:Taupunkt:
Aussen-T/F 2726 06-03-2019 11:05:00 11.1 C 70 % 5.84 C
2727 06-03-2019 11:10:00 11.3 C 69 % 5.83 C
2728 06-03-2019 11:15:00 11.6 C 68 % 5.9 C
2729 06-03-2019 11:20:00 11.8 C 67 % 5.88 C
2730 06-03-2019 11:25:00 12.1 C 66 % 5.95 C
2731 06-03-2019 11:30:00 12.4 C 65 % 6.01 C
2732 06-03-2019 11:35:00 12.7 C 64 % 6.07 C
2733 06-03-2019 11:40:00 13 C 62 % 5.9 C
2734 06-03-2019 11:45:00 13.3 C 61 % 5.95 C
2735 06-03-2019 11:50:00 13.5 C 62 % 6.37 C
2736 06-03-2019 11:55:00 13.6 C 60 % 5.99 C
2737 06-03-2019 12:00:00 13.6 C 59 % 5.75 C
2738 06-03-2019 12:05:00 13.5 C 58 % 5.41 C
2739 06-03-2019 12:10:00 13.4 C 59 % 5.56 C
2740 06-03-2019 12:15:00 13.4 C 59 % 5.56 C
2741 06-03-2019 12:20:00 13.3 C 58 % 5.22 C
2742 06-03-2019 12:25:00 13.4 C 60 % 5.8 C
2743 06-03-2019 12:30:00 13.3 C 58 % 5.22 C
2744 06-03-2019 12:35:00 13.2 C 59 % 5.37 C
2745 06-03-2019 12:40:00 13.2 C 59 % 5.37 C
2746 06-03-2019 12:45:00 13.2 C 59 % 5.37 C
2747 06-03-2019 12:50:00 13.1 C 61 % 5.76 C
2748 06-03-2019 12:55:00 13.2 C 62 % 6.09 C
2749 06-03-2019 13:00:00 13.2 C 61 % 5.85 C
2750 06-03-2019 13:05:00 13.2 C 59 % 5.37 C
Sensor: Nr:Datum:Temp:Feuchte:Taupunkt:
Aussen-T/F 2751 06-03-2019 13:10:00 13.3 C 60 % 5.71 C
2752 06-03-2019 13:15:00 13.3 C 63 % 6.41 C
2753 06-03-2019 13:20:00 13.4 C 61 % 6.04 C
2754 06-03-2019 13:25:00 13.4 C 60 % 5.8 C
2755 06-03-2019 13:30:00 13.4 C 61 % 6.04 C
2756 06-03-2019 13:35:00 13.4 C 60 % 5.8 C
2757 06-03-2019 13:40:00 13.4 C 62 % 6.28 C
2758 06-03-2019 13:45:00 13.4 C 60 % 5.8 C
2759 06-03-2019 13:50:00 13.5 C 62 % 6.37 C
2760 06-03-2019 13:55:00 13.6 C 63 % 6.7 C
2761 06-03-2019 14:00:00 13.6 C 63 % 6.7 C
2762 06-03-2019 14:05:00 13.6 C 61 % 6.23 C
2763 06-03-2019 14:10:00 13.6 C 62 % 6.47 C
2764 06-03-2019 14:15:00 13.5 C 62 % 6.37 C
2765 06-03-2019 14:20:00 13.5 C 62 % 6.37 C
2766 06-03-2019 14:25:00 13.5 C 62 % 6.37 C
2767 06-03-2019 14:30:00 13.5 C 62 % 6.37 C
2768 06-03-2019 14:35:00 13.6 C 63 % 6.7 C
2769 06-03-2019 14:40:00 13.8 C 62 % 6.65 C
2770 06-03-2019 14:45:00 13.9 C 61 % 6.51 C
2771 06-03-2019 14:50:00 14.1 C 61 % 6.7 C
2772 06-03-2019 14:55:00 14.2 C 60 % 6.56 C
2773 06-03-2019 15:00:00 14.3 C 60 % 6.65 C
2774 06-03-2019 15:05:00 14.4 C 61 % 6.98 C
2775 06-03-2019 15:10:00 14.4 C 60 % 6.74 C
Sensor: Nr:Datum:Temp:Feuchte:Taupunkt:
Aussen-T/F 2776 06-03-2019 15:15:00 14.5 C 60 % 6.84 C
2777 06-03-2019 15:20:00 14.6 C 59 % 6.69 C
2778 06-03-2019 15:25:00 14.6 C 58 % 6.44 C
2779 06-03-2019 15:30:00 14.6 C 57 % 6.19 C
2780 06-03-2019 15:35:00 14.6 C 59 % 6.69 C
2781 06-03-2019 15:40:00 14.7 C 59 % 6.78 C
2782 06-03-2019 15:45:00 14.7 C 58 % 6.53 C
2783 06-03-2019 15:50:00 14.7 C 58 % 6.53 C
2784 06-03-2019 15:55:00 14.7 C 56 % 6.02 C
2785 06-03-2019 16:00:00 14.8 C 55 % 5.86 C
2786 06-03-2019 16:05:00 15 C 54 % 5.78 C
2787 06-03-2019 16:10:00 15.1 C 56 % 6.4 C
2788 06-03-2019 16:15:00 15.2 C 56 % 6.49 C
2789 06-03-2019 16:20:00 15.2 C 55 % 6.23 C
2790 06-03-2019 16:25:00 15.3 C 55 % 6.32 C
2791 06-03-2019 16:30:00 15.4 C 53 % 5.88 C
2792 06-03-2019 16:35:00 15.4 C 54 % 6.15 C
2793 06-03-2019 16:40:00 15.4 C 56 % 6.68 C
2794 06-03-2019 16:45:00 15.4 C 62 % 8.16 C
2795 06-03-2019 16:50:00 15.2 C 64 % 8.44 C
2796 06-03-2019 16:55:00 14.9 C 69 % 9.27 C
2797 06-03-2019 17:00:00 14.6 C 70 % 9.2 C
2798 06-03-2019 17:05:00 14.3 C 71 % 9.12 C
2799 06-03-2019 17:10:00 14.1 C 71 % 8.93 C
2800 06-03-2019 17:15:00 13.9 C 72 % 8.94 C
Sensor: Nr:Datum:Temp:Feuchte:Taupunkt:
Aussen-T/F 2801 06-03-2019 17:20:00 13.8 C 68 % 8 C
2802 06-03-2019 17:25:00 13.7 C 67 % 7.69 C
2803 06-03-2019 17:30:00 13.8 C 66 % 7.57 C
2804 06-03-2019 17:35:00 13.8 C 66 % 7.57 C
2805 06-03-2019 17:40:00 13.8 C 66 % 7.57 C
2806 06-03-2019 17:45:00 13.8 C 67 % 7.79 C
2807 06-03-2019 17:50:00 13.8 C 67 % 7.79 C
2808 06-03-2019 17:55:00 13.8 C 68 % 8 C
2809 06-03-2019 18:00:00 13.7 C 69 % 8.12 C
2810 06-03-2019 18:05:00 13.6 C 70 % 8.24 C
2811 06-03-2019 18:10:00 13.4 C 70 % 8.05 C
2812 06-03-2019 18:15:00 13.3 C 70 % 7.95 C
2813 06-03-2019 18:20:00 13.2 C 71 % 8.06 C
2814 06-03-2019 18:25:00 13.1 C 73 % 8.38 C
2815 06-03-2019 18:30:00 12.9 C 74 % 8.38 C
2816 06-03-2019 18:35:00 12.7 C 74 % 8.19 C
2817 06-03-2019 18:40:00 12.6 C 75 % 8.29 C
2818 06-03-2019 18:45:00 12.6 C 74 % 8.09 C
2819 06-03-2019 18:50:00 12.5 C 75 % 8.19 C
2820 06-03-2019 18:55:00 12.5 C 76 % 8.39 C
2821 06-03-2019 19:00:00 12.4 C 77 % 8.49 C
2822 06-03-2019 19:05:00 12.2 C 79 % 8.67 C
2823 06-03-2019 19:10:00 12 C 77 % 8.1 C
2824 06-03-2019 19:15:00 12 C 79 % 8.48 C
2825 06-03-2019 19:20:00 11.9 C 81 % 8.75 C
Sensor: Nr:Datum:Temp:Feuchte:Taupunkt:
Aussen-T/F 2826 06-03-2019 19:25:00 11.7 C 82 % 8.73 C
2827 06-03-2019 19:30:00 11.5 C 82 % 8.54 C
2828 06-03-2019 19:35:00 11.4 C 83 % 8.62 C
2829 06-03-2019 19:40:00 11.3 C 83 % 8.52 C
2830 06-03-2019 19:45:00 11.3 C 84 % 8.7 C
2831 06-03-2019 19:50:00 11.2 C 84 % 8.6 C
2832 06-03-2019 19:55:00 11 C 84 % 8.4 C
2833 06-03-2019 20:00:00 11 C 84 % 8.4 C
2834 06-03-2019 20:05:00 10.9 C 84 % 8.31 C
2835 06-03-2019 20:10:00 10.9 C 84 % 8.31 C
2836 06-03-2019 20:15:00 10.8 C 85 % 8.38 C
2837 06-03-2019 20:20:00 10.7 C 85 % 8.28 C
2838 06-03-2019 20:25:00 10.6 C 85 % 8.19 C
2839 06-03-2019 20:30:00 10.6 C 85 % 8.19 C
2840 06-03-2019 20:35:00 10.6 C 85 % 8.19 C
2841 06-03-2019 20:40:00 10.5 C 85 % 8.09 C
2842 06-03-2019 20:45:00 10.4 C 85 % 7.99 C
2843 06-03-2019 20:50:00 10.4 C 85 % 7.99 C
2844 06-03-2019 20:55:00 10.4 C 86 % 8.16 C
2845 06-03-2019 21:00:00 10.4 C 85 % 7.99 C
2846 06-03-2019 21:05:00 10.6 C 84 % 8.01 C
2847 06-03-2019 21:10:00 10.7 C 85 % 8.28 C
2848 06-03-2019 21:15:00 10.7 C 84 % 8.11 C
2849 06-03-2019 21:20:00 10.7 C 84 % 8.11 C
2850 06-03-2019 21:25:00 10.7 C 84 % 8.11 C
Sensor: Nr:Datum:Temp:Feuchte:Taupunkt:
Aussen-T/F 2851 06-03-2019 21:30:00 10.8 C 83 % 8.03 C
2852 06-03-2019 21:35:00 10.8 C 84 % 8.21 C
2853 06-03-2019 21:40:00 10.7 C 84 % 8.11 C
2854 06-03-2019 21:45:00 10.7 C 84 % 8.11 C
2855 06-03-2019 21:50:00 10.7 C 84 % 8.11 C
2856 06-03-2019 21:55:00 10.6 C 84 % 8.01 C
2857 06-03-2019 22:00:00 10.6 C 85 % 8.19 C
2858 06-03-2019 22:05:00 10.6 C 84 % 8.01 C
2859 06-03-2019 22:10:00 10.6 C 85 % 8.19 C
2860 06-03-2019 22:15:00 10.6 C 84 % 8.01 C
2861 06-03-2019 22:20:00 10.7 C 84 % 8.11 C
2862 06-03-2019 22:25:00 10.7 C 84 % 8.11 C
2863 06-03-2019 22:30:00 10.7 C 84 % 8.11 C
2864 06-03-2019 22:35:00 10.7 C 84 % 8.11 C
2865 06-03-2019 22:40:00 10.7 C 84 % 8.11 C
2866 06-03-2019 22:45:00 10.7 C 84 % 8.11 C
2867 06-03-2019 22:50:00 10.7 C 84 % 8.11 C
2868 06-03-2019 22:55:00 10.7 C 84 % 8.11 C
2869 06-03-2019 23:00:00 10.7 C 84 % 8.11 C
2870 06-03-2019 23:05:00 10.8 C 84 % 8.21 C
2871 06-03-2019 23:10:00 10.8 C 84 % 8.21 C
2872 06-03-2019 23:15:00 10.8 C 83 % 8.03 C
2873 06-03-2019 23:20:00 10.9 C 81 % 7.77 C
2874 06-03-2019 23:25:00 11.1 C 81 % 7.97 C
2875 06-03-2019 23:30:00 11.2 C 80 % 7.88 C
Sensor: Nr:Datum:Temp:Feuchte:Taupunkt:
Aussen-T/F 2876 06-03-2019 23:35:00 11.4 C 80 % 8.08 C
2877 06-03-2019 23:40:00 11.5 C 80 % 8.17 C
2878 06-03-2019 23:45:00 11.6 C 79 % 8.09 C
2879 06-03-2019 23:50:00 11.7 C 79 % 8.18 C
2880 06-03-2019 23:55:00 11.6 C 81 % 8.45 C
2881 07-03-2019 00:00:00 11.4 C 81 % 8.26 C
2882 07-03-2019 00:05:00 11.3 C 82 % 8.34 C
2883 07-03-2019 00:10:00 11.1 C 83 % 8.33 C
2884 07-03-2019 00:15:00 11.1 C 83 % 8.33 C
2885 07-03-2019 00:20:00 11.1 C 82 % 8.15 C
2886 07-03-2019 00:25:00 11.2 C 83 % 8.42 C
2887 07-03-2019 00:30:00 11.2 C 84 % 8.6 C
2888 07-03-2019 00:35:00 11.1 C 85 % 8.68 C
2889 07-03-2019 00:40:00 10.9 C 85 % 8.48 C
2890 07-03-2019 00:45:00 10.8 C 85 % 8.38 C
2891 07-03-2019 00:50:00 10.7 C 85 % 8.28 C
2892 07-03-2019 00:55:00 10.8 C 86 % 8.56 C
2893 07-03-2019 01:00:00 10.8 C 86 % 8.56 C
2894 07-03-2019 01:05:00 10.8 C 86 % 8.56 C
2895 07-03-2019 01:10:00 10.9 C 86 % 8.65 C
2896 07-03-2019 01:15:00 10.9 C 87 % 8.82 C
2897 07-03-2019 01:20:00 11 C 87 % 8.92 C
2898 07-03-2019 01:25:00 11.1 C 87 % 9.02 C
2899 07-03-2019 01:30:00 11.1 C 87 % 9.02 C
2900 07-03-2019 01:35:00 11.1 C 88 % 9.19 C
Sensor: Nr:Datum:Temp:Feuchte:Taupunkt:
Aussen-T/F 2901 07-03-2019 01:40:00 11 C 88 % 9.09 C
2902 07-03-2019 01:45:00 10.9 C 89 % 9.16 C
2903 07-03-2019 01:50:00 10.8 C 89 % 9.06 C
2904 07-03-2019 01:55:00 10.8 C 90 % 9.23 C
2905 07-03-2019 02:00:00 10.7 C 91 % 9.29 C
2906 07-03-2019 02:05:00 10.6 C 91 % 9.19 C
2907 07-03-2019 02:10:00 10.4 C 91 % 9 C
2908 07-03-2019 02:15:00 10.3 C 91 % 8.9 C
2909 07-03-2019 02:20:00 10.1 C 91 % 8.7 C
2910 07-03-2019 02:25:00 9.9 C 91 % 8.5 C
2911 07-03-2019 02:30:00 9.8 C 91 % 8.4 C
2912 07-03-2019 02:35:00 9.7 C 92 % 8.46 C
2913 07-03-2019 02:40:00 9.7 C 92 % 8.46 C
2914 07-03-2019 02:45:00 9.7 C 93 % 8.62 C
2915 07-03-2019 02:50:00 9.7 C 93 % 8.62 C
2916 07-03-2019 02:55:00 9.7 C 93 % 8.62 C
2917 07-03-2019 03:00:00 9.7 C 93 % 8.62 C
2918 07-03-2019 03:05:00 9.7 C 93 % 8.62 C
2919 07-03-2019 03:10:00 9.7 C 93 % 8.62 C
2920 07-03-2019 03:15:00 9.6 C 93 % 8.53 C
2921 07-03-2019 03:20:00 9.6 C 93 % 8.53 C
2922 07-03-2019 03:25:00 9.6 C 93 % 8.53 C
2923 07-03-2019 03:30:00 9.6 C 93 % 8.53 C
2924 07-03-2019 03:35:00 9.6 C 92 % 8.37 C
2925 07-03-2019 03:40:00 9.5 C 92 % 8.27 C
Sensor: Nr:Datum:Temp:Feuchte:Taupunkt:
Aussen-T/F 2926 07-03-2019 03:45:00 9.5 C 92 % 8.27 C
2927 07-03-2019 03:50:00 9.4 C 92 % 8.17 C
2928 07-03-2019 03:55:00 9.5 C 92 % 8.27 C
2929 07-03-2019 04:00:00 9.6 C 92 % 8.37 C
2930 07-03-2019 04:05:00 9.7 C 91 % 8.3 C
2931 07-03-2019 04:10:00 9.8 C 90 % 8.24 C
2932 07-03-2019 04:15:00 9.9 C 90 % 8.34 C
2933 07-03-2019 04:20:00 10.1 C 89 % 8.37 C
2934 07-03-2019 04:25:00 10.2 C 89 % 8.47 C
2935 07-03-2019 04:30:00 10.2 C 88 % 8.3 C
2936 07-03-2019 04:35:00 10.3 C 88 % 8.4 C
2937 07-03-2019 04:40:00 10.3 C 88 % 8.4 C
2938 07-03-2019 04:45:00 10.2 C 87 % 8.14 C
2939 07-03-2019 04:50:00 10.3 C 86 % 8.06 C
2940 07-03-2019 04:55:00 10.4 C 85 % 7.99 C
2941 07-03-2019 05:00:00 10.4 C 85 % 7.99 C
2942 07-03-2019 05:05:00 10.6 C 84 % 8.01 C
2943 07-03-2019 05:10:00 10.8 C 83 % 8.03 C
2944 07-03-2019 05:15:00 10.9 C 82 % 7.95 C
2945 07-03-2019 05:20:00 11.3 C 81 % 8.16 C
2946 07-03-2019 05:25:00 11.6 C 80 % 8.27 C
2947 07-03-2019 05:30:00 11.7 C 78 % 8 C
2948 07-03-2019 05:35:00 11.8 C 78 % 8.09 C
2949 07-03-2019 05:40:00 11.9 C 77 % 8 C
2950 07-03-2019 05:45:00 12 C 77 % 8.1 C
Sensor: Nr:Datum:Temp:Feuchte:Taupunkt:
Aussen-T/F 2951 07-03-2019 05:50:00 12.2 C 76 % 8.1 C
2952 07-03-2019 05:55:00 12.2 C 75 % 7.91 C
2953 07-03-2019 06:00:00 12.3 C 75 % 8 C
2954 07-03-2019 06:05:00 12.3 C 75 % 8 C
2955 07-03-2019 06:10:00 12.3 C 75 % 8 C
2956 07-03-2019 06:15:00 12.2 C 74 % 7.71 C
2957 07-03-2019 06:20:00 12.2 C 74 % 7.71 C
2958 07-03-2019 06:25:00 12.1 C 73 % 7.41 C
2959 07-03-2019 06:30:00 12.1 C 73 % 7.41 C
2960 07-03-2019 06:35:00 11.9 C 73 % 7.22 C
2961 07-03-2019 06:40:00 11.9 C 73 % 7.22 C
2962 07-03-2019 06:45:00 11.8 C 74 % 7.32 C
2963 07-03-2019 06:50:00 11.8 C 74 % 7.32 C
2964 07-03-2019 06:55:00 11.8 C 74 % 7.32 C
2965 07-03-2019 07:00:00 11.7 C 74 % 7.23 C
2966 07-03-2019 07:05:00 11.6 C 75 % 7.33 C
2967 07-03-2019 07:10:00 11.6 C 75 % 7.33 C
2968 07-03-2019 07:15:00 11.6 C 75 % 7.33 C
2969 07-03-2019 07:20:00 11.5 C 74 % 7.03 C
2970 07-03-2019 07:25:00 11.4 C 74 % 6.94 C
2971 07-03-2019 07:30:00 11.4 C 74 % 6.94 C
2972 07-03-2019 07:35:00 11.2 C 74 % 6.74 C
2973 07-03-2019 07:40:00 11.1 C 74 % 6.65 C
2974 07-03-2019 07:45:00 11 C 74 % 6.55 C
2975 07-03-2019 07:50:00 10.9 C 74 % 6.45 C
Sensor: Nr:Datum:Temp:Feuchte:Taupunkt:
Aussen-T/F 2976 07-03-2019 07:55:00 10.9 C 74 % 6.45 C
2977 07-03-2019 08:00:00 10.8 C 74 % 6.36 C
2978 07-03-2019 08:05:00 10.8 C 74 % 6.36 C
2979 07-03-2019 08:10:00 10.8 C 75 % 6.55 C
2980 07-03-2019 08:15:00 10.7 C 75 % 6.46 C
2981 07-03-2019 08:20:00 10.7 C 75 % 6.46 C
2982 07-03-2019 08:25:00 10.7 C 76 % 6.65 C
2983 07-03-2019 08:30:00 10.7 C 76 % 6.65 C
2984 07-03-2019 08:35:00 10.6 C 76 % 6.55 C
2985 07-03-2019 08:40:00 10.6 C 77 % 6.74 C
2986 07-03-2019 08:45:00 10.6 C 78 % 6.93 C
2987 07-03-2019 08:50:00 10.6 C 77 % 6.74 C
2988 07-03-2019 08:55:00 10.7 C 78 % 7.03 C
2989 07-03-2019 09:00:00 10.7 C 79 % 7.21 C
2990 07-03-2019 09:05:00 10.6 C 80 % 7.3 C
2991 07-03-2019 09:10:00 10.4 C 81 % 7.28 C
2992 07-03-2019 09:15:00 10.2 C 82 % 7.27 C
2993 07-03-2019 09:20:00 10.1 C 84 % 7.52 C
2994 07-03-2019 09:25:00 9.9 C 85 % 7.5 C
2995 07-03-2019 09:30:00 9.8 C 85 % 7.4 C
2996 07-03-2019 09:35:00 9.7 C 84 % 7.13 C
2997 07-03-2019 09:40:00 9.8 C 84 % 7.23 C
2998 07-03-2019 09:45:00 9.8 C 83 % 7.05 C
2999 07-03-2019 09:50:00 9.9 C 83 % 7.15 C
3000 07-03-2019 09:55:00 9.9 C 82 % 6.98 C
Sensor: Nr:Datum:Temp:Feuchte:Taupunkt:
Aussen-T/F 3001 07-03-2019 10:00:00 10 C 82 % 7.07 C
3002 07-03-2019 10:05:00 10.1 C 81 % 6.99 C
3003 07-03-2019 10:10:00 10.2 C 82 % 7.27 C
3004 07-03-2019 10:15:00 10.2 C 82 % 7.27 C
3005 07-03-2019 10:20:00 10.2 C 82 % 7.27 C
3006 07-03-2019 10:25:00 10.1 C 82 % 7.17 C
3007 07-03-2019 10:30:00 10.2 C 82 % 7.27 C
3008 07-03-2019 10:35:00 10.2 C 82 % 7.27 C
3009 07-03-2019 10:40:00 10.3 C 82 % 7.37 C
3010 07-03-2019 10:45:00 10.4 C 82 % 7.46 C
3011 07-03-2019 10:50:00 10.4 C 83 % 7.64 C
3012 07-03-2019 10:55:00 10.4 C 84 % 7.82 C
3013 07-03-2019 11:00:00 10.3 C 86 % 8.06 C
3014 07-03-2019 11:05:00 9.8 C 86 % 7.57 C
3015 07-03-2019 11:10:00 9.5 C 87 % 7.45 C
3016 07-03-2019 11:15:00 9.5 C 87 % 7.45 C
3017 07-03-2019 11:20:00 9.5 C 86 % 7.28 C
3018 07-03-2019 11:25:00 9.6 C 86 % 7.38 C
3019 07-03-2019 11:30:00 9.6 C 85 % 7.21 C
3020 07-03-2019 11:35:00 9.7 C 84 % 7.13 C
3021 07-03-2019 11:40:00 9.8 C 83 % 7.05 C
3022 07-03-2019 11:45:00 9.9 C 81 % 6.8 C
3023 07-03-2019 11:50:00 10.1 C 78 % 6.44 C
3024 07-03-2019 11:55:00 10.3 C 78 % 6.64 C
3025 07-03-2019 12:00:00 10.4 C 78 % 6.74 C
Sensor: Nr:Datum:Temp:Feuchte:Taupunkt:
Aussen-T/F 3026 07-03-2019 12:05:00 10.6 C 76 % 6.55 C
3027 07-03-2019 12:10:00 10.6 C 76 % 6.55 C
3028 07-03-2019 12:15:00 10.6 C 76 % 6.55 C
3029 07-03-2019 12:20:00 10.7 C 74 % 6.26 C
3030 07-03-2019 12:25:00 10.8 C 74 % 6.36 C
3031 07-03-2019 12:30:00 10.8 C 74 % 6.36 C
3032 07-03-2019 12:35:00 10.8 C 74 % 6.36 C
3033 07-03-2019 12:40:00 10.9 C 74 % 6.45 C
3034 07-03-2019 12:45:00 10.9 C 73 % 6.26 C
3035 07-03-2019 12:50:00 11 C 74 % 6.55 C
3036 07-03-2019 12:55:00 11.3 C 73 % 6.64 C
3037 07-03-2019 13:00:00 11.7 C 71 % 6.62 C
3038 07-03-2019 13:05:00 11.8 C 70 % 6.51 C
3039 07-03-2019 13:10:00 11.9 C 71 % 6.82 C
3040 07-03-2019 13:15:00 12.2 C 69 % 6.69 C
3041 07-03-2019 13:20:00 12.4 C 66 % 6.23 C
3042 07-03-2019 13:25:00 12.4 C 68 % 6.67 C
3043 07-03-2019 13:30:00 12.2 C 68 % 6.48 C
3044 07-03-2019 13:35:00 12 C 68 % 6.29 C
3045 07-03-2019 13:40:00 12 C 68 % 6.29 C
3046 07-03-2019 13:45:00 12.1 C 67 % 6.17 C
3047 07-03-2019 13:50:00 11.8 C 67 % 5.88 C
3048 07-03-2019 13:55:00 11.5 C 71 % 6.43 C
3049 07-03-2019 14:00:00 10.7 C 77 % 6.84 C
3050 07-03-2019 14:05:00 10.1 C 80 % 6.81 C
Sensor: Nr:Datum:Temp:Feuchte:Taupunkt:
Aussen-T/F 3051 07-03-2019 14:10:00 9.7 C 80 % 6.42 C
3052 07-03-2019 14:15:00 9.7 C 81 % 6.6 C
3053 07-03-2019 14:20:00 9.9 C 81 % 6.8 C
3054 07-03-2019 14:25:00 10.2 C 81 % 7.09 C
3055 07-03-2019 14:30:00 10.5 C 78 % 6.83 C
3056 07-03-2019 14:35:00 10.7 C 78 % 7.03 C
3057 07-03-2019 14:40:00 10.7 C 77 % 6.84 C
3058 07-03-2019 14:45:00 10.7 C 76 % 6.65 C
3059 07-03-2019 14:50:00 10.9 C 75 % 6.65 C
3060 07-03-2019 14:55:00 11.1 C 73 % 6.45 C
3061 07-03-2019 15:00:00 11.3 C 70 % 6.03 C
3062 07-03-2019 15:05:00 11.4 C 68 % 5.71 C
3063 07-03-2019 15:10:00 11.7 C 69 % 6.21 C
3064 07-03-2019 15:15:00 11.7 C 68 % 6 C
3065 07-03-2019 15:20:00 11.7 C 69 % 6.21 C
3066 07-03-2019 15:25:00 11.6 C 68 % 5.9 C
3067 07-03-2019 15:30:00 11.2 C 73 % 6.55 C
3068 07-03-2019 15:35:00 10.5 C 77 % 6.64 C
3069 07-03-2019 15:40:00 10 C 81 % 6.89 C
3070 07-03-2019 15:45:00 9.8 C 82 % 6.88 C
3071 07-03-2019 15:50:00 9.6 C 82 % 6.68 C
3072 07-03-2019 15:55:00 9.4 C 82 % 6.49 C
3073 07-03-2019 16:00:00 9.4 C 84 % 6.84 C
3074 07-03-2019 16:05:00 9.5 C 83 % 6.76 C
3075 07-03-2019 16:10:00 9.6 C 82 % 6.68 C
Sensor: Nr:Datum:Temp:Feuchte:Taupunkt:
Aussen-T/F 3076 07-03-2019 16:15:00 9.7 C 82 % 6.78 C
3077 07-03-2019 16:20:00 9.8 C 82 % 6.88 C
3078 07-03-2019 16:25:00 9.9 C 79 % 6.43 C
3079 07-03-2019 16:30:00 10.1 C 78 % 6.44 C
3080 07-03-2019 16:35:00 10.1 C 74 % 5.68 C
3081 07-03-2019 16:40:00 10.2 C 73 % 5.58 C
3082 07-03-2019 16:45:00 10.2 C 74 % 5.78 C
3083 07-03-2019 16:50:00 10.1 C 78 % 6.44 C
3084 07-03-2019 16:55:00 10 C 80 % 6.71 C
3085 07-03-2019 17:00:00 10 C 80 % 6.71 C
3086 07-03-2019 17:05:00 10.2 C 79 % 6.73 C
3087 07-03-2019 17:10:00 10.3 C 76 % 6.26 C
3088 07-03-2019 17:15:00 10.3 C 75 % 6.07 C
3089 07-03-2019 17:20:00 10.3 C 75 % 6.07 C
3090 07-03-2019 17:25:00 10.3 C 74 % 5.88 C
3091 07-03-2019 17:30:00 10.4 C 74 % 5.97 C
3092 07-03-2019 17:35:00 10.3 C 73 % 5.68 C
3093 07-03-2019 17:40:00 10.1 C 73 % 5.49 C
3094 07-03-2019 17:45:00 9.9 C 73 % 5.29 C
3095 07-03-2019 17:50:00 9.8 C 74 % 5.39 C
3096 07-03-2019 17:55:00 9.8 C 74 % 5.39 C
3097 07-03-2019 18:00:00 9.8 C 72 % 5 C
3098 07-03-2019 18:05:00 9.8 C 72 % 5 C
3099 07-03-2019 18:10:00 9.8 C 72 % 5 C
3100 07-03-2019 18:15:00 9.7 C 72 % 4.9 C
Sensor: Nr:Datum:Temp:Feuchte:Taupunkt:
Aussen-T/F 3101 07-03-2019 18:20:00 9.6 C 71 % 4.61 C
3102 07-03-2019 18:25:00 9.4 C 72 % 4.62 C
3103 07-03-2019 18:30:00 9.4 C 72 % 4.62 C
3104 07-03-2019 18:35:00 9.4 C 72 % 4.62 C
3105 07-03-2019 18:40:00 9.3 C 72 % 4.52 C
3106 07-03-2019 18:45:00 9.2 C 73 % 4.62 C
3107 07-03-2019 18:50:00 9.1 C 74 % 4.72 C
3108 07-03-2019 18:55:00 8.9 C 75 % 4.72 C
3109 07-03-2019 19:00:00 8.9 C 75 % 4.72 C
3110 07-03-2019 19:05:00 8.9 C 76 % 4.91 C
3111 07-03-2019 19:10:00 8.9 C 76 % 4.91 C
3112 07-03-2019 19:15:00 8.9 C 78 % 5.28 C
3113 07-03-2019 19:20:00 8.8 C 79 % 5.36 C
3114 07-03-2019 19:25:00 8.6 C 80 % 5.35 C
3115 07-03-2019 19:30:00 8.4 C 81 % 5.33 C
3116 07-03-2019 19:35:00 8.3 C 82 % 5.41 C
3117 07-03-2019 19:40:00 8.1 C 82 % 5.22 C
3118 07-03-2019 19:45:00 8 C 82 % 5.12 C
3119 07-03-2019 19:50:00 7.9 C 82 % 5.02 C
3120 07-03-2019 19:55:00 7.9 C 81 % 4.85 C
3121 07-03-2019 20:00:00 8.1 C 80 % 4.86 C
3122 07-03-2019 20:05:00 8.2 C 79 % 4.78 C
3123 07-03-2019 20:10:00 8.3 C 78 % 4.7 C
3124 07-03-2019 20:15:00 8.4 C 77 % 4.61 C
3125 07-03-2019 20:20:00 8.6 C 77 % 4.8 C
Sensor: Nr:Datum:Temp:Feuchte:Taupunkt:
Aussen-T/F 3126 07-03-2019 20:25:00 8.7 C 76 % 4.71 C
3127 07-03-2019 20:30:00 8.8 C 76 % 4.81 C
3128 07-03-2019 20:35:00 8.8 C 76 % 4.81 C
3129 07-03-2019 20:40:00 8.9 C 75 % 4.72 C
3130 07-03-2019 20:45:00 8.9 C 75 % 4.72 C
3131 07-03-2019 20:50:00 9 C 75 % 4.81 C
3132 07-03-2019 20:55:00 9 C 75 % 4.81 C
3133 07-03-2019 21:00:00 9.1 C 75 % 4.91 C
3134 07-03-2019 21:05:00 9.1 C 75 % 4.91 C
3135 07-03-2019 21:10:00 9.2 C 75 % 5.01 C
3136 07-03-2019 21:15:00 9.2 C 75 % 5.01 C
3137 07-03-2019 21:20:00 9.2 C 75 % 5.01 C
3138 07-03-2019 21:25:00 9.2 C 75 % 5.01 C
3139 07-03-2019 21:30:00 9.3 C 75 % 5.1 C
3140 07-03-2019 21:35:00 9.3 C 74 % 4.91 C
3141 07-03-2019 21:40:00 9.3 C 74 % 4.91 C
3142 07-03-2019 21:45:00 9.3 C 74 % 4.91 C
3143 07-03-2019 21:50:00 9.3 C 74 % 4.91 C
3144 07-03-2019 21:55:00 9.3 C 74 % 4.91 C
3145 07-03-2019 22:00:00 9.4 C 74 % 5.01 C
3146 07-03-2019 22:05:00 9.4 C 74 % 5.01 C
3147 07-03-2019 22:10:00 9.4 C 74 % 5.01 C
3148 07-03-2019 22:15:00 9.4 C 75 % 5.2 C
3149 07-03-2019 22:20:00 9.3 C 75 % 5.1 C
3150 07-03-2019 22:25:00 9.2 C 75 % 5.01 C
Sensor: Nr:Datum:Temp:Feuchte:Taupunkt:
Aussen-T/F 3151 07-03-2019 22:30:00 9.2 C 75 % 5.01 C
3152 07-03-2019 22:35:00 9.1 C 75 % 4.91 C
3153 07-03-2019 22:40:00 9.1 C 75 % 4.91 C
3154 07-03-2019 22:45:00 9 C 75 % 4.81 C
3155 07-03-2019 22:50:00 9 C 75 % 4.81 C
3156 07-03-2019 22:55:00 8.9 C 75 % 4.72 C
3157 07-03-2019 23:00:00 8.9 C 75 % 4.72 C
3158 07-03-2019 23:05:00 8.8 C 75 % 4.62 C
3159 07-03-2019 23:10:00 8.7 C 76 % 4.71 C
3160 07-03-2019 23:15:00 8.7 C 76 % 4.71 C
3161 07-03-2019 23:20:00 8.5 C 77 % 4.71 C
3162 07-03-2019 23:25:00 8.5 C 77 % 4.71 C
3163 07-03-2019 23:30:00 8.5 C 77 % 4.71 C
3164 07-03-2019 23:35:00 8.6 C 77 % 4.8 C
3165 07-03-2019 23:40:00 8.6 C 77 % 4.8 C
3166 07-03-2019 23:45:00 8.7 C 78 % 5.08 C
3167 07-03-2019 23:50:00 8.7 C 79 % 5.27 C
3168 07-03-2019 23:55:00 8.5 C 79 % 5.07 C
3169 08-03-2019 00:00:00 8.3 C 80 % 5.06 C
3170 08-03-2019 00:05:00 8.2 C 80 % 4.96 C
3171 08-03-2019 00:10:00 8.2 C 81 % 5.14 C
3172 08-03-2019 00:15:00 8.2 C 82 % 5.32 C
3173 08-03-2019 00:20:00 8 C 84 % 5.47 C
3174 08-03-2019 00:25:00 7.8 C 85 % 5.44 C
3175 08-03-2019 00:30:00 7.6 C 86 % 5.41 C
Sensor: Nr:Datum:Temp:Feuchte:Taupunkt:
Aussen-T/F 3176 08-03-2019 00:35:00 7.4 C 86 % 5.22 C
3177 08-03-2019 00:40:00 7.3 C 86 % 5.12 C
3178 08-03-2019 00:45:00 7.1 C 87 % 5.09 C
3179 08-03-2019 00:50:00 6.9 C 87 % 4.89 C
3180 08-03-2019 00:55:00 6.9 C 87 % 4.89 C
3181 08-03-2019 01:00:00 6.8 C 87 % 4.79 C
3182 08-03-2019 01:05:00 6.8 C 87 % 4.79 C
3183 08-03-2019 01:10:00 6.8 C 87 % 4.79 C
3184 08-03-2019 01:15:00 6.8 C 87 % 4.79 C
3185 08-03-2019 01:20:00 6.9 C 87 % 4.89 C
3186 08-03-2019 01:25:00 6.9 C 87 % 4.89 C
3187 08-03-2019 01:30:00 7 C 87 % 4.99 C
3188 08-03-2019 01:35:00 7.1 C 86 % 4.92 C
3189 08-03-2019 01:40:00 7.2 C 85 % 4.85 C
3190 08-03-2019 01:45:00 7.3 C 85 % 4.95 C
3191 08-03-2019 01:50:00 7.4 C 84 % 4.88 C
3192 08-03-2019 01:55:00 7.7 C 82 % 4.83 C
3193 08-03-2019 02:00:00 7.9 C 80 % 4.67 C
3194 08-03-2019 02:05:00 8 C 79 % 4.59 C
3195 08-03-2019 02:10:00 8.1 C 79 % 4.68 C
3196 08-03-2019 02:15:00 8.1 C 78 % 4.5 C
3197 08-03-2019 02:20:00 8.1 C 78 % 4.5 C
3198 08-03-2019 02:25:00 8.2 C 77 % 4.42 C
3199 08-03-2019 02:30:00 8.2 C 77 % 4.42 C
3200 08-03-2019 02:35:00 8.3 C 76 % 4.33 C
Sensor: Nr:Datum:Temp:Feuchte:Taupunkt:
Aussen-T/F 3201 08-03-2019 02:40:00 8.3 C 76 % 4.33 C
3202 08-03-2019 02:45:00 8.3 C 76 % 4.33 C
3203 08-03-2019 02:50:00 8.2 C 76 % 4.23 C
3204 08-03-2019 02:55:00 8.2 C 76 % 4.23 C
3205 08-03-2019 03:00:00 8.2 C 76 % 4.23 C
3206 08-03-2019 03:05:00 8.2 C 76 % 4.23 C
3207 08-03-2019 03:10:00 8.2 C 76 % 4.23 C
3208 08-03-2019 03:15:00 8.3 C 75 % 4.14 C
3209 08-03-2019 03:20:00 8.2 C 75 % 4.04 C
3210 08-03-2019 03:25:00 8.2 C 74 % 3.85 C
3211 08-03-2019 03:30:00 8.1 C 75 % 3.94 C
3212 08-03-2019 03:35:00 8.1 C 75 % 3.94 C
3213 08-03-2019 03:40:00 8.1 C 75 % 3.94 C
3214 08-03-2019 03:45:00 8.1 C 75 % 3.94 C
3215 08-03-2019 03:50:00 8.1 C 75 % 3.94 C
3216 08-03-2019 03:55:00 8 C 75 % 3.85 C
3217 08-03-2019 04:00:00 8 C 76 % 4.04 C
3218 08-03-2019 04:05:00 8 C 76 % 4.04 C
3219 08-03-2019 04:10:00 8 C 76 % 4.04 C
3220 08-03-2019 04:15:00 8 C 76 % 4.04 C
3221 08-03-2019 04:20:00 8.1 C 76 % 4.13 C
3222 08-03-2019 04:25:00 8.1 C 76 % 4.13 C
3223 08-03-2019 04:30:00 8.1 C 76 % 4.13 C
3224 08-03-2019 04:35:00 8 C 77 % 4.22 C
3225 08-03-2019 04:40:00 8 C 77 % 4.22 C
Sensor: Nr:Datum:Temp:Feuchte:Taupunkt:
Aussen-T/F 3226 08-03-2019 04:45:00 8.1 C 77 % 4.32 C
3227 08-03-2019 04:50:00 8.1 C 76 % 4.13 C
3228 08-03-2019 04:55:00 8.1 C 76 % 4.13 C
3229 08-03-2019 05:00:00 8.1 C 77 % 4.32 C
3230 08-03-2019 05:05:00 8 C 77 % 4.22 C
3231 08-03-2019 05:10:00 7.9 C 77 % 4.12 C
3232 08-03-2019 05:15:00 7.8 C 78 % 4.21 C
3233 08-03-2019 05:20:00 7.8 C 78 % 4.21 C
3234 08-03-2019 05:25:00 7.8 C 78 % 4.21 C
3235 08-03-2019 05:30:00 7.8 C 78 % 4.21 C
3236 08-03-2019 05:35:00 7.7 C 79 % 4.3 C
3237 08-03-2019 05:40:00 7.7 C 79 % 4.3 C
3238 08-03-2019 05:45:00 7.7 C 79 % 4.3 C
3239 08-03-2019 05:50:00 7.7 C 79 % 4.3 C
3240 08-03-2019 05:55:00 7.6 C 79 % 4.2 C
3241 08-03-2019 06:00:00 7.6 C 79 % 4.2 C
3242 08-03-2019 06:05:00 7.6 C 79 % 4.2 C
3243 08-03-2019 06:10:00 7.6 C 80 % 4.38 C
3244 08-03-2019 06:15:00 7.6 C 80 % 4.38 C
3245 08-03-2019 06:20:00 7.5 C 80 % 4.28 C
3246 08-03-2019 06:25:00 7.5 C 80 % 4.28 C
3247 08-03-2019 06:30:00 7.6 C 80 % 4.38 C
3248 08-03-2019 06:35:00 7.6 C 80 % 4.38 C
3249 08-03-2019 06:40:00 7.7 C 80 % 4.47 C
3250 08-03-2019 06:45:00 7.7 C 80 % 4.47 C
Sensor: Nr:Datum:Temp:Feuchte:Taupunkt:
Aussen-T/F 3251 08-03-2019 06:50:00 7.7 C 80 % 4.47 C
3252 08-03-2019 06:55:00 7.6 C 80 % 4.38 C
3253 08-03-2019 07:00:00 7.6 C 80 % 4.38 C
3254 08-03-2019 07:05:00 7.6 C 81 % 4.55 C
3255 08-03-2019 07:10:00 7.6 C 81 % 4.55 C
3256 08-03-2019 07:15:00 7.6 C 81 % 4.55 C
3257 08-03-2019 07:20:00 7.6 C 80 % 4.38 C
3258 08-03-2019 07:25:00 7.7 C 80 % 4.47 C
3259 08-03-2019 07:30:00 7.7 C 80 % 4.47 C
3260 08-03-2019 07:35:00 7.8 C 80 % 4.57 C
3261 08-03-2019 07:40:00 7.8 C 80 % 4.57 C
3262 08-03-2019 07:45:00 7.8 C 80 % 4.57 C
3263 08-03-2019 07:50:00 7.8 C 81 % 4.75 C
3264 08-03-2019 07:55:00 7.8 C 81 % 4.75 C
3265 08-03-2019 08:00:00 7.8 C 81 % 4.75 C
3266 08-03-2019 08:05:00 7.8 C 81 % 4.75 C
3267 08-03-2019 08:10:00 7.8 C 81 % 4.75 C
3268 08-03-2019 08:15:00 7.8 C 81 % 4.75 C
3269 08-03-2019 08:20:00 7.8 C 81 % 4.75 C
3270 08-03-2019 08:25:00 7.8 C 82 % 4.92 C
3271 08-03-2019 08:30:00 7.9 C 82 % 5.02 C
3272 08-03-2019 08:35:00 7.9 C 82 % 5.02 C
3273 08-03-2019 08:40:00 7.9 C 82 % 5.02 C
3274 08-03-2019 08:45:00 7.9 C 82 % 5.02 C
3275 08-03-2019 08:50:00 7.9 C 83 % 5.2 C
Sensor: Nr:Datum:Temp:Feuchte:Taupunkt:
Aussen-T/F 3276 08-03-2019 08:55:00 7.9 C 83 % 5.2 C
3277 08-03-2019 09:00:00 7.9 C 83 % 5.2 C
3278 08-03-2019 09:05:00 7.9 C 83 % 5.2 C
3279 08-03-2019 09:10:00 7.9 C 83 % 5.2 C
3280 08-03-2019 09:15:00 7.8 C 83 % 5.1 C
3281 08-03-2019 09:20:00 7.8 C 84 % 5.27 C
3282 08-03-2019 09:25:00 7.8 C 85 % 5.44 C
3283 08-03-2019 09:30:00 7.7 C 86 % 5.51 C
3284 08-03-2019 09:35:00 7.7 C 86 % 5.51 C
3285 08-03-2019 09:40:00 7.6 C 87 % 5.58 C
3286 08-03-2019 09:45:00 7.4 C 87 % 5.38 C
3287 08-03-2019 09:50:00 7.4 C 88 % 5.55 C
3288 08-03-2019 09:55:00 7.3 C 88 % 5.45 C
3289 08-03-2019 10:00:00 7.2 C 88 % 5.35 C
3290 08-03-2019 10:05:00 7.2 C 88 % 5.35 C
3291 08-03-2019 10:10:00 7.3 C 88 % 5.45 C
3292 08-03-2019 10:15:00 7.4 C 88 % 5.55 C
3293 08-03-2019 10:20:00 7.5 C 87 % 5.48 C
3294 08-03-2019 10:25:00 7.7 C 86 % 5.51 C
3295 08-03-2019 10:30:00 7.8 C 84 % 5.27 C
3296 08-03-2019 10:35:00 7.9 C 84 % 5.37 C
3297 08-03-2019 10:40:00 8.1 C 83 % 5.39 C
3298 08-03-2019 10:45:00 8.2 C 82 % 5.32 C
3299 08-03-2019 10:50:00 8.3 C 82 % 5.41 C
3300 08-03-2019 10:55:00 8.4 C 81 % 5.33 C
Sensor: Nr:Datum:Temp:Feuchte:Taupunkt:
Aussen-T/F 3301 08-03-2019 11:00:00 8.4 C 81 % 5.33 C
3302 08-03-2019 11:05:00 8.4 C 81 % 5.33 C
3303 08-03-2019 11:10:00 8.4 C 80 % 5.16 C
3304 08-03-2019 11:15:00 8.4 C 80 % 5.16 C
3305 08-03-2019 11:20:00 8.4 C 81 % 5.33 C
3306 08-03-2019 11:25:00 8.6 C 81 % 5.53 C
3307 08-03-2019 11:30:00 8.7 C 79 % 5.27 C
3308 08-03-2019 11:35:00 8.8 C 79 % 5.36 C
3309 08-03-2019 11:40:00 8.8 C 79 % 5.36 C
3310 08-03-2019 11:45:00 8.8 C 78 % 5.18 C
3311 08-03-2019 11:50:00 9 C 77 % 5.19 C
3312 08-03-2019 11:55:00 9.2 C 76 % 5.2 C
3313 08-03-2019 12:00:00 9.3 C 73 % 4.72 C
3314 08-03-2019 12:05:00 9.5 C 71 % 4.51 C
3315 08-03-2019 12:10:00 9.5 C 70 % 4.31 C
3316 08-03-2019 12:15:00 9.3 C 72 % 4.52 C
3317 08-03-2019 12:20:00 9.1 C 73 % 4.52 C
3318 08-03-2019 12:25:00 9.1 C 73 % 4.52 C
3319 08-03-2019 12:30:00 9.1 C 74 % 4.72 C
3320 08-03-2019 12:35:00 9 C 73 % 4.43 C
3321 08-03-2019 12:40:00 9 C 71 % 4.03 C
3322 08-03-2019 12:45:00 9.1 C 72 % 4.33 C
3323 08-03-2019 12:50:00 9.2 C 72 % 4.42 C
3324 08-03-2019 12:55:00 9.4 C 71 % 4.42 C
3325 08-03-2019 13:00:00 9.6 C 71 % 4.61 C
Sensor: Nr:Datum:Temp:Feuchte:Taupunkt:
Aussen-T/F 3326 08-03-2019 13:05:00 9.5 C 69 % 4.11 C
3327 08-03-2019 13:10:00 9.5 C 70 % 4.31 C
3328 08-03-2019 13:15:00 9.5 C 69 % 4.11 C
3329 08-03-2019 13:20:00 9.5 C 69 % 4.11 C
3330 08-03-2019 13:25:00 9.6 C 69 % 4.2 C
3331 08-03-2019 13:30:00 9.7 C 70 % 4.5 C
3332 08-03-2019 13:35:00 9.7 C 69 % 4.3 C
3333 08-03-2019 13:40:00 10.1 C 69 % 4.68 C
3334 08-03-2019 13:45:00 10.3 C 67 % 4.45 C
3335 08-03-2019 13:50:00 10.3 C 68 % 4.66 C
3336 08-03-2019 13:55:00 10.3 C 66 % 4.24 C
3337 08-03-2019 14:00:00 10.3 C 65 % 4.02 C
3338 08-03-2019 14:05:00 10.2 C 65 % 3.92 C
3339 08-03-2019 14:10:00 10.3 C 65 % 4.02 C
3340 08-03-2019 14:15:00 10.4 C 64 % 3.89 C
3341 08-03-2019 14:20:00 10.3 C 64 % 3.8 C
3342 08-03-2019 14:25:00 10.2 C 66 % 4.14 C
3343 08-03-2019 14:30:00 10.2 C 66 % 4.14 C
3344 08-03-2019 14:35:00 10.2 C 63 % 3.48 C
3345 08-03-2019 14:40:00 10.3 C 64 % 3.8 C
3346 08-03-2019 14:45:00 10.4 C 63 % 3.67 C
3347 08-03-2019 14:50:00 10.6 C 63 % 3.86 C
3348 08-03-2019 14:55:00 10.7 C 63 % 3.95 C
3349 08-03-2019 15:00:00 10.8 C 63 % 4.05 C
3350 08-03-2019 15:05:00 11 C 62 % 4.01 C
Sensor: Nr:Datum:Temp:Feuchte:Taupunkt:
Aussen-T/F 3351 08-03-2019 15:10:00 11.1 C 61 % 3.87 C
3352 08-03-2019 15:15:00 11.2 C 60 % 3.73 C
3353 08-03-2019 15:20:00 11.3 C 61 % 4.06 C
3354 08-03-2019 15:25:00 11.3 C 60 % 3.83 C
3355 08-03-2019 15:30:00 11.4 C 61 % 4.16 C
3356 08-03-2019 15:35:00 11.6 C 61 % 4.35 C
3357 08-03-2019 15:40:00 11.7 C 62 % 4.67 C
3358 08-03-2019 15:45:00 11.5 C 63 % 4.71 C
3359 08-03-2019 15:50:00 11.2 C 64 % 4.65 C
3360 08-03-2019 15:55:00 10.9 C 66 % 4.81 C
3361 08-03-2019 16:00:00 10.6 C 68 % 4.95 C
3362 08-03-2019 16:05:00 10.3 C 70 % 5.08 C
3363 08-03-2019 16:10:00 10.3 C 71 % 5.28 C
3364 08-03-2019 16:15:00 10.3 C 70 % 5.08 C
3365 08-03-2019 16:20:00 10.2 C 70 % 4.98 C
3366 08-03-2019 16:25:00 10.1 C 71 % 5.09 C
3367 08-03-2019 16:30:00 10.3 C 70 % 5.08 C
3368 08-03-2019 16:35:00 10.4 C 69 % 4.97 C
3369 08-03-2019 16:40:00 10.3 C 69 % 4.87 C
3370 08-03-2019 16:45:00 10.2 C 70 % 4.98 C
3371 08-03-2019 16:50:00 10.1 C 71 % 5.09 C
3372 08-03-2019 16:55:00 10.1 C 72 % 5.29 C
3373 08-03-2019 17:00:00 10.1 C 72 % 5.29 C
3374 08-03-2019 17:05:00 9.8 C 73 % 5.2 C
3375 08-03-2019 17:10:00 9.6 C 74 % 5.2 C
Sensor: Nr:Datum:Temp:Feuchte:Taupunkt:
Aussen-T/F 3376 08-03-2019 17:15:00 9.4 C 75 % 5.2 C
3377 08-03-2019 17:20:00 9.3 C 76 % 5.29 C
3378 08-03-2019 17:25:00 9.2 C 77 % 5.38 C
3379 08-03-2019 17:30:00 9.1 C 78 % 5.47 C
3380 08-03-2019 17:35:00 9 C 79 % 5.56 C
3381 08-03-2019 17:40:00 8.9 C 81 % 5.82 C
3382 08-03-2019 17:45:00 8.7 C 81 % 5.63 C
3383 08-03-2019 17:50:00 8.5 C 82 % 5.61 C
3384 08-03-2019 17:55:00 8.3 C 83 % 5.59 C
3385 08-03-2019 18:00:00 8.1 C 84 % 5.56 C
3386 08-03-2019 18:05:00 7.9 C 84 % 5.37 C
3387 08-03-2019 18:10:00 7.7 C 85 % 5.34 C
3388 08-03-2019 18:15:00 7.6 C 85 % 5.24 C
3389 08-03-2019 18:20:00 7.4 C 85 % 5.05 C
3390 08-03-2019 18:25:00 7.4 C 85 % 5.05 C
3391 08-03-2019 18:30:00 7.3 C 85 % 4.95 C
3392 08-03-2019 18:35:00 7.2 C 86 % 5.02 C
3393 08-03-2019 18:40:00 7.2 C 86 % 5.02 C
3394 08-03-2019 18:45:00 7.1 C 86 % 4.92 C
3395 08-03-2019 18:50:00 7.1 C 86 % 4.92 C
3396 08-03-2019 18:55:00 7.1 C 86 % 4.92 C
3397 08-03-2019 19:00:00 7 C 87 % 4.99 C
3398 08-03-2019 19:05:00 7 C 87 % 4.99 C
3399 08-03-2019 19:10:00 7 C 87 % 4.99 C
3400 08-03-2019 19:15:00 6.9 C 88 % 5.05 C
Sensor: Nr:Datum:Temp:Feuchte:Taupunkt:
Aussen-T/F 3401 08-03-2019 19:20:00 6.9 C 88 % 5.05 C
3402 08-03-2019 19:25:00 6.9 C 87 % 4.89 C
3403 08-03-2019 19:30:00 6.8 C 88 % 4.96 C
3404 08-03-2019 19:35:00 6.8 C 88 % 4.96 C
3405 08-03-2019 19:40:00 6.7 C 88 % 4.86 C
3406 08-03-2019 19:45:00 6.7 C 88 % 4.86 C
3407 08-03-2019 19:50:00 6.7 C 89 % 5.02 C
3408 08-03-2019 19:55:00 6.6 C 89 % 4.92 C
3409 08-03-2019 20:00:00 6.6 C 89 % 4.92 C
3410 08-03-2019 20:05:00 6.4 C 89 % 4.72 C
3411 08-03-2019 20:10:00 6.4 C 89 % 4.72 C
3412 08-03-2019 20:15:00 6.3 C 89 % 4.62 C
3413 08-03-2019 20:20:00 6.3 C 89 % 4.62 C
3414 08-03-2019 20:25:00 6.3 C 90 % 4.78 C
3415 08-03-2019 20:30:00 6.2 C 89 % 4.53 C
3416 08-03-2019 20:35:00 6.2 C 90 % 4.69 C
3417 08-03-2019 20:40:00 6.2 C 90 % 4.69 C
3418 08-03-2019 20:45:00 6.2 C 90 % 4.69 C
3419 08-03-2019 20:50:00 6.2 C 90 % 4.69 C
3420 08-03-2019 20:55:00 6.3 C 90 % 4.78 C
3421 08-03-2019 21:00:00 6.3 C 90 % 4.78 C
3422 08-03-2019 21:05:00 6.3 C 90 % 4.78 C
3423 08-03-2019 21:10:00 6.3 C 90 % 4.78 C
3424 08-03-2019 21:15:00 6.4 C 90 % 4.88 C
3425 08-03-2019 21:20:00 6.5 C 90 % 4.98 C
Sensor: Nr:Datum:Temp:Feuchte:Taupunkt:
Aussen-T/F 3426 08-03-2019 21:25:00 6.6 C 90 % 5.08 C
3427 08-03-2019 21:30:00 6.6 C 89 % 4.92 C
3428 08-03-2019 21:35:00 6.6 C 89 % 4.92 C
3429 08-03-2019 21:40:00 6.6 C 89 % 4.92 C
3430 08-03-2019 21:45:00 6.6 C 89 % 4.92 C
3431 08-03-2019 21:50:00 6.7 C 88 % 4.86 C
3432 08-03-2019 21:55:00 6.8 C 88 % 4.96 C
3433 08-03-2019 22:00:00 6.8 C 88 % 4.96 C
3434 08-03-2019 22:05:00 6.8 C 87 % 4.79 C
3435 08-03-2019 22:10:00 6.8 C 87 % 4.79 C
3436 08-03-2019 22:15:00 6.8 C 87 % 4.79 C
3437 08-03-2019 22:20:00 6.8 C 87 % 4.79 C
3438 08-03-2019 22:25:00 6.8 C 87 % 4.79 C
3439 08-03-2019 22:30:00 6.8 C 86 % 4.63 C
3440 08-03-2019 22:35:00 7 C 85 % 4.66 C
3441 08-03-2019 22:40:00 7.2 C 85 % 4.85 C
3442 08-03-2019 22:45:00 7.3 C 83 % 4.61 C
3443 08-03-2019 22:50:00 7.5 C 82 % 4.63 C
3444 08-03-2019 22:55:00 7.7 C 81 % 4.65 C
3445 08-03-2019 23:00:00 7.9 C 80 % 4.67 C
3446 08-03-2019 23:05:00 8.2 C 79 % 4.78 C
3447 08-03-2019 23:10:00 8.3 C 78 % 4.7 C
3448 08-03-2019 23:15:00 8.3 C 78 % 4.7 C
3449 08-03-2019 23:20:00 8.3 C 78 % 4.7 C
3450 08-03-2019 23:25:00 8.3 C 78 % 4.7 C
Sensor: Nr:Datum:Temp:Feuchte:Taupunkt:
Aussen-T/F 3451 08-03-2019 23:30:00 8.3 C 78 % 4.7 C
3452 08-03-2019 23:35:00 8.3 C 78 % 4.7 C
3453 08-03-2019 23:40:00 8.3 C 77 % 4.51 C
3454 08-03-2019 23:45:00 8.3 C 77 % 4.51 C
3455 08-03-2019 23:50:00 8.3 C 77 % 4.51 C
3456 08-03-2019 23:55:00 8.3 C 77 % 4.51 C
3457 09-03-2019 00:00:00 8.4 C 77 % 4.61 C
3458 09-03-2019 00:05:00 8.4 C 76 % 4.42 C
3459 09-03-2019 00:10:00 8.4 C 77 % 4.61 C
3460 09-03-2019 00:15:00 8.4 C 76 % 4.42 C
3461 09-03-2019 00:20:00 8.5 C 76 % 4.52 C
3462 09-03-2019 00:25:00 8.5 C 75 % 4.33 C
3463 09-03-2019 00:30:00 8.6 C 75 % 4.43 C
3464 09-03-2019 00:35:00 8.6 C 76 % 4.62 C
3465 09-03-2019 00:40:00 8.7 C 75 % 4.52 C
3466 09-03-2019 00:45:00 8.7 C 75 % 4.52 C
3467 09-03-2019 00:50:00 8.8 C 74 % 4.43 C
3468 09-03-2019 00:55:00 8.8 C 74 % 4.43 C
3469 09-03-2019 01:00:00 8.9 C 74 % 4.53 C
3470 09-03-2019 01:05:00 9 C 73 % 4.43 C
3471 09-03-2019 01:10:00 9.1 C 73 % 4.52 C
3472 09-03-2019 01:15:00 9.1 C 73 % 4.52 C
3473 09-03-2019 01:20:00 9.1 C 74 % 4.72 C
3474 09-03-2019 01:25:00 9.1 C 73 % 4.52 C
3475 09-03-2019 01:30:00 9.2 C 72 % 4.42 C
Sensor: Nr:Datum:Temp:Feuchte:Taupunkt:
Aussen-T/F 3476 09-03-2019 01:35:00 9.2 C 72 % 4.42 C
3477 09-03-2019 01:40:00 9.3 C 72 % 4.52 C
3478 09-03-2019 01:45:00 9.3 C 72 % 4.52 C
3479 09-03-2019 01:50:00 9.3 C 72 % 4.52 C
3480 09-03-2019 01:55:00 9.3 C 72 % 4.52 C
3481 09-03-2019 02:00:00 9.3 C 73 % 4.72 C
3482 09-03-2019 02:05:00 9.3 C 72 % 4.52 C
3483 09-03-2019 02:10:00 9.3 C 72 % 4.52 C
3484 09-03-2019 02:15:00 9.4 C 72 % 4.62 C
3485 09-03-2019 02:20:00 9.4 C 73 % 4.81 C
3486 09-03-2019 02:25:00 9.4 C 72 % 4.62 C
3487 09-03-2019 02:30:00 9.4 C 72 % 4.62 C
3488 09-03-2019 02:35:00 9.4 C 72 % 4.62 C
3489 09-03-2019 02:40:00 9.4 C 73 % 4.81 C
3490 09-03-2019 02:45:00 9.4 C 73 % 4.81 C
3491 09-03-2019 02:50:00 9.4 C 72 % 4.62 C
3492 09-03-2019 02:55:00 9.4 C 73 % 4.81 C
3493 09-03-2019 03:00:00 9.3 C 73 % 4.72 C
3494 09-03-2019 03:05:00 9.3 C 74 % 4.91 C
3495 09-03-2019 03:10:00 9.3 C 74 % 4.91 C
3496 09-03-2019 03:15:00 9.3 C 74 % 4.91 C
3497 09-03-2019 03:20:00 9.2 C 74 % 4.81 C
3498 09-03-2019 03:25:00 9.2 C 74 % 4.81 C
3499 09-03-2019 03:30:00 9.2 C 76 % 5.2 C
3500 09-03-2019 03:35:00 8.9 C 78 % 5.28 C
Sensor: Nr:Datum:Temp:Feuchte:Taupunkt:
Aussen-T/F 3501 09-03-2019 03:40:00 8.8 C 79 % 5.36 C
3502 09-03-2019 03:45:00 8.7 C 80 % 5.45 C
3503 09-03-2019 03:50:00 8.6 C 80 % 5.35 C
3504 09-03-2019 03:55:00 8.6 C 81 % 5.53 C
3505 09-03-2019 04:00:00 8.4 C 82 % 5.51 C
3506 09-03-2019 04:05:00 8.3 C 83 % 5.59 C
3507 09-03-2019 04:10:00 8.2 C 84 % 5.66 C
3508 09-03-2019 04:15:00 8.1 C 85 % 5.73 C
3509 09-03-2019 04:20:00 7.9 C 85 % 5.54 C
3510 09-03-2019 04:25:00 7.8 C 85 % 5.44 C
3511 09-03-2019 04:30:00 7.8 C 85 % 5.44 C
3512 09-03-2019 04:35:00 7.8 C 86 % 5.61 C
3513 09-03-2019 04:40:00 7.8 C 86 % 5.61 C
3514 09-03-2019 04:45:00 7.8 C 86 % 5.61 C
3515 09-03-2019 04:50:00 7.8 C 86 % 5.61 C
3516 09-03-2019 04:55:00 7.8 C 86 % 5.61 C
3517 09-03-2019 05:00:00 7.8 C 86 % 5.61 C
3518 09-03-2019 05:05:00 7.8 C 86 % 5.61 C
3519 09-03-2019 05:10:00 7.8 C 87 % 5.78 C
3520 09-03-2019 05:15:00 7.8 C 87 % 5.78 C
3521 09-03-2019 05:20:00 7.8 C 87 % 5.78 C
3522 09-03-2019 05:25:00 7.8 C 88 % 5.94 C
3523 09-03-2019 05:30:00 7.8 C 88 % 5.94 C
3524 09-03-2019 05:35:00 7.7 C 88 % 5.84 C
3525 09-03-2019 05:40:00 7.7 C 88 % 5.84 C
Sensor: Nr:Datum:Temp:Feuchte:Taupunkt:
Aussen-T/F 3526 09-03-2019 05:45:00 7.7 C 88 % 5.84 C
3527 09-03-2019 05:50:00 7.8 C 88 % 5.94 C
3528 09-03-2019 05:55:00 7.8 C 88 % 5.94 C
3529 09-03-2019 06:00:00 7.8 C 88 % 5.94 C
3530 09-03-2019 06:05:00 7.9 C 88 % 6.04 C
3531 09-03-2019 06:10:00 8 C 88 % 6.14 C
3532 09-03-2019 06:15:00 8 C 88 % 6.14 C
3533 09-03-2019 06:20:00 8.1 C 88 % 6.24 C
3534 09-03-2019 06:25:00 8.1 C 88 % 6.24 C
3535 09-03-2019 06:30:00 8.1 C 88 % 6.24 C
3536 09-03-2019 06:35:00 8.1 C 88 % 6.24 C
3537 09-03-2019 06:40:00 8.2 C 88 % 6.33 C
3538 09-03-2019 06:45:00 8.2 C 88 % 6.33 C
3539 09-03-2019 06:50:00 8.2 C 88 % 6.33 C
3540 09-03-2019 06:55:00 8.3 C 88 % 6.43 C
3541 09-03-2019 07:00:00 8.3 C 88 % 6.43 C
3542 09-03-2019 07:05:00 8.3 C 88 % 6.43 C
3543 09-03-2019 07:10:00 8.4 C 88 % 6.53 C
3544 09-03-2019 07:15:00 8.5 C 88 % 6.63 C
3545 09-03-2019 07:20:00 8.6 C 88 % 6.73 C
3546 09-03-2019 07:25:00 8.6 C 88 % 6.73 C
3547 09-03-2019 07:30:00 8.7 C 87 % 6.66 C
3548 09-03-2019 07:35:00 8.7 C 87 % 6.66 C
3549 09-03-2019 07:40:00 8.8 C 87 % 6.76 C
3550 09-03-2019 07:45:00 8.9 C 86 % 6.69 C
Sensor: Nr:Datum:Temp:Feuchte:Taupunkt:
Aussen-T/F 3551 09-03-2019 07:50:00 8.9 C 86 % 6.69 C
3552 09-03-2019 07:55:00 8.9 C 86 % 6.69 C
3553 09-03-2019 08:00:00 8.9 C 86 % 6.69 C
3554 09-03-2019 08:05:00 9 C 86 % 6.79 C
3555 09-03-2019 08:10:00 9.2 C 86 % 6.98 C
3556 09-03-2019 08:15:00 9.3 C 86 % 7.08 C
3557 09-03-2019 08:20:00 9.3 C 85 % 6.91 C
3558 09-03-2019 08:25:00 9.3 C 85 % 6.91 C
3559 09-03-2019 08:30:00 9.4 C 85 % 7.01 C
3560 09-03-2019 08:35:00 9.6 C 85 % 7.21 C
3561 09-03-2019 08:40:00 9.7 C 85 % 7.3 C
3562 09-03-2019 08:45:00 9.8 C 85 % 7.4 C
3563 09-03-2019 08:50:00 9.9 C 85 % 7.5 C
3564 09-03-2019 08:55:00 10 C 84 % 7.43 C
3565 09-03-2019 09:00:00 10.1 C 84 % 7.52 C
3566 09-03-2019 09:05:00 10.1 C 84 % 7.52 C
3567 09-03-2019 09:10:00 10.1 C 84 % 7.52 C
3568 09-03-2019 09:15:00 10.1 C 84 % 7.52 C
3569 09-03-2019 09:20:00 10.1 C 84 % 7.52 C
3570 09-03-2019 09:25:00 10.1 C 84 % 7.52 C
3571 09-03-2019 09:30:00 10.1 C 84 % 7.52 C
3572 09-03-2019 09:35:00 10.2 C 84 % 7.62 C
3573 09-03-2019 09:40:00 10.2 C 83 % 7.45 C
3574 09-03-2019 09:45:00 10.2 C 83 % 7.45 C
3575 09-03-2019 09:50:00 10.3 C 83 % 7.54 C
Sensor: Nr:Datum:Temp:Feuchte:Taupunkt:
Aussen-T/F 3576 09-03-2019 09:55:00 10.3 C 83 % 7.54 C
3577 09-03-2019 10:00:00 10.3 C 83 % 7.54 C
3578 09-03-2019 10:05:00 10.3 C 82 % 7.37 C
3579 09-03-2019 10:10:00 10.3 C 82 % 7.37 C
3580 09-03-2019 10:15:00 10.3 C 82 % 7.37 C
3581 09-03-2019 10:20:00 10.4 C 82 % 7.46 C
3582 09-03-2019 10:25:00 10.5 C 81 % 7.38 C
3583 09-03-2019 10:30:00 10.6 C 81 % 7.48 C
3584 09-03-2019 10:35:00 10.6 C 81 % 7.48 C
3585 09-03-2019 10:40:00 10.7 C 80 % 7.4 C
3586 09-03-2019 10:45:00 10.7 C 81 % 7.58 C
3587 09-03-2019 10:50:00 10.7 C 81 % 7.58 C
3588 09-03-2019 10:55:00 10.7 C 81 % 7.58 C
3589 09-03-2019 11:00:00 10.7 C 81 % 7.58 C
3590 09-03-2019 11:05:00 10.7 C 81 % 7.58 C
3591 09-03-2019 11:10:00 10.7 C 80 % 7.4 C
3592 09-03-2019 11:15:00 10.8 C 81 % 7.67 C
3593 09-03-2019 11:20:00 10.8 C 80 % 7.49 C
3594 09-03-2019 11:25:00 10.8 C 80 % 7.49 C
3595 09-03-2019 11:30:00 10.9 C 80 % 7.59 C
3596 09-03-2019 11:35:00 11 C 80 % 7.69 C
3597 09-03-2019 11:40:00 11.1 C 79 % 7.6 C
3598 09-03-2019 11:45:00 11.1 C 79 % 7.6 C
3599 09-03-2019 11:50:00 11.2 C 79 % 7.7 C
3600 09-03-2019 11:55:00 11.3 C 78 % 7.61 C
Sensor: Nr:Datum:Temp:Feuchte:Taupunkt:
Aussen-T/F 3601 09-03-2019 12:00:00 11.4 C 78 % 7.71 C
3602 09-03-2019 12:05:00 11.4 C 77 % 7.52 C
3603 09-03-2019 12:10:00 11.5 C 78 % 7.8 C
3604 09-03-2019 12:15:00 11.5 C 77 % 7.61 C
3605 09-03-2019 12:20:00 11.5 C 77 % 7.61 C
3606 09-03-2019 12:25:00 11.6 C 77 % 7.71 C
3607 09-03-2019 12:30:00 11.7 C 77 % 7.81 C
3608 09-03-2019 12:35:00 11.8 C 77 % 7.9 C
3609 09-03-2019 12:40:00 11.9 C 76 % 7.81 C
3610 09-03-2019 12:45:00 12.1 C 76 % 8 C
3611 09-03-2019 12:50:00 12.1 C 75 % 7.81 C
3612 09-03-2019 12:55:00 12.1 C 75 % 7.81 C
3613 09-03-2019 13:00:00 12.1 C 76 % 8 C
3614 09-03-2019 13:05:00 12.1 C 76 % 8 C
3615 09-03-2019 13:10:00 12.2 C 76 % 8.1 C
3616 09-03-2019 13:15:00 12.3 C 75 % 8 C
3617 09-03-2019 13:20:00 12.4 C 75 % 8.1 C
3618 09-03-2019 13:25:00 12.5 C 75 % 8.19 C
3619 09-03-2019 13:30:00 12.6 C 74 % 8.09 C
3620 09-03-2019 13:35:00 12.7 C 74 % 8.19 C
3621 09-03-2019 13:40:00 12.7 C 74 % 8.19 C
3622 09-03-2019 13:45:00 12.7 C 74 % 8.19 C
3623 09-03-2019 13:50:00 12.9 C 73 % 8.18 C
3624 09-03-2019 13:55:00 13.1 C 73 % 8.38 C
3625 09-03-2019 14:00:00 13.3 C 72 % 8.36 C
Sensor: Nr:Datum:Temp:Feuchte:Taupunkt:
Aussen-T/F 3626 09-03-2019 14:05:00 13.6 C 70 % 8.24 C
3627 09-03-2019 14:10:00 13.6 C 70 % 8.24 C
3628 09-03-2019 14:15:00 13.6 C 69 % 8.03 C
3629 09-03-2019 14:20:00 13.7 C 70 % 8.33 C
3630 09-03-2019 14:25:00 13.7 C 70 % 8.33 C
3631 09-03-2019 14:30:00 13.6 C 68 % 7.81 C
3632 09-03-2019 14:35:00 13.6 C 69 % 8.03 C
3633 09-03-2019 14:40:00 13.6 C 69 % 8.03 C
3634 09-03-2019 14:45:00 13.3 C 70 % 7.95 C
3635 09-03-2019 14:50:00 13.2 C 70 % 7.86 C
3636 09-03-2019 14:55:00 13 C 70 % 7.66 C
3637 09-03-2019 15:00:00 12.9 C 71 % 7.78 C
3638 09-03-2019 15:05:00 13 C 71 % 7.87 C
3639 09-03-2019 15:10:00 13.1 C 70 % 7.76 C
3640 09-03-2019 15:15:00 13.1 C 70 % 7.76 C
3641 09-03-2019 15:20:00 13.1 C 69 % 7.55 C
3642 09-03-2019 15:25:00 13.1 C 69 % 7.55 C
3643 09-03-2019 15:30:00 13.2 C 69 % 7.64 C
3644 09-03-2019 15:35:00 13.4 C 69 % 7.84 C
3645 09-03-2019 15:40:00 13.7 C 68 % 7.91 C
3646 09-03-2019 15:45:00 13.8 C 67 % 7.79 C
3647 09-03-2019 15:50:00 13.7 C 66 % 7.47 C
3648 09-03-2019 15:55:00 13.6 C 67 % 7.6 C
3649 09-03-2019 16:00:00 13.7 C 67 % 7.69 C
3650 09-03-2019 16:05:00 13.7 C 65 % 7.25 C
Sensor: Nr:Datum:Temp:Feuchte:Taupunkt:
Aussen-T/F 3651 09-03-2019 16:10:00 13.6 C 65 % 7.15 C
3652 09-03-2019 16:15:00 13.4 C 67 % 7.4 C
3653 09-03-2019 16:20:00 13.3 C 67 % 7.31 C
3654 09-03-2019 16:25:00 13.2 C 67 % 7.21 C
3655 09-03-2019 16:30:00 13.3 C 66 % 7.09 C
3656 09-03-2019 16:35:00 13.4 C 61 % 6.04 C
3657 09-03-2019 16:40:00 13.3 C 59 % 5.47 C
3658 09-03-2019 16:45:00 13.3 C 59 % 5.47 C
3659 09-03-2019 16:50:00 13.2 C 59 % 5.37 C
3660 09-03-2019 16:55:00 13.3 C 59 % 5.47 C
3661 09-03-2019 17:00:00 13.3 C 59 % 5.47 C
3662 09-03-2019 17:05:00 13.4 C 60 % 5.8 C
3663 09-03-2019 17:10:00 13.5 C 60 % 5.9 C
3664 09-03-2019 17:15:00 13.4 C 60 % 5.8 C
3665 09-03-2019 17:20:00 13.2 C 60 % 5.61 C
3666 09-03-2019 17:25:00 13.1 C 60 % 5.52 C
3667 09-03-2019 17:30:00 13.1 C 61 % 5.76 C
3668 09-03-2019 17:35:00 13.1 C 61 % 5.76 C
3669 09-03-2019 17:40:00 12.9 C 62 % 5.8 C
3670 09-03-2019 17:45:00 12.7 C 62 % 5.62 C
3671 09-03-2019 17:50:00 12.6 C 61 % 5.29 C
3672 09-03-2019 17:55:00 12.4 C 62 % 5.33 C
3673 09-03-2019 18:00:00 12.3 C 63 % 5.47 C
3674 09-03-2019 18:05:00 12.2 C 63 % 5.37 C
3675 09-03-2019 18:10:00 12.1 C 63 % 5.28 C
Sensor: Nr:Datum:Temp:Feuchte:Taupunkt:
Aussen-T/F 3676 09-03-2019 18:15:00 12 C 63 % 5.18 C
3677 09-03-2019 18:20:00 11.9 C 63 % 5.09 C
3678 09-03-2019 18:25:00 11.9 C 63 % 5.09 C
3679 09-03-2019 18:30:00 11.8 C 63 % 5 C
3680 09-03-2019 18:35:00 11.9 C 62 % 4.86 C
3681 09-03-2019 18:40:00 12 C 62 % 4.96 C
3682 09-03-2019 18:45:00 11.9 C 62 % 4.86 C
3683 09-03-2019 18:50:00 12.1 C 62 % 5.05 C
3684 09-03-2019 18:55:00 12.1 C 62 % 5.05 C
3685 09-03-2019 19:00:00 12.1 C 63 % 5.28 C
3686 09-03-2019 19:05:00 12 C 66 % 5.85 C
3687 09-03-2019 19:10:00 11.4 C 69 % 5.92 C
3688 09-03-2019 19:15:00 11.1 C 72 % 6.25 C
3689 09-03-2019 19:20:00 10.8 C 73 % 6.16 C
3690 09-03-2019 19:25:00 10.7 C 74 % 6.26 C
3691 09-03-2019 19:30:00 10.4 C 77 % 6.55 C
3692 09-03-2019 19:35:00 10.2 C 78 % 6.54 C
3693 09-03-2019 19:40:00 9.9 C 79 % 6.43 C
3694 09-03-2019 19:45:00 9.8 C 80 % 6.52 C
3695 09-03-2019 19:50:00 9.8 C 80 % 6.52 C
3696 09-03-2019 19:55:00 9.7 C 80 % 6.42 C
3697 09-03-2019 20:00:00 9.7 C 80 % 6.42 C
3698 09-03-2019 20:05:00 9.6 C 81 % 6.5 C
3699 09-03-2019 20:10:00 9.6 C 81 % 6.5 C
3700 09-03-2019 20:15:00 9.5 C 81 % 6.41 C
Sensor: Nr:Datum:Temp:Feuchte:Taupunkt:
Aussen-T/F 3701 09-03-2019 20:20:00 9.5 C 82 % 6.59 C
3702 09-03-2019 20:25:00 9.4 C 83 % 6.66 C
3703 09-03-2019 20:30:00 9.4 C 83 % 6.66 C
3704 09-03-2019 20:35:00 9.4 C 83 % 6.66 C
3705 09-03-2019 20:40:00 9.4 C 83 % 6.66 C
3706 09-03-2019 20:45:00 9.3 C 83 % 6.57 C
3707 09-03-2019 20:50:00 9.3 C 83 % 6.57 C
3708 09-03-2019 20:55:00 9.3 C 84 % 6.74 C
3709 09-03-2019 21:00:00 9.3 C 84 % 6.74 C
3710 09-03-2019 21:05:00 9.3 C 83 % 6.57 C
3711 09-03-2019 21:10:00 9.7 C 76 % 5.68 C
3712 09-03-2019 21:15:00 10.2 C 79 % 6.73 C
3713 09-03-2019 21:20:00 10.2 C 80 % 6.91 C
3714 09-03-2019 21:25:00 10 C 81 % 6.89 C
3715 09-03-2019 21:30:00 9.8 C 82 % 6.88 C
3716 09-03-2019 21:35:00 9.7 C 83 % 6.96 C
3717 09-03-2019 21:40:00 9.6 C 84 % 7.03 C
3718 09-03-2019 21:45:00 9.5 C 84 % 6.94 C
3719 09-03-2019 21:50:00 9.4 C 85 % 7.01 C
3720 09-03-2019 21:55:00 9.3 C 85 % 6.91 C
3721 09-03-2019 22:00:00 9.3 C 85 % 6.91 C
3722 09-03-2019 22:05:00 9.2 C 85 % 6.81 C
3723 09-03-2019 22:10:00 9.2 C 85 % 6.81 C
3724 09-03-2019 22:15:00 9.2 C 86 % 6.98 C
3725 09-03-2019 22:20:00 9.2 C 86 % 6.98 C
Sensor: Nr:Datum:Temp:Feuchte:Taupunkt:
Aussen-T/F 3726 09-03-2019 22:25:00 9.2 C 82 % 6.29 C
3727 09-03-2019 22:30:00 9.4 C 79 % 5.95 C
3728 09-03-2019 22:35:00 9.8 C 76 % 5.78 C
3729 09-03-2019 22:40:00 10 C 75 % 5.78 C
3730 09-03-2019 22:45:00 10.2 C 74 % 5.78 C
3731 09-03-2019 22:50:00 10.3 C 74 % 5.88 C
3732 09-03-2019 22:55:00 10.3 C 73 % 5.68 C
3733 09-03-2019 23:00:00 10.4 C 73 % 5.78 C
3734 09-03-2019 23:05:00 10.4 C 72 % 5.58 C
3735 09-03-2019 23:10:00 10.4 C 72 % 5.58 C
3736 09-03-2019 23:15:00 10.4 C 71 % 5.38 C
3737 09-03-2019 23:20:00 10.3 C 71 % 5.28 C
3738 09-03-2019 23:25:00 10.4 C 71 % 5.38 C
3739 09-03-2019 23:30:00 10.4 C 71 % 5.38 C
3740 09-03-2019 23:35:00 10.3 C 71 % 5.28 C
3741 09-03-2019 23:40:00 10.3 C 71 % 5.28 C
3742 09-03-2019 23:45:00 10.3 C 71 % 5.28 C
3743 09-03-2019 23:50:00 10.3 C 71 % 5.28 C
3744 09-03-2019 23:55:00 10.2 C 71 % 5.18 C
3745 10-03-2019 00:00:00 10.2 C 71 % 5.18 C
3746 10-03-2019 00:05:00 10.2 C 71 % 5.18 C
3747 10-03-2019 00:10:00 10.2 C 70 % 4.98 C
3748 10-03-2019 00:15:00 10.2 C 70 % 4.98 C
3749 10-03-2019 00:20:00 10.2 C 69 % 4.78 C
3750 10-03-2019 00:25:00 10.2 C 68 % 4.57 C
Sensor: Nr:Datum:Temp:Feuchte:Taupunkt:
Aussen-T/F 3751 10-03-2019 00:30:00 10.2 C 69 % 4.78 C
3752 10-03-2019 00:35:00 10.2 C 69 % 4.78 C
3753 10-03-2019 00:40:00 10.1 C 69 % 4.68 C
3754 10-03-2019 00:45:00 10 C 70 % 4.79 C
3755 10-03-2019 00:50:00 9.9 C 70 % 4.69 C
3756 10-03-2019 00:55:00 9.8 C 70 % 4.6 C
3757 10-03-2019 01:00:00 9.8 C 70 % 4.6 C
3758 10-03-2019 01:05:00 9.8 C 69 % 4.39 C
3759 10-03-2019 01:10:00 9.8 C 69 % 4.39 C
3760 10-03-2019 01:15:00 9.8 C 70 % 4.6 C
3761 10-03-2019 01:20:00 9.7 C 69 % 4.3 C
3762 10-03-2019 01:25:00 9.7 C 70 % 4.5 C
3763 10-03-2019 01:30:00 9.7 C 70 % 4.5 C
3764 10-03-2019 01:35:00 9.6 C 71 % 4.61 C
3765 10-03-2019 01:40:00 9.6 C 71 % 4.61 C
3766 10-03-2019 01:45:00 9.5 C 72 % 4.71 C
3767 10-03-2019 01:50:00 9.5 C 72 % 4.71 C
3768 10-03-2019 01:55:00 9.5 C 72 % 4.71 C
3769 10-03-2019 02:00:00 9.5 C 73 % 4.91 C
3770 10-03-2019 02:05:00 9.4 C 73 % 4.81 C
3771 10-03-2019 02:10:00 9.4 C 73 % 4.81 C
3772 10-03-2019 02:15:00 9.4 C 73 % 4.81 C
3773 10-03-2019 02:20:00 9.4 C 74 % 5.01 C
3774 10-03-2019 02:25:00 9.4 C 73 % 4.81 C
3775 10-03-2019 02:30:00 9.4 C 74 % 5.01 C
Sensor: Nr:Datum:Temp:Feuchte:Taupunkt:
Aussen-T/F 3776 10-03-2019 02:35:00 9.4 C 74 % 5.01 C
3777 10-03-2019 02:40:00 9.4 C 74 % 5.01 C
3778 10-03-2019 02:45:00 9.4 C 74 % 5.01 C
3779 10-03-2019 02:50:00 9.4 C 74 % 5.01 C
3780 10-03-2019 02:55:00 9.4 C 74 % 5.01 C
3781 10-03-2019 03:00:00 9.4 C 75 % 5.2 C
3782 10-03-2019 03:05:00 9.4 C 75 % 5.2 C
3783 10-03-2019 03:10:00 9.3 C 75 % 5.1 C
3784 10-03-2019 03:15:00 9.3 C 76 % 5.29 C
3785 10-03-2019 03:20:00 9.3 C 76 % 5.29 C
3786 10-03-2019 03:25:00 9.2 C 77 % 5.38 C
3787 10-03-2019 03:30:00 9.2 C 77 % 5.38 C
3788 10-03-2019 03:35:00 9.1 C 78 % 5.47 C
3789 10-03-2019 03:40:00 8.9 C 79 % 5.46 C
3790 10-03-2019 03:45:00 8.8 C 79 % 5.36 C
3791 10-03-2019 03:50:00 8.7 C 80 % 5.45 C
3792 10-03-2019 03:55:00 8.6 C 81 % 5.53 C
3793 10-03-2019 04:00:00 8.5 C 81 % 5.43 C
3794 10-03-2019 04:05:00 8.4 C 81 % 5.33 C
3795 10-03-2019 04:10:00 8.4 C 82 % 5.51 C
3796 10-03-2019 04:15:00 8.4 C 83 % 5.69 C
3797 10-03-2019 04:20:00 8.4 C 84 % 5.86 C
3798 10-03-2019 04:25:00 8.4 C 85 % 6.03 C
3799 10-03-2019 04:30:00 8.4 C 86 % 6.2 C
3800 10-03-2019 04:35:00 8.3 C 87 % 6.27 C
Sensor: Nr:Datum:Temp:Feuchte:Taupunkt:
Aussen-T/F 3801 10-03-2019 04:40:00 8.3 C 87 % 6.27 C
3802 10-03-2019 04:45:00 8.2 C 88 % 6.33 C
3803 10-03-2019 04:50:00 8.1 C 88 % 6.24 C
3804 10-03-2019 04:55:00 8.1 C 89 % 6.4 C
3805 10-03-2019 05:00:00 8 C 89 % 6.3 C
3806 10-03-2019 05:05:00 7.9 C 90 % 6.36 C
3807 10-03-2019 05:10:00 7.9 C 90 % 6.36 C
3808 10-03-2019 05:15:00 7.9 C 90 % 6.36 C
3809 10-03-2019 05:20:00 7.9 C 90 % 6.36 C
3810 10-03-2019 05:25:00 7.8 C 91 % 6.43 C
3811 10-03-2019 05:30:00 7.8 C 91 % 6.43 C
3812 10-03-2019 05:35:00 7.7 C 92 % 6.48 C
3813 10-03-2019 05:40:00 7.7 C 92 % 6.48 C
3814 10-03-2019 05:45:00 7.7 C 92 % 6.48 C
3815 10-03-2019 05:50:00 7.7 C 92 % 6.48 C
3816 10-03-2019 05:55:00 7.6 C 92 % 6.39 C
3817 10-03-2019 06:00:00 7.6 C 93 % 6.54 C
3818 10-03-2019 06:05:00 7.6 C 93 % 6.54 C
3819 10-03-2019 06:10:00 7.6 C 93 % 6.54 C
3820 10-03-2019 06:15:00 7.6 C 93 % 6.54 C
3821 10-03-2019 06:20:00 7.5 C 93 % 6.44 C
3822 10-03-2019 06:25:00 7.5 C 93 % 6.44 C
3823 10-03-2019 06:30:00 7.4 C 94 % 6.5 C
3824 10-03-2019 06:35:00 7.4 C 94 % 6.5 C
3825 10-03-2019 06:40:00 7.4 C 94 % 6.5 C
Sensor: Nr:Datum:Temp:Feuchte:Taupunkt:
Aussen-T/F 3826 10-03-2019 06:45:00 7.4 C 94 % 6.5 C
3827 10-03-2019 06:50:00 7.4 C 94 % 6.5 C
3828 10-03-2019 06:55:00 7.3 C 94 % 6.4 C
3829 10-03-2019 07:00:00 7.3 C 94 % 6.4 C
3830 10-03-2019 07:05:00 7.4 C 94 % 6.5 C
3831 10-03-2019 07:10:00 7.4 C 95 % 6.65 C
3832 10-03-2019 07:15:00 7.6 C 95 % 6.85 C
3833 10-03-2019 07:20:00 7.6 C 95 % 6.85 C
3834 10-03-2019 07:25:00 7.7 C 95 % 6.95 C
3835 10-03-2019 07:30:00 7.7 C 95 % 6.95 C
3836 10-03-2019 07:35:00 7.8 C 95 % 7.05 C
3837 10-03-2019 07:40:00 7.8 C 95 % 7.05 C
3838 10-03-2019 07:45:00 7.9 C 95 % 7.15 C
3839 10-03-2019 07:50:00 7.9 C 95 % 7.15 C
3840 10-03-2019 07:55:00 8 C 95 % 7.25 C
3841 10-03-2019 08:00:00 8.1 C 95 % 7.35 C
3842 10-03-2019 08:05:00 8.1 C 96 % 7.5 C
3843 10-03-2019 08:10:00 8.2 C 96 % 7.6 C
3844 10-03-2019 08:15:00 8.3 C 96 % 7.7 C
3845 10-03-2019 08:20:00 8.4 C 96 % 7.8 C
3846 10-03-2019 08:25:00 8.7 C 96 % 8.1 C
3847 10-03-2019 08:30:00 8.9 C 96 % 8.3 C
3848 10-03-2019 08:35:00 9.2 C 96 % 8.6 C
3849 10-03-2019 08:40:00 9.4 C 96 % 8.8 C
3850 10-03-2019 08:45:00 9.6 C 96 % 8.99 C
Sensor: Nr:Datum:Temp:Feuchte:Taupunkt:
Aussen-T/F 3851 10-03-2019 08:50:00 9.7 C 96 % 9.09 C
3852 10-03-2019 08:55:00 9.8 C 96 % 9.19 C
3853 10-03-2019 09:00:00 9.9 C 96 % 9.29 C
3854 10-03-2019 09:05:00 10.1 C 96 % 9.49 C
3855 10-03-2019 09:10:00 10.2 C 95 % 9.44 C
3856 10-03-2019 09:15:00 10.3 C 95 % 9.54 C
3857 10-03-2019 09:20:00 10.4 C 95 % 9.63 C
3858 10-03-2019 09:25:00 10.4 C 95 % 9.63 C
3859 10-03-2019 09:30:00 10.6 C 95 % 9.83 C
3860 10-03-2019 09:35:00 10.7 C 95 % 9.93 C
3861 10-03-2019 09:40:00 10.8 C 95 % 10.03 C
3862 10-03-2019 09:45:00 11.1 C 95 % 10.33 C
3863 10-03-2019 09:50:00 11.2 C 95 % 10.43 C
3864 10-03-2019 09:55:00 11.3 C 95 % 10.53 C
3865 10-03-2019 10:00:00 11.4 C 94 % 10.47 C
3866 10-03-2019 10:05:00 11.5 C 94 % 10.57 C
3867 10-03-2019 10:10:00 11.6 C 94 % 10.67 C
3868 10-03-2019 10:15:00 11.7 C 94 % 10.77 C
3869 10-03-2019 10:20:00 11.8 C 94 % 10.87 C
3870 10-03-2019 10:25:00 11.9 C 94 % 10.97 C
3871 10-03-2019 10:30:00 12 C 94 % 11.07 C
3872 10-03-2019 10:35:00 12.2 C 94 % 11.26 C
3873 10-03-2019 10:40:00 12.2 C 93 % 11.1 C
3874 10-03-2019 10:45:00 12.3 C 92 % 11.04 C
3875 10-03-2019 10:50:00 12.4 C 92 % 11.14 C
Sensor: Nr:Datum:Temp:Feuchte:Taupunkt:
Aussen-T/F 3876 10-03-2019 10:55:00 12.5 C 91 % 11.07 C
3877 10-03-2019 11:00:00 12.6 C 90 % 11 C
3878 10-03-2019 11:05:00 12.7 C 88 % 10.77 C
3879 10-03-2019 11:10:00 12.8 C 85 % 10.34 C
3880 10-03-2019 11:15:00 12.9 C 81 % 9.72 C
3881 10-03-2019 11:20:00 13.2 C 79 % 9.64 C
3882 10-03-2019 11:25:00 13.3 C 77 % 9.36 C
3883 10-03-2019 11:30:00 13.3 C 75 % 8.97 C
3884 10-03-2019 11:35:00 13.3 C 74 % 8.77 C
3885 10-03-2019 11:40:00 13.3 C 74 % 8.77 C
3886 10-03-2019 11:45:00 13.3 C 75 % 8.97 C
3887 10-03-2019 11:50:00 13.4 C 74 % 8.87 C
3888 10-03-2019 11:55:00 13.6 C 73 % 8.86 C
3889 10-03-2019 12:00:00 13.7 C 75 % 9.35 C
3890 10-03-2019 12:05:00 13.8 C 75 % 9.45 C
3891 10-03-2019 12:10:00 13.9 C